<?xml version="1.0" encoding="UTF-8"?>
<gpx version="1.1" creator="https://www.youtrack.es" xsi:schemaLocation="http://www.topografix.com/GPX/1/1 http://www.topografix.com/GPX/1/1/gpx.xsd http://www.garmin.com/xmlschemas/GpxExtensions/v3 http://www.garmin.com/xmlschemas/GpxExtensionsv3.xsd http://www.garmin.com/xmlschemas/TrackPointExtension/v1 http://www.garmin.com/xmlschemas/TrackPointExtensionv1.xsd" xmlns:gpxtpx="http://www.garmin.com/xmlschemas/TrackPointExtension/v1" xmlns:gpxx="http://www.garmin.com/xmlschemas/GpxExtensions/v3" xmlns:xsi="http://www.w3.org/2001/XMLSchema-instance">
  <metadata>
    <link href="https://www.youtrack.es">
      <text>YouTrack.es</text>
    </link>
    <time>2026-05-08T06:40:40Z</time>
  </metadata>
  <trk>
    <src>https://www.youtrack.es</src>
    <link href="https://www.youtrack.es/ruta/19416-rutometro-barrios-de-teruel-4-y-5-teruel-el-campillo-villastar-villaspesa-aldehuela-castralvo-teruel">
      <text>YouTrack.es</text>
    </link>
    <trkseg>
      <trkpt lat="40.333181" lon="-1.085578">
        <ele>958.363</ele>
        <time>2015-02-19T09:25:49Z</time>
      </trkpt>
      <trkpt lat="40.333264" lon="-1.086567">
        <ele>958.444</ele>
        <time>2015-02-19T09:26:09Z</time>
      </trkpt>
      <trkpt lat="40.333254" lon="-1.086977">
        <ele>959.018</ele>
        <time>2015-02-19T09:26:29Z</time>
      </trkpt>
      <trkpt lat="40.332564" lon="-1.087158">
        <ele>959.007</ele>
        <time>2015-02-19T09:26:49Z</time>
      </trkpt>
      <trkpt lat="40.332620" lon="-1.087577">
        <ele>958.144</ele>
        <time>2015-02-19T09:27:09Z</time>
      </trkpt>
      <trkpt lat="40.332731" lon="-1.088264">
        <ele>956.624</ele>
        <time>2015-02-19T09:27:29Z</time>
      </trkpt>
      <trkpt lat="40.332934" lon="-1.089585">
        <ele>955.045</ele>
        <time>2015-02-19T09:27:49Z</time>
      </trkpt>
      <trkpt lat="40.333001" lon="-1.090122">
        <ele>953.080</ele>
        <time>2015-02-19T09:28:09Z</time>
      </trkpt>
      <trkpt lat="40.333142" lon="-1.091219">
        <ele>948.110</ele>
        <time>2015-02-19T09:28:29Z</time>
      </trkpt>
      <trkpt lat="40.333282" lon="-1.092649">
        <ele>945.286</ele>
        <time>2015-02-19T09:28:49Z</time>
      </trkpt>
      <trkpt lat="40.333354" lon="-1.093563">
        <ele>943.797</ele>
        <time>2015-02-19T09:29:09Z</time>
      </trkpt>
      <trkpt lat="40.333443" lon="-1.094908">
        <ele>941.262</ele>
        <time>2015-02-19T09:29:29Z</time>
      </trkpt>
      <trkpt lat="40.333470" lon="-1.095587">
        <ele>940.383</ele>
        <time>2015-02-19T09:29:49Z</time>
      </trkpt>
      <trkpt lat="40.333820" lon="-1.096267">
        <ele>937.411</ele>
        <time>2015-02-19T09:30:09Z</time>
      </trkpt>
      <trkpt lat="40.334027" lon="-1.096822">
        <ele>935.107</ele>
        <time>2015-02-19T09:30:29Z</time>
      </trkpt>
      <trkpt lat="40.334318" lon="-1.097450">
        <ele>935.664</ele>
        <time>2015-02-19T09:30:49Z</time>
      </trkpt>
      <trkpt lat="40.334880" lon="-1.098480">
        <ele>936.134</ele>
        <time>2015-02-19T09:31:09Z</time>
      </trkpt>
      <trkpt lat="40.335106" lon="-1.098690">
        <ele>933.265</ele>
        <time>2015-02-19T09:31:29Z</time>
      </trkpt>
      <trkpt lat="40.335698" lon="-1.099040">
        <ele>924.740</ele>
        <time>2015-02-19T09:31:49Z</time>
      </trkpt>
      <trkpt lat="40.336042" lon="-1.099386">
        <ele>920.280</ele>
        <time>2015-02-19T09:32:09Z</time>
      </trkpt>
      <trkpt lat="40.336606" lon="-1.100082">
        <ele>909.816</ele>
        <time>2015-02-19T09:32:29Z</time>
      </trkpt>
      <trkpt lat="40.337143" lon="-1.100648">
        <ele>900.737</ele>
        <time>2015-02-19T09:32:49Z</time>
      </trkpt>
      <trkpt lat="40.337621" lon="-1.101098">
        <ele>897.878</ele>
        <time>2015-02-19T09:33:09Z</time>
      </trkpt>
      <trkpt lat="40.337854" lon="-1.101210">
        <ele>896.333</ele>
        <time>2015-02-19T09:33:29Z</time>
      </trkpt>
      <trkpt lat="40.337958" lon="-1.101531">
        <ele>900.926</ele>
        <time>2015-02-19T09:33:49Z</time>
      </trkpt>
      <trkpt lat="40.338197" lon="-1.101978">
        <ele>904.307</ele>
        <time>2015-02-19T09:34:09Z</time>
      </trkpt>
      <trkpt lat="40.338613" lon="-1.102721">
        <ele>899.715</ele>
        <time>2015-02-19T09:34:29Z</time>
      </trkpt>
      <trkpt lat="40.338880" lon="-1.103273">
        <ele>890.855</ele>
        <time>2015-02-19T09:34:49Z</time>
      </trkpt>
      <trkpt lat="40.338976" lon="-1.103453">
        <ele>890.376</ele>
        <time>2015-02-19T09:35:09Z</time>
      </trkpt>
      <trkpt lat="40.339041" lon="-1.103716">
        <ele>889.421</ele>
        <time>2015-02-19T09:35:29Z</time>
      </trkpt>
      <trkpt lat="40.339027" lon="-1.104350">
        <ele>888.961</ele>
        <time>2015-02-19T09:35:49Z</time>
      </trkpt>
      <trkpt lat="40.338946" lon="-1.104505">
        <ele>888.977</ele>
        <time>2015-02-19T09:36:09Z</time>
      </trkpt>
      <trkpt lat="40.338859" lon="-1.104542">
        <ele>888.478</ele>
        <time>2015-02-19T09:36:29Z</time>
      </trkpt>
      <trkpt lat="40.338520" lon="-1.104829">
        <ele>887.455</ele>
        <time>2015-02-19T09:36:49Z</time>
      </trkpt>
      <trkpt lat="40.338430" lon="-1.105207">
        <ele>886.507</ele>
        <time>2015-02-19T09:37:09Z</time>
      </trkpt>
      <trkpt lat="40.338676" lon="-1.106630">
        <ele>886.517</ele>
        <time>2015-02-19T09:37:29Z</time>
      </trkpt>
      <trkpt lat="40.338740" lon="-1.107072">
        <ele>885.507</ele>
        <time>2015-02-19T09:37:49Z</time>
      </trkpt>
      <trkpt lat="40.338631" lon="-1.107475">
        <ele>885.553</ele>
        <time>2015-02-19T09:38:09Z</time>
      </trkpt>
      <trkpt lat="40.338532" lon="-1.107657">
        <ele>884.563</ele>
        <time>2015-02-19T09:38:29Z</time>
      </trkpt>
      <trkpt lat="40.338419" lon="-1.107831">
        <ele>884.144</ele>
        <time>2015-02-19T09:38:49Z</time>
      </trkpt>
      <trkpt lat="40.338326" lon="-1.108230">
        <ele>883.669</ele>
        <time>2015-02-19T09:39:09Z</time>
      </trkpt>
      <trkpt lat="40.338417" lon="-1.109060">
        <ele>881.759</ele>
        <time>2015-02-19T09:39:29Z</time>
      </trkpt>
      <trkpt lat="40.338622" lon="-1.109295">
        <ele>881.755</ele>
        <time>2015-02-19T09:39:49Z</time>
      </trkpt>
      <trkpt lat="40.339537" lon="-1.109109">
        <ele>881.736</ele>
        <time>2015-02-19T09:40:09Z</time>
      </trkpt>
      <trkpt lat="40.339760" lon="-1.109072">
        <ele>881.772</ele>
        <time>2015-02-19T09:40:29Z</time>
      </trkpt>
      <trkpt lat="40.340175" lon="-1.109038">
        <ele>883.113</ele>
        <time>2015-02-19T09:40:49Z</time>
      </trkpt>
      <trkpt lat="40.340264" lon="-1.109055">
        <ele>883.114</ele>
        <time>2015-02-19T09:41:09Z</time>
      </trkpt>
      <trkpt lat="40.340308" lon="-1.109074">
        <ele>882.607</ele>
        <time>2015-02-19T09:41:29Z</time>
      </trkpt>
      <trkpt lat="40.340558" lon="-1.109214">
        <ele>884.195</ele>
        <time>2015-02-19T09:41:49Z</time>
      </trkpt>
      <trkpt lat="40.340600" lon="-1.109238">
        <ele>884.195</ele>
        <time>2015-02-19T09:42:09Z</time>
      </trkpt>
      <trkpt lat="40.340765" lon="-1.109336">
        <ele>884.546</ele>
        <time>2015-02-19T09:42:29Z</time>
      </trkpt>
      <trkpt lat="40.340834" lon="-1.109397">
        <ele>884.551</ele>
        <time>2015-02-19T09:42:49Z</time>
      </trkpt>
      <trkpt lat="40.340856" lon="-1.109443">
        <ele>884.571</ele>
        <time>2015-02-19T09:43:09Z</time>
      </trkpt>
      <trkpt lat="40.340870" lon="-1.109498">
        <ele>884.137</ele>
        <time>2015-02-19T09:43:29Z</time>
      </trkpt>
      <trkpt lat="40.340875" lon="-1.109559">
        <ele>884.158</ele>
        <time>2015-02-19T09:43:49Z</time>
      </trkpt>
      <trkpt lat="40.340877" lon="-1.109622">
        <ele>884.544</ele>
        <time>2015-02-19T09:44:09Z</time>
      </trkpt>
      <trkpt lat="40.340895" lon="-1.109824">
        <ele>884.105</ele>
        <time>2015-02-19T09:44:29Z</time>
      </trkpt>
      <trkpt lat="40.340916" lon="-1.109891">
        <ele>883.615</ele>
        <time>2015-02-19T09:44:49Z</time>
      </trkpt>
      <trkpt lat="40.340952" lon="-1.109942">
        <ele>883.107</ele>
        <time>2015-02-19T09:45:09Z</time>
      </trkpt>
      <trkpt lat="40.341002" lon="-1.109964">
        <ele>883.112</ele>
        <time>2015-02-19T09:45:29Z</time>
      </trkpt>
      <trkpt lat="40.341056" lon="-1.109976">
        <ele>883.172</ele>
        <time>2015-02-19T09:45:49Z</time>
      </trkpt>
      <trkpt lat="40.341109" lon="-1.109982">
        <ele>883.113</ele>
        <time>2015-02-19T09:46:09Z</time>
      </trkpt>
      <trkpt lat="40.341253" lon="-1.110007">
        <ele>883.118</ele>
        <time>2015-02-19T09:46:29Z</time>
      </trkpt>
      <trkpt lat="40.341297" lon="-1.110009">
        <ele>883.168</ele>
        <time>2015-02-19T09:46:49Z</time>
      </trkpt>
      <trkpt lat="40.341340" lon="-1.110015">
        <ele>882.254</ele>
        <time>2015-02-19T09:47:09Z</time>
      </trkpt>
      <trkpt lat="40.341428" lon="-1.110032">
        <ele>883.175</ele>
        <time>2015-02-19T09:47:29Z</time>
      </trkpt>
      <trkpt lat="40.341518" lon="-1.110048">
        <ele>883.147</ele>
        <time>2015-02-19T09:47:49Z</time>
      </trkpt>
      <trkpt lat="40.341565" lon="-1.110044">
        <ele>883.129</ele>
        <time>2015-02-19T09:48:09Z</time>
      </trkpt>
      <trkpt lat="40.341615" lon="-1.110042">
        <ele>883.621</ele>
        <time>2015-02-19T09:48:29Z</time>
      </trkpt>
      <trkpt lat="40.342343" lon="-1.110290">
        <ele>884.107</ele>
        <time>2015-02-19T09:48:49Z</time>
      </trkpt>
      <trkpt lat="40.342695" lon="-1.110545">
        <ele>883.652</ele>
        <time>2015-02-19T09:49:09Z</time>
      </trkpt>
      <trkpt lat="40.343316" lon="-1.111061">
        <ele>887.042</ele>
        <time>2015-02-19T09:49:29Z</time>
      </trkpt>
      <trkpt lat="40.343462" lon="-1.111169">
        <ele>888.413</ele>
        <time>2015-02-19T09:49:49Z</time>
      </trkpt>
      <trkpt lat="40.343492" lon="-1.111175">
        <ele>887.988</ele>
        <time>2015-02-19T09:50:09Z</time>
      </trkpt>
      <trkpt lat="40.343525" lon="-1.111170">
        <ele>888.938</ele>
        <time>2015-02-19T09:50:29Z</time>
      </trkpt>
      <trkpt lat="40.343560" lon="-1.111160">
        <ele>888.944</ele>
        <time>2015-02-19T09:50:49Z</time>
      </trkpt>
      <trkpt lat="40.343623" lon="-1.111155">
        <ele>888.915</ele>
        <time>2015-02-19T09:51:09Z</time>
      </trkpt>
      <trkpt lat="40.343650" lon="-1.111181">
        <ele>888.919</ele>
        <time>2015-02-19T09:51:29Z</time>
      </trkpt>
      <trkpt lat="40.343663" lon="-1.111227">
        <ele>889.409</ele>
        <time>2015-02-19T09:51:49Z</time>
      </trkpt>
      <trkpt lat="40.343656" lon="-1.111279">
        <ele>888.919</ele>
        <time>2015-02-19T09:52:09Z</time>
      </trkpt>
      <trkpt lat="40.343640" lon="-1.111326">
        <ele>888.907</ele>
        <time>2015-02-19T09:52:29Z</time>
      </trkpt>
      <trkpt lat="40.343617" lon="-1.111368">
        <ele>889.489</ele>
        <time>2015-02-19T09:52:49Z</time>
      </trkpt>
      <trkpt lat="40.343588" lon="-1.111410">
        <ele>889.429</ele>
        <time>2015-02-19T09:53:09Z</time>
      </trkpt>
      <trkpt lat="40.343169" lon="-1.112121">
        <ele>890.840</ele>
        <time>2015-02-19T09:53:29Z</time>
      </trkpt>
      <trkpt lat="40.342693" lon="-1.113022">
        <ele>891.355</ele>
        <time>2015-02-19T09:53:49Z</time>
      </trkpt>
      <trkpt lat="40.342410" lon="-1.113988">
        <ele>892.265</ele>
        <time>2015-02-19T09:54:09Z</time>
      </trkpt>
      <trkpt lat="40.342251" lon="-1.114778">
        <ele>892.781</ele>
        <time>2015-02-19T09:54:29Z</time>
      </trkpt>
      <trkpt lat="40.342230" lon="-1.114826">
        <ele>892.742</ele>
        <time>2015-02-19T09:54:49Z</time>
      </trkpt>
      <trkpt lat="40.342205" lon="-1.114871">
        <ele>892.738</ele>
        <time>2015-02-19T09:55:09Z</time>
      </trkpt>
      <trkpt lat="40.342145" lon="-1.114951">
        <ele>892.770</ele>
        <time>2015-02-19T09:55:29Z</time>
      </trkpt>
      <trkpt lat="40.342107" lon="-1.114983">
        <ele>892.717</ele>
        <time>2015-02-19T09:55:49Z</time>
      </trkpt>
      <trkpt lat="40.342066" lon="-1.115008">
        <ele>892.707</ele>
        <time>2015-02-19T09:56:09Z</time>
      </trkpt>
      <trkpt lat="40.342020" lon="-1.115027">
        <ele>892.771</ele>
        <time>2015-02-19T09:56:29Z</time>
      </trkpt>
      <trkpt lat="40.341974" lon="-1.115040">
        <ele>892.251</ele>
        <time>2015-02-19T09:56:49Z</time>
      </trkpt>
      <trkpt lat="40.341923" lon="-1.115049">
        <ele>892.282</ele>
        <time>2015-02-19T09:57:09Z</time>
      </trkpt>
      <trkpt lat="40.341872" lon="-1.115047">
        <ele>892.217</ele>
        <time>2015-02-19T09:57:29Z</time>
      </trkpt>
      <trkpt lat="40.341823" lon="-1.115040">
        <ele>892.287</ele>
        <time>2015-02-19T09:57:49Z</time>
      </trkpt>
      <trkpt lat="40.341721" lon="-1.115032">
        <ele>891.863</ele>
        <time>2015-02-19T09:58:09Z</time>
      </trkpt>
      <trkpt lat="40.341672" lon="-1.115039">
        <ele>891.814</ele>
        <time>2015-02-19T09:58:29Z</time>
      </trkpt>
      <trkpt lat="40.341629" lon="-1.115064">
        <ele>891.846</ele>
        <time>2015-02-19T09:58:49Z</time>
      </trkpt>
      <trkpt lat="40.341603" lon="-1.115103">
        <ele>892.288</ele>
        <time>2015-02-19T09:59:09Z</time>
      </trkpt>
      <trkpt lat="40.341593" lon="-1.115147">
        <ele>892.216</ele>
        <time>2015-02-19T09:59:29Z</time>
      </trkpt>
      <trkpt lat="40.341586" lon="-1.115193">
        <ele>892.207</ele>
        <time>2015-02-19T09:59:49Z</time>
      </trkpt>
      <trkpt lat="40.341523" lon="-1.115778">
        <ele>894.642</ele>
        <time>2015-02-19T10:00:09Z</time>
      </trkpt>
      <trkpt lat="40.341546" lon="-1.115988">
        <ele>893.772</ele>
        <time>2015-02-19T10:00:29Z</time>
      </trkpt>
      <trkpt lat="40.341569" lon="-1.116054">
        <ele>893.273</ele>
        <time>2015-02-19T10:00:49Z</time>
      </trkpt>
      <trkpt lat="40.341633" lon="-1.116211">
        <ele>891.858</ele>
        <time>2015-02-19T10:01:09Z</time>
      </trkpt>
      <trkpt lat="40.341673" lon="-1.116296">
        <ele>891.398</ele>
        <time>2015-02-19T10:01:29Z</time>
      </trkpt>
      <trkpt lat="40.341721" lon="-1.116377">
        <ele>890.874</ele>
        <time>2015-02-19T10:01:49Z</time>
      </trkpt>
      <trkpt lat="40.341770" lon="-1.116438">
        <ele>891.855</ele>
        <time>2015-02-19T10:02:09Z</time>
      </trkpt>
      <trkpt lat="40.341879" lon="-1.116404">
        <ele>892.746</ele>
        <time>2015-02-19T10:02:29Z</time>
      </trkpt>
      <trkpt lat="40.341894" lon="-1.116365">
        <ele>892.788</ele>
        <time>2015-02-19T10:02:49Z</time>
      </trkpt>
      <trkpt lat="40.341910" lon="-1.116326">
        <ele>893.216</ele>
        <time>2015-02-19T10:03:09Z</time>
      </trkpt>
      <trkpt lat="40.341931" lon="-1.116291">
        <ele>893.707</ele>
        <time>2015-02-19T10:03:29Z</time>
      </trkpt>
      <trkpt lat="40.341949" lon="-1.116257">
        <ele>893.742</ele>
        <time>2015-02-19T10:03:49Z</time>
      </trkpt>
      <trkpt lat="40.342087" lon="-1.116067">
        <ele>897.012</ele>
        <time>2015-02-19T10:04:09Z</time>
      </trkpt>
      <trkpt lat="40.342129" lon="-1.116069">
        <ele>897.523</ele>
        <time>2015-02-19T10:04:29Z</time>
      </trkpt>
      <trkpt lat="40.342148" lon="-1.116088">
        <ele>898.088</ele>
        <time>2015-02-19T10:04:49Z</time>
      </trkpt>
      <trkpt lat="40.342160" lon="-1.116120">
        <ele>897.598</ele>
        <time>2015-02-19T10:05:09Z</time>
      </trkpt>
      <trkpt lat="40.342165" lon="-1.116155">
        <ele>898.014</ele>
        <time>2015-02-19T10:05:29Z</time>
      </trkpt>
      <trkpt lat="40.342163" lon="-1.116191">
        <ele>898.065</ele>
        <time>2015-02-19T10:05:49Z</time>
      </trkpt>
      <trkpt lat="40.342161" lon="-1.116225">
        <ele>898.597</ele>
        <time>2015-02-19T10:06:09Z</time>
      </trkpt>
      <trkpt lat="40.342142" lon="-1.116489">
        <ele>901.423</ele>
        <time>2015-02-19T10:06:29Z</time>
      </trkpt>
      <trkpt lat="40.342131" lon="-1.116753">
        <ele>904.325</ele>
        <time>2015-02-19T10:06:49Z</time>
      </trkpt>
      <trkpt lat="40.342134" lon="-1.117034">
        <ele>907.607</ele>
        <time>2015-02-19T10:07:09Z</time>
      </trkpt>
      <trkpt lat="40.342076" lon="-1.117260">
        <ele>910.027</ele>
        <time>2015-02-19T10:07:29Z</time>
      </trkpt>
      <trkpt lat="40.341978" lon="-1.117550">
        <ele>913.447</ele>
        <time>2015-02-19T10:07:49Z</time>
      </trkpt>
      <trkpt lat="40.341884" lon="-1.117890">
        <ele>916.358</ele>
        <time>2015-02-19T10:08:09Z</time>
      </trkpt>
      <trkpt lat="40.341891" lon="-1.118234">
        <ele>919.683</ele>
        <time>2015-02-19T10:08:29Z</time>
      </trkpt>
      <trkpt lat="40.341962" lon="-1.118637">
        <ele>922.533</ele>
        <time>2015-02-19T10:08:49Z</time>
      </trkpt>
      <trkpt lat="40.342066" lon="-1.119011">
        <ele>925.949</ele>
        <time>2015-02-19T10:09:09Z</time>
      </trkpt>
      <trkpt lat="40.342194" lon="-1.119434">
        <ele>928.820</ele>
        <time>2015-02-19T10:09:29Z</time>
      </trkpt>
      <trkpt lat="40.342109" lon="-1.119972">
        <ele>931.281</ele>
        <time>2015-02-19T10:09:49Z</time>
      </trkpt>
      <trkpt lat="40.342039" lon="-1.120353">
        <ele>934.161</ele>
        <time>2015-02-19T10:10:09Z</time>
      </trkpt>
      <trkpt lat="40.341969" lon="-1.120661">
        <ele>936.517</ele>
        <time>2015-02-19T10:10:29Z</time>
      </trkpt>
      <trkpt lat="40.341906" lon="-1.121130">
        <ele>938.907</ele>
        <time>2015-02-19T10:10:49Z</time>
      </trkpt>
      <trkpt lat="40.341905" lon="-1.121166">
        <ele>939.386</ele>
        <time>2015-02-19T10:11:09Z</time>
      </trkpt>
      <trkpt lat="40.341950" lon="-1.121532">
        <ele>942.736</ele>
        <time>2015-02-19T10:11:29Z</time>
      </trkpt>
      <trkpt lat="40.341992" lon="-1.121998">
        <ele>945.697</ele>
        <time>2015-02-19T10:11:49Z</time>
      </trkpt>
      <trkpt lat="40.341990" lon="-1.122071">
        <ele>946.112</ele>
        <time>2015-02-19T10:12:09Z</time>
      </trkpt>
      <trkpt lat="40.341986" lon="-1.122087">
        <ele>946.152</ele>
        <time>2015-02-19T10:12:29Z</time>
      </trkpt>
      <trkpt lat="40.341990" lon="-1.122106">
        <ele>946.698</ele>
        <time>2015-02-19T10:12:49Z</time>
      </trkpt>
      <trkpt lat="40.341995" lon="-1.122128">
        <ele>946.149</ele>
        <time>2015-02-19T10:13:09Z</time>
      </trkpt>
      <trkpt lat="40.341999" lon="-1.122150">
        <ele>946.688</ele>
        <time>2015-02-19T10:13:29Z</time>
      </trkpt>
      <trkpt lat="40.341964" lon="-1.122565">
        <ele>949.424</ele>
        <time>2015-02-19T10:13:49Z</time>
      </trkpt>
      <trkpt lat="40.341762" lon="-1.123126">
        <ele>950.926</ele>
        <time>2015-02-19T10:14:09Z</time>
      </trkpt>
      <trkpt lat="40.341483" lon="-1.123768">
        <ele>953.307</ele>
        <time>2015-02-19T10:14:29Z</time>
      </trkpt>
      <trkpt lat="40.341394" lon="-1.123970">
        <ele>954.276</ele>
        <time>2015-02-19T10:14:49Z</time>
      </trkpt>
      <trkpt lat="40.341364" lon="-1.124657">
        <ele>957.616</ele>
        <time>2015-02-19T10:15:09Z</time>
      </trkpt>
      <trkpt lat="40.341374" lon="-1.125420">
        <ele>958.197</ele>
        <time>2015-02-19T10:15:29Z</time>
      </trkpt>
      <trkpt lat="40.341342" lon="-1.126083">
        <ele>959.522</ele>
        <time>2015-02-19T10:15:49Z</time>
      </trkpt>
      <trkpt lat="40.341321" lon="-1.126735">
        <ele>961.082</ele>
        <time>2015-02-19T10:16:09Z</time>
      </trkpt>
      <trkpt lat="40.341287" lon="-1.127503">
        <ele>961.918</ele>
        <time>2015-02-19T10:16:29Z</time>
      </trkpt>
      <trkpt lat="40.341250" lon="-1.128279">
        <ele>963.929</ele>
        <time>2015-02-19T10:16:49Z</time>
      </trkpt>
      <trkpt lat="40.341157" lon="-1.129079">
        <ele>965.343</ele>
        <time>2015-02-19T10:17:09Z</time>
      </trkpt>
      <trkpt lat="40.341038" lon="-1.129922">
        <ele>965.864</ele>
        <time>2015-02-19T10:17:29Z</time>
      </trkpt>
      <trkpt lat="40.340937" lon="-1.130703">
        <ele>967.210</ele>
        <time>2015-02-19T10:17:49Z</time>
      </trkpt>
      <trkpt lat="40.340701" lon="-1.131427">
        <ele>968.707</ele>
        <time>2015-02-19T10:18:09Z</time>
      </trkpt>
      <trkpt lat="40.340360" lon="-1.132048">
        <ele>969.672</ele>
        <time>2015-02-19T10:18:29Z</time>
      </trkpt>
      <trkpt lat="40.340303" lon="-1.132122">
        <ele>969.242</ele>
        <time>2015-02-19T10:18:49Z</time>
      </trkpt>
      <trkpt lat="40.340217" lon="-1.132266">
        <ele>967.793</ele>
        <time>2015-02-19T10:19:09Z</time>
      </trkpt>
      <trkpt lat="40.340130" lon="-1.132513">
        <ele>967.788</ele>
        <time>2015-02-19T10:19:29Z</time>
      </trkpt>
      <trkpt lat="40.340116" lon="-1.132580">
        <ele>967.748</ele>
        <time>2015-02-19T10:19:49Z</time>
      </trkpt>
      <trkpt lat="40.340105" lon="-1.132648">
        <ele>967.734</ele>
        <time>2015-02-19T10:20:09Z</time>
      </trkpt>
      <trkpt lat="40.340103" lon="-1.132719">
        <ele>967.755</ele>
        <time>2015-02-19T10:20:29Z</time>
      </trkpt>
      <trkpt lat="40.340107" lon="-1.132790">
        <ele>967.741</ele>
        <time>2015-02-19T10:20:49Z</time>
      </trkpt>
      <trkpt lat="40.340115" lon="-1.132859">
        <ele>967.281</ele>
        <time>2015-02-19T10:21:09Z</time>
      </trkpt>
      <trkpt lat="40.340129" lon="-1.132927">
        <ele>966.709</ele>
        <time>2015-02-19T10:21:29Z</time>
      </trkpt>
      <trkpt lat="40.340165" lon="-1.133134">
        <ele>966.307</ele>
        <time>2015-02-19T10:21:49Z</time>
      </trkpt>
      <trkpt lat="40.340174" lon="-1.133534">
        <ele>964.372</ele>
        <time>2015-02-19T10:22:09Z</time>
      </trkpt>
      <trkpt lat="40.340052" lon="-1.134473">
        <ele>963.992</ele>
        <time>2015-02-19T10:22:29Z</time>
      </trkpt>
      <trkpt lat="40.340011" lon="-1.134644">
        <ele>963.913</ele>
        <time>2015-02-19T10:22:49Z</time>
      </trkpt>
      <trkpt lat="40.340002" lon="-1.134702">
        <ele>963.428</ele>
        <time>2015-02-19T10:23:09Z</time>
      </trkpt>
      <trkpt lat="40.339998" lon="-1.134764">
        <ele>962.918</ele>
        <time>2015-02-19T10:23:29Z</time>
      </trkpt>
      <trkpt lat="40.339990" lon="-1.134954">
        <ele>962.994</ele>
        <time>2015-02-19T10:23:49Z</time>
      </trkpt>
      <trkpt lat="40.339935" lon="-1.135150">
        <ele>963.475</ele>
        <time>2015-02-19T10:24:09Z</time>
      </trkpt>
      <trkpt lat="40.339703" lon="-1.135840">
        <ele>963.996</ele>
        <time>2015-02-19T10:24:29Z</time>
      </trkpt>
      <trkpt lat="40.339583" lon="-1.136375">
        <ele>965.331</ele>
        <time>2015-02-19T10:24:49Z</time>
      </trkpt>
      <trkpt lat="40.339574" lon="-1.136429">
        <ele>964.824</ele>
        <time>2015-02-19T10:25:09Z</time>
      </trkpt>
      <trkpt lat="40.339558" lon="-1.136487">
        <ele>963.907</ele>
        <time>2015-02-19T10:25:29Z</time>
      </trkpt>
      <trkpt lat="40.339530" lon="-1.136540">
        <ele>963.987</ele>
        <time>2015-02-19T10:25:49Z</time>
      </trkpt>
      <trkpt lat="40.339499" lon="-1.136585">
        <ele>964.387</ele>
        <time>2015-02-19T10:26:09Z</time>
      </trkpt>
      <trkpt lat="40.339327" lon="-1.136855">
        <ele>962.938</ele>
        <time>2015-02-19T10:26:29Z</time>
      </trkpt>
      <trkpt lat="40.339297" lon="-1.136890">
        <ele>962.913</ele>
        <time>2015-02-19T10:26:49Z</time>
      </trkpt>
      <trkpt lat="40.338984" lon="-1.137186">
        <ele>964.313</ele>
        <time>2015-02-19T10:27:09Z</time>
      </trkpt>
      <trkpt lat="40.338726" lon="-1.137442">
        <ele>966.319</ele>
        <time>2015-02-19T10:27:29Z</time>
      </trkpt>
      <trkpt lat="40.338535" lon="-1.137832">
        <ele>968.250</ele>
        <time>2015-02-19T10:27:49Z</time>
      </trkpt>
      <trkpt lat="40.338356" lon="-1.138400">
        <ele>970.125</ele>
        <time>2015-02-19T10:28:09Z</time>
      </trkpt>
      <trkpt lat="40.338269" lon="-1.139202">
        <ele>971.526</ele>
        <time>2015-02-19T10:28:29Z</time>
      </trkpt>
      <trkpt lat="40.338267" lon="-1.139791">
        <ele>971.108</ele>
        <time>2015-02-19T10:28:49Z</time>
      </trkpt>
      <trkpt lat="40.337939" lon="-1.139985">
        <ele>970.607</ele>
        <time>2015-02-19T10:29:09Z</time>
      </trkpt>
      <trkpt lat="40.337609" lon="-1.140447">
        <ele>972.020</ele>
        <time>2015-02-19T10:29:29Z</time>
      </trkpt>
      <trkpt lat="40.337371" lon="-1.140880">
        <ele>974.980</ele>
        <time>2015-02-19T10:29:49Z</time>
      </trkpt>
      <trkpt lat="40.337137" lon="-1.141491">
        <ele>976.411</ele>
        <time>2015-02-19T10:30:09Z</time>
      </trkpt>
      <trkpt lat="40.336989" lon="-1.142009">
        <ele>979.746</ele>
        <time>2015-02-19T10:30:29Z</time>
      </trkpt>
      <trkpt lat="40.336912" lon="-1.142601">
        <ele>981.636</ele>
        <time>2015-02-19T10:30:49Z</time>
      </trkpt>
      <trkpt lat="40.336941" lon="-1.143217">
        <ele>984.542</ele>
        <time>2015-02-19T10:31:09Z</time>
      </trkpt>
      <trkpt lat="40.337014" lon="-1.143845">
        <ele>986.553</ele>
        <time>2015-02-19T10:31:29Z</time>
      </trkpt>
      <trkpt lat="40.336967" lon="-1.144668">
        <ele>987.451</ele>
        <time>2015-02-19T10:31:49Z</time>
      </trkpt>
      <trkpt lat="40.336896" lon="-1.145472">
        <ele>988.801</ele>
        <time>2015-02-19T10:32:09Z</time>
      </trkpt>
      <trkpt lat="40.336850" lon="-1.146158">
        <ele>992.211</ele>
        <time>2015-02-19T10:32:29Z</time>
      </trkpt>
      <trkpt lat="40.336753" lon="-1.146773">
        <ele>995.107</ele>
        <time>2015-02-19T10:32:49Z</time>
      </trkpt>
      <trkpt lat="40.336683" lon="-1.147464">
        <ele>997.023</ele>
        <time>2015-02-19T10:33:09Z</time>
      </trkpt>
      <trkpt lat="40.336618" lon="-1.148151">
        <ele>999.093</ele>
        <time>2015-02-19T10:33:29Z</time>
      </trkpt>
      <trkpt lat="40.336593" lon="-1.148634">
        <ele>1002.814</ele>
        <time>2015-02-19T10:33:49Z</time>
      </trkpt>
      <trkpt lat="40.336523" lon="-1.149433">
        <ele>1004.229</ele>
        <time>2015-02-19T10:34:09Z</time>
      </trkpt>
      <trkpt lat="40.336533" lon="-1.149779">
        <ele>1007.689</ele>
        <time>2015-02-19T10:34:29Z</time>
      </trkpt>
      <trkpt lat="40.336521" lon="-1.149840">
        <ele>1008.165</ele>
        <time>2015-02-19T10:34:49Z</time>
      </trkpt>
      <trkpt lat="40.336462" lon="-1.150399">
        <ele>1010.536</ele>
        <time>2015-02-19T10:35:09Z</time>
      </trkpt>
      <trkpt lat="40.336339" lon="-1.150979">
        <ele>1011.999</ele>
        <time>2015-02-19T10:35:29Z</time>
      </trkpt>
      <trkpt lat="40.336272" lon="-1.151205">
        <ele>1014.807</ele>
        <time>2015-02-19T10:35:49Z</time>
      </trkpt>
      <trkpt lat="40.336025" lon="-1.151711">
        <ele>1016.227</ele>
        <time>2015-02-19T10:36:09Z</time>
      </trkpt>
      <trkpt lat="40.335933" lon="-1.152327">
        <ele>1019.107</ele>
        <time>2015-02-19T10:36:29Z</time>
      </trkpt>
      <trkpt lat="40.335799" lon="-1.152740">
        <ele>1021.567</ele>
        <time>2015-02-19T10:36:49Z</time>
      </trkpt>
      <trkpt lat="40.335669" lon="-1.153087">
        <ele>1024.997</ele>
        <time>2015-02-19T10:37:09Z</time>
      </trkpt>
      <trkpt lat="40.335662" lon="-1.153121">
        <ele>1024.948</ele>
        <time>2015-02-19T10:37:29Z</time>
      </trkpt>
      <trkpt lat="40.335633" lon="-1.153532">
        <ele>1027.353</ele>
        <time>2015-02-19T10:37:49Z</time>
      </trkpt>
      <trkpt lat="40.335578" lon="-1.154051">
        <ele>1029.283</ele>
        <time>2015-02-19T10:38:09Z</time>
      </trkpt>
      <trkpt lat="40.335522" lon="-1.154386">
        <ele>1029.719</ele>
        <time>2015-02-19T10:38:29Z</time>
      </trkpt>
      <trkpt lat="40.335480" lon="-1.154677">
        <ele>1030.710</ele>
        <time>2015-02-19T10:38:49Z</time>
      </trkpt>
      <trkpt lat="40.335441" lon="-1.154850">
        <ele>1030.736</ele>
        <time>2015-02-19T10:39:09Z</time>
      </trkpt>
      <trkpt lat="40.335438" lon="-1.154865">
        <ele>1030.217</ele>
        <time>2015-02-19T10:39:29Z</time>
      </trkpt>
      <trkpt lat="40.335407" lon="-1.154980">
        <ele>1030.718</ele>
        <time>2015-02-19T10:39:49Z</time>
      </trkpt>
      <trkpt lat="40.335401" lon="-1.155017">
        <ele>1030.707</ele>
        <time>2015-02-19T10:40:09Z</time>
      </trkpt>
      <trkpt lat="40.335393" lon="-1.155042">
        <ele>1030.741</ele>
        <time>2015-02-19T10:40:29Z</time>
      </trkpt>
      <trkpt lat="40.335402" lon="-1.155034">
        <ele>1030.221</ele>
        <time>2015-02-19T10:40:49Z</time>
      </trkpt>
      <trkpt lat="40.335402" lon="-1.155034">
        <ele>1030.232</ele>
        <time>2015-02-19T10:41:09Z</time>
      </trkpt>
      <trkpt lat="40.335408" lon="-1.155031">
        <ele>1030.247</ele>
        <time>2015-02-19T10:41:29Z</time>
      </trkpt>
      <trkpt lat="40.335414" lon="-1.155076">
        <ele>1030.227</ele>
        <time>2015-02-19T10:41:49Z</time>
      </trkpt>
      <trkpt lat="40.335407" lon="-1.155094">
        <ele>1030.293</ele>
        <time>2015-02-19T10:42:09Z</time>
      </trkpt>
      <trkpt lat="40.335402" lon="-1.155119">
        <ele>1029.774</ele>
        <time>2015-02-19T10:42:29Z</time>
      </trkpt>
      <trkpt lat="40.335396" lon="-1.155149">
        <ele>1030.734</ele>
        <time>2015-02-19T10:42:49Z</time>
      </trkpt>
      <trkpt lat="40.335389" lon="-1.155183">
        <ele>1030.255</ele>
        <time>2015-02-19T10:43:09Z</time>
      </trkpt>
      <trkpt lat="40.335384" lon="-1.155218">
        <ele>1030.210</ele>
        <time>2015-02-19T10:43:29Z</time>
      </trkpt>
      <trkpt lat="40.335374" lon="-1.155256">
        <ele>1030.207</ele>
        <time>2015-02-19T10:43:49Z</time>
      </trkpt>
      <trkpt lat="40.335234" lon="-1.155755">
        <ele>1029.271</ele>
        <time>2015-02-19T10:44:09Z</time>
      </trkpt>
      <trkpt lat="40.335209" lon="-1.155802">
        <ele>1028.311</ele>
        <time>2015-02-19T10:44:29Z</time>
      </trkpt>
      <trkpt lat="40.335183" lon="-1.155849">
        <ele>1028.822</ele>
        <time>2015-02-19T10:44:49Z</time>
      </trkpt>
      <trkpt lat="40.335160" lon="-1.155899">
        <ele>1028.887</ele>
        <time>2015-02-19T10:45:09Z</time>
      </trkpt>
      <trkpt lat="40.335137" lon="-1.155949">
        <ele>1028.377</ele>
        <time>2015-02-19T10:45:29Z</time>
      </trkpt>
      <trkpt lat="40.334801" lon="-1.156731">
        <ele>1026.863</ele>
        <time>2015-02-19T10:45:49Z</time>
      </trkpt>
      <trkpt lat="40.334758" lon="-1.156831">
        <ele>1026.314</ele>
        <time>2015-02-19T10:46:09Z</time>
      </trkpt>
      <trkpt lat="40.334642" lon="-1.157106">
        <ele>1024.962</ele>
        <time>2015-02-19T10:46:29Z</time>
      </trkpt>
      <trkpt lat="40.334469" lon="-1.157349">
        <ele>1023.983</ele>
        <time>2015-02-19T10:46:49Z</time>
      </trkpt>
      <trkpt lat="40.334363" lon="-1.157498">
        <ele>1022.011</ele>
        <time>2015-02-19T10:47:09Z</time>
      </trkpt>
      <trkpt lat="40.334261" lon="-1.157639">
        <ele>1020.607</ele>
        <time>2015-02-19T10:47:29Z</time>
      </trkpt>
      <trkpt lat="40.334224" lon="-1.157697">
        <ele>1019.114</ele>
        <time>2015-02-19T10:47:49Z</time>
      </trkpt>
      <trkpt lat="40.334181" lon="-1.157754">
        <ele>1018.264</ele>
        <time>2015-02-19T10:48:09Z</time>
      </trkpt>
      <trkpt lat="40.334137" lon="-1.157816">
        <ele>1017.275</ele>
        <time>2015-02-19T10:48:29Z</time>
      </trkpt>
      <trkpt lat="40.334098" lon="-1.157889">
        <ele>1016.290</ele>
        <time>2015-02-19T10:48:49Z</time>
      </trkpt>
      <trkpt lat="40.334065" lon="-1.157972">
        <ele>1014.860</ele>
        <time>2015-02-19T10:49:09Z</time>
      </trkpt>
      <trkpt lat="40.334042" lon="-1.158064">
        <ele>1014.376</ele>
        <time>2015-02-19T10:49:29Z</time>
      </trkpt>
      <trkpt lat="40.334026" lon="-1.158151">
        <ele>1013.827</ele>
        <time>2015-02-19T10:49:49Z</time>
      </trkpt>
      <trkpt lat="40.333962" lon="-1.158406">
        <ele>1011.456</ele>
        <time>2015-02-19T10:50:09Z</time>
      </trkpt>
      <trkpt lat="40.333923" lon="-1.158483">
        <ele>1011.059</ele>
        <time>2015-02-19T10:50:29Z</time>
      </trkpt>
      <trkpt lat="40.333874" lon="-1.158546">
        <ele>1010.514</ele>
        <time>2015-02-19T10:50:49Z</time>
      </trkpt>
      <trkpt lat="40.333772" lon="-1.158652">
        <ele>1010.507</ele>
        <time>2015-02-19T10:51:09Z</time>
      </trkpt>
      <trkpt lat="40.333672" lon="-1.158733">
        <ele>1010.073</ele>
        <time>2015-02-19T10:51:29Z</time>
      </trkpt>
      <trkpt lat="40.333436" lon="-1.158888">
        <ele>1010.073</ele>
        <time>2015-02-19T10:51:49Z</time>
      </trkpt>
      <trkpt lat="40.333232" lon="-1.159083">
        <ele>1011.434</ele>
        <time>2015-02-19T10:52:09Z</time>
      </trkpt>
      <trkpt lat="40.333208" lon="-1.159130">
        <ele>1011.449</ele>
        <time>2015-02-19T10:52:29Z</time>
      </trkpt>
      <trkpt lat="40.333199" lon="-1.159188">
        <ele>1011.469</ele>
        <time>2015-02-19T10:52:49Z</time>
      </trkpt>
      <trkpt lat="40.333208" lon="-1.159251">
        <ele>1011.455</ele>
        <time>2015-02-19T10:53:09Z</time>
      </trkpt>
      <trkpt lat="40.333225" lon="-1.159308">
        <ele>1011.426</ele>
        <time>2015-02-19T10:53:29Z</time>
      </trkpt>
      <trkpt lat="40.333246" lon="-1.159353">
        <ele>1011.432</ele>
        <time>2015-02-19T10:53:49Z</time>
      </trkpt>
      <trkpt lat="40.333272" lon="-1.159389">
        <ele>1012.492</ele>
        <time>2015-02-19T10:54:09Z</time>
      </trkpt>
      <trkpt lat="40.333301" lon="-1.159419">
        <ele>1012.411</ele>
        <time>2015-02-19T10:54:29Z</time>
      </trkpt>
      <trkpt lat="40.333333" lon="-1.159446">
        <ele>1012.407</ele>
        <time>2015-02-19T10:54:49Z</time>
      </trkpt>
      <trkpt lat="40.333367" lon="-1.159472">
        <ele>1012.481</ele>
        <time>2015-02-19T10:55:09Z</time>
      </trkpt>
      <trkpt lat="40.333402" lon="-1.159497">
        <ele>1012.411</ele>
        <time>2015-02-19T10:55:29Z</time>
      </trkpt>
      <trkpt lat="40.333785" lon="-1.159659">
        <ele>1010.082</ele>
        <time>2015-02-19T10:55:49Z</time>
      </trkpt>
      <trkpt lat="40.334005" lon="-1.159732">
        <ele>1010.547</ele>
        <time>2015-02-19T10:56:09Z</time>
      </trkpt>
      <trkpt lat="40.334047" lon="-1.159760">
        <ele>1011.077</ele>
        <time>2015-02-19T10:56:29Z</time>
      </trkpt>
      <trkpt lat="40.334086" lon="-1.159792">
        <ele>1011.053</ele>
        <time>2015-02-19T10:56:49Z</time>
      </trkpt>
      <trkpt lat="40.334119" lon="-1.159826">
        <ele>1011.044</ele>
        <time>2015-02-19T10:57:09Z</time>
      </trkpt>
      <trkpt lat="40.334147" lon="-1.159867">
        <ele>1010.563</ele>
        <time>2015-02-19T10:57:29Z</time>
      </trkpt>
      <trkpt lat="40.334170" lon="-1.159913">
        <ele>1010.044</ele>
        <time>2015-02-19T10:57:49Z</time>
      </trkpt>
      <trkpt lat="40.334190" lon="-1.159967">
        <ele>1010.018</ele>
        <time>2015-02-19T10:58:09Z</time>
      </trkpt>
      <trkpt lat="40.334201" lon="-1.160023">
        <ele>1010.507</ele>
        <time>2015-02-19T10:58:29Z</time>
      </trkpt>
      <trkpt lat="40.334203" lon="-1.160075">
        <ele>1010.014</ele>
        <time>2015-02-19T10:58:49Z</time>
      </trkpt>
      <trkpt lat="40.334197" lon="-1.160125">
        <ele>1009.544</ele>
        <time>2015-02-19T10:59:09Z</time>
      </trkpt>
      <trkpt lat="40.334188" lon="-1.160177">
        <ele>1009.085</ele>
        <time>2015-02-19T10:59:29Z</time>
      </trkpt>
      <trkpt lat="40.334145" lon="-1.160389">
        <ele>1011.080</ele>
        <time>2015-02-19T10:59:49Z</time>
      </trkpt>
      <trkpt lat="40.334136" lon="-1.160443">
        <ele>1011.070</ele>
        <time>2015-02-19T11:00:09Z</time>
      </trkpt>
      <trkpt lat="40.334125" lon="-1.160495">
        <ele>1011.056</ele>
        <time>2015-02-19T11:00:29Z</time>
      </trkpt>
      <trkpt lat="40.333822" lon="-1.161078">
        <ele>1007.167</ele>
        <time>2015-02-19T11:00:49Z</time>
      </trkpt>
      <trkpt lat="40.333659" lon="-1.161298">
        <ele>1006.297</ele>
        <time>2015-02-19T11:01:09Z</time>
      </trkpt>
      <trkpt lat="40.333636" lon="-1.161356">
        <ele>1005.223</ele>
        <time>2015-02-19T11:01:29Z</time>
      </trkpt>
      <trkpt lat="40.333626" lon="-1.161424">
        <ele>1003.825</ele>
        <time>2015-02-19T11:01:49Z</time>
      </trkpt>
      <trkpt lat="40.333624" lon="-1.161504">
        <ele>1003.807</ele>
        <time>2015-02-19T11:02:09Z</time>
      </trkpt>
      <trkpt lat="40.333615" lon="-1.161578">
        <ele>1003.327</ele>
        <time>2015-02-19T11:02:29Z</time>
      </trkpt>
      <trkpt lat="40.333588" lon="-1.161641">
        <ele>1002.817</ele>
        <time>2015-02-19T11:02:49Z</time>
      </trkpt>
      <trkpt lat="40.333545" lon="-1.161686">
        <ele>1002.818</ele>
        <time>2015-02-19T11:03:09Z</time>
      </trkpt>
      <trkpt lat="40.333492" lon="-1.161717">
        <ele>1001.333</ele>
        <time>2015-02-19T11:03:29Z</time>
      </trkpt>
      <trkpt lat="40.333430" lon="-1.161749">
        <ele>1001.363</ele>
        <time>2015-02-19T11:03:49Z</time>
      </trkpt>
      <trkpt lat="40.333367" lon="-1.161789">
        <ele>999.919</ele>
        <time>2015-02-19T11:04:09Z</time>
      </trkpt>
      <trkpt lat="40.333307" lon="-1.161835">
        <ele>999.440</ele>
        <time>2015-02-19T11:04:29Z</time>
      </trkpt>
      <trkpt lat="40.333248" lon="-1.161884">
        <ele>999.093</ele>
        <time>2015-02-19T11:04:49Z</time>
      </trkpt>
      <trkpt lat="40.333186" lon="-1.161932">
        <ele>998.565</ele>
        <time>2015-02-19T11:05:09Z</time>
      </trkpt>
      <trkpt lat="40.333120" lon="-1.161968">
        <ele>997.521</ele>
        <time>2015-02-19T11:05:29Z</time>
      </trkpt>
      <trkpt lat="40.333056" lon="-1.162002">
        <ele>997.007</ele>
        <time>2015-02-19T11:05:49Z</time>
      </trkpt>
      <trkpt lat="40.333001" lon="-1.162042">
        <ele>995.167</ele>
        <time>2015-02-19T11:06:09Z</time>
      </trkpt>
      <trkpt lat="40.332957" lon="-1.162092">
        <ele>995.127</ele>
        <time>2015-02-19T11:06:29Z</time>
      </trkpt>
      <trkpt lat="40.332925" lon="-1.162154">
        <ele>995.158</ele>
        <time>2015-02-19T11:06:49Z</time>
      </trkpt>
      <trkpt lat="40.332902" lon="-1.162226">
        <ele>995.123</ele>
        <time>2015-02-19T11:07:09Z</time>
      </trkpt>
      <trkpt lat="40.332882" lon="-1.162303">
        <ele>995.693</ele>
        <time>2015-02-19T11:07:29Z</time>
      </trkpt>
      <trkpt lat="40.332877" lon="-1.162395">
        <ele>995.149</ele>
        <time>2015-02-19T11:07:49Z</time>
      </trkpt>
      <trkpt lat="40.332891" lon="-1.162483">
        <ele>994.620</ele>
        <time>2015-02-19T11:08:09Z</time>
      </trkpt>
      <trkpt lat="40.332922" lon="-1.162550">
        <ele>994.151</ele>
        <time>2015-02-19T11:08:29Z</time>
      </trkpt>
      <trkpt lat="40.332955" lon="-1.162611">
        <ele>994.101</ele>
        <time>2015-02-19T11:08:49Z</time>
      </trkpt>
      <trkpt lat="40.332971" lon="-1.162678">
        <ele>993.711</ele>
        <time>2015-02-19T11:09:09Z</time>
      </trkpt>
      <trkpt lat="40.332965" lon="-1.162742">
        <ele>994.107</ele>
        <time>2015-02-19T11:09:29Z</time>
      </trkpt>
      <trkpt lat="40.332947" lon="-1.162796">
        <ele>994.643</ele>
        <time>2015-02-19T11:09:49Z</time>
      </trkpt>
      <trkpt lat="40.332924" lon="-1.162844">
        <ele>994.633</ele>
        <time>2015-02-19T11:10:09Z</time>
      </trkpt>
      <trkpt lat="40.332901" lon="-1.162891">
        <ele>995.144</ele>
        <time>2015-02-19T11:10:29Z</time>
      </trkpt>
      <trkpt lat="40.332879" lon="-1.162947">
        <ele>994.199</ele>
        <time>2015-02-19T11:10:49Z</time>
      </trkpt>
      <trkpt lat="40.332862" lon="-1.163013">
        <ele>994.199</ele>
        <time>2015-02-19T11:11:09Z</time>
      </trkpt>
      <trkpt lat="40.332849" lon="-1.163087">
        <ele>994.195</ele>
        <time>2015-02-19T11:11:29Z</time>
      </trkpt>
      <trkpt lat="40.332842" lon="-1.163170">
        <ele>993.736</ele>
        <time>2015-02-19T11:11:49Z</time>
      </trkpt>
      <trkpt lat="40.332838" lon="-1.163255">
        <ele>993.783</ele>
        <time>2015-02-19T11:12:09Z</time>
      </trkpt>
      <trkpt lat="40.332840" lon="-1.163338">
        <ele>992.725</ele>
        <time>2015-02-19T11:12:29Z</time>
      </trkpt>
      <trkpt lat="40.332850" lon="-1.163418">
        <ele>991.717</ele>
        <time>2015-02-19T11:12:49Z</time>
      </trkpt>
      <trkpt lat="40.332856" lon="-1.163493">
        <ele>991.307</ele>
        <time>2015-02-19T11:13:09Z</time>
      </trkpt>
      <trkpt lat="40.332851" lon="-1.163559">
        <ele>992.246</ele>
        <time>2015-02-19T11:13:29Z</time>
      </trkpt>
      <trkpt lat="40.332846" lon="-1.163624">
        <ele>992.266</ele>
        <time>2015-02-19T11:13:49Z</time>
      </trkpt>
      <trkpt lat="40.332837" lon="-1.163687">
        <ele>993.227</ele>
        <time>2015-02-19T11:14:09Z</time>
      </trkpt>
      <trkpt lat="40.332821" lon="-1.163747">
        <ele>992.772</ele>
        <time>2015-02-19T11:14:29Z</time>
      </trkpt>
      <trkpt lat="40.332801" lon="-1.163802">
        <ele>992.282</ele>
        <time>2015-02-19T11:14:49Z</time>
      </trkpt>
      <trkpt lat="40.332777" lon="-1.163853">
        <ele>992.788</ele>
        <time>2015-02-19T11:15:09Z</time>
      </trkpt>
      <trkpt lat="40.332748" lon="-1.163896">
        <ele>992.749</ele>
        <time>2015-02-19T11:15:29Z</time>
      </trkpt>
      <trkpt lat="40.332717" lon="-1.163936">
        <ele>992.738</ele>
        <time>2015-02-19T11:15:49Z</time>
      </trkpt>
      <trkpt lat="40.332687" lon="-1.163980">
        <ele>993.270</ele>
        <time>2015-02-19T11:16:09Z</time>
      </trkpt>
      <trkpt lat="40.332660" lon="-1.164031">
        <ele>993.717</ele>
        <time>2015-02-19T11:16:29Z</time>
      </trkpt>
      <trkpt lat="40.332638" lon="-1.164087">
        <ele>993.207</ele>
        <time>2015-02-19T11:16:49Z</time>
      </trkpt>
      <trkpt lat="40.332603" lon="-1.164202">
        <ele>993.221</ele>
        <time>2015-02-19T11:17:09Z</time>
      </trkpt>
      <trkpt lat="40.332591" lon="-1.164269">
        <ele>993.711</ele>
        <time>2015-02-19T11:17:29Z</time>
      </trkpt>
      <trkpt lat="40.332588" lon="-1.164345">
        <ele>993.242</ele>
        <time>2015-02-19T11:17:49Z</time>
      </trkpt>
      <trkpt lat="40.332597" lon="-1.164495">
        <ele>992.757</ele>
        <time>2015-02-19T11:18:09Z</time>
      </trkpt>
      <trkpt lat="40.332613" lon="-1.164559">
        <ele>993.247</ele>
        <time>2015-02-19T11:18:29Z</time>
      </trkpt>
      <trkpt lat="40.332633" lon="-1.164619">
        <ele>994.153</ele>
        <time>2015-02-19T11:18:49Z</time>
      </trkpt>
      <trkpt lat="40.332658" lon="-1.164673">
        <ele>994.154</ele>
        <time>2015-02-19T11:19:09Z</time>
      </trkpt>
      <trkpt lat="40.332683" lon="-1.164725">
        <ele>993.772</ele>
        <time>2015-02-19T11:19:29Z</time>
      </trkpt>
      <trkpt lat="40.332742" lon="-1.164827">
        <ele>993.713</ele>
        <time>2015-02-19T11:19:49Z</time>
      </trkpt>
      <trkpt lat="40.332832" lon="-1.164970">
        <ele>994.114</ele>
        <time>2015-02-19T11:20:09Z</time>
      </trkpt>
      <trkpt lat="40.332854" lon="-1.165021">
        <ele>993.207</ele>
        <time>2015-02-19T11:20:29Z</time>
      </trkpt>
      <trkpt lat="40.332868" lon="-1.165074">
        <ele>993.755</ele>
        <time>2015-02-19T11:20:49Z</time>
      </trkpt>
      <trkpt lat="40.332874" lon="-1.165128">
        <ele>993.715</ele>
        <time>2015-02-19T11:21:09Z</time>
      </trkpt>
      <trkpt lat="40.332874" lon="-1.165184">
        <ele>993.766</ele>
        <time>2015-02-19T11:21:29Z</time>
      </trkpt>
      <trkpt lat="40.332867" lon="-1.165238">
        <ele>993.241</ele>
        <time>2015-02-19T11:21:49Z</time>
      </trkpt>
      <trkpt lat="40.332857" lon="-1.165297">
        <ele>994.131</ele>
        <time>2015-02-19T11:22:09Z</time>
      </trkpt>
      <trkpt lat="40.332842" lon="-1.165356">
        <ele>994.147</ele>
        <time>2015-02-19T11:22:29Z</time>
      </trkpt>
      <trkpt lat="40.332823" lon="-1.165415">
        <ele>994.158</ele>
        <time>2015-02-19T11:22:49Z</time>
      </trkpt>
      <trkpt lat="40.332802" lon="-1.165475">
        <ele>993.756</ele>
        <time>2015-02-19T11:23:09Z</time>
      </trkpt>
      <trkpt lat="40.332781" lon="-1.165536">
        <ele>993.759</ele>
        <time>2015-02-19T11:23:29Z</time>
      </trkpt>
      <trkpt lat="40.332766" lon="-1.165596">
        <ele>994.114</ele>
        <time>2015-02-19T11:23:49Z</time>
      </trkpt>
      <trkpt lat="40.332754" lon="-1.165659">
        <ele>994.107</ele>
        <time>2015-02-19T11:24:09Z</time>
      </trkpt>
      <trkpt lat="40.332738" lon="-1.165837">
        <ele>994.653</ele>
        <time>2015-02-19T11:24:29Z</time>
      </trkpt>
      <trkpt lat="40.332740" lon="-1.165892">
        <ele>995.193</ele>
        <time>2015-02-19T11:24:49Z</time>
      </trkpt>
      <trkpt lat="40.332748" lon="-1.165950">
        <ele>995.644</ele>
        <time>2015-02-19T11:25:09Z</time>
      </trkpt>
      <trkpt lat="40.332761" lon="-1.166009">
        <ele>995.639</ele>
        <time>2015-02-19T11:25:29Z</time>
      </trkpt>
      <trkpt lat="40.332781" lon="-1.166060">
        <ele>995.699</ele>
        <time>2015-02-19T11:25:49Z</time>
      </trkpt>
      <trkpt lat="40.332808" lon="-1.166104">
        <ele>995.125</ele>
        <time>2015-02-19T11:26:09Z</time>
      </trkpt>
      <trkpt lat="40.332839" lon="-1.166143">
        <ele>995.146</ele>
        <time>2015-02-19T11:26:29Z</time>
      </trkpt>
      <trkpt lat="40.332871" lon="-1.166182">
        <ele>996.567</ele>
        <time>2015-02-19T11:26:49Z</time>
      </trkpt>
      <trkpt lat="40.332905" lon="-1.166217">
        <ele>995.681</ele>
        <time>2015-02-19T11:27:09Z</time>
      </trkpt>
      <trkpt lat="40.333369" lon="-1.166754">
        <ele>993.719</ele>
        <time>2015-02-19T11:27:29Z</time>
      </trkpt>
      <trkpt lat="40.333478" lon="-1.166967">
        <ele>994.107</ele>
        <time>2015-02-19T11:27:49Z</time>
      </trkpt>
      <trkpt lat="40.333542" lon="-1.167080">
        <ele>994.664</ele>
        <time>2015-02-19T11:28:09Z</time>
      </trkpt>
      <trkpt lat="40.333578" lon="-1.167131">
        <ele>994.194</ele>
        <time>2015-02-19T11:28:29Z</time>
      </trkpt>
      <trkpt lat="40.333621" lon="-1.167178">
        <ele>993.255</ele>
        <time>2015-02-19T11:28:49Z</time>
      </trkpt>
      <trkpt lat="40.333666" lon="-1.167226">
        <ele>993.270</ele>
        <time>2015-02-19T11:29:09Z</time>
      </trkpt>
      <trkpt lat="40.333707" lon="-1.167282">
        <ele>992.280</ele>
        <time>2015-02-19T11:29:29Z</time>
      </trkpt>
      <trkpt lat="40.333743" lon="-1.167345">
        <ele>992.226</ele>
        <time>2015-02-19T11:29:49Z</time>
      </trkpt>
      <trkpt lat="40.333775" lon="-1.167411">
        <ele>991.347</ele>
        <time>2015-02-19T11:30:09Z</time>
      </trkpt>
      <trkpt lat="40.333796" lon="-1.167480">
        <ele>990.869</ele>
        <time>2015-02-19T11:30:29Z</time>
      </trkpt>
      <trkpt lat="40.333808" lon="-1.167550">
        <ele>991.304</ele>
        <time>2015-02-19T11:30:49Z</time>
      </trkpt>
      <trkpt lat="40.333815" lon="-1.167620">
        <ele>990.824</ele>
        <time>2015-02-19T11:31:09Z</time>
      </trkpt>
      <trkpt lat="40.333870" lon="-1.168121">
        <ele>993.707</ele>
        <time>2015-02-19T11:31:29Z</time>
      </trkpt>
      <trkpt lat="40.333882" lon="-1.168175">
        <ele>993.734</ele>
        <time>2015-02-19T11:31:49Z</time>
      </trkpt>
      <trkpt lat="40.333904" lon="-1.168227">
        <ele>993.764</ele>
        <time>2015-02-19T11:32:09Z</time>
      </trkpt>
      <trkpt lat="40.333932" lon="-1.168275">
        <ele>993.245</ele>
        <time>2015-02-19T11:32:29Z</time>
      </trkpt>
      <trkpt lat="40.333969" lon="-1.168316">
        <ele>993.790</ele>
        <time>2015-02-19T11:32:49Z</time>
      </trkpt>
      <trkpt lat="40.334014" lon="-1.168343">
        <ele>994.140</ele>
        <time>2015-02-19T11:33:09Z</time>
      </trkpt>
      <trkpt lat="40.334058" lon="-1.168369">
        <ele>993.746</ele>
        <time>2015-02-19T11:33:29Z</time>
      </trkpt>
      <trkpt lat="40.334097" lon="-1.168402">
        <ele>993.797</ele>
        <time>2015-02-19T11:33:49Z</time>
      </trkpt>
      <trkpt lat="40.334128" lon="-1.168449">
        <ele>993.249</ele>
        <time>2015-02-19T11:34:09Z</time>
      </trkpt>
      <trkpt lat="40.334150" lon="-1.168507">
        <ele>993.702</ele>
        <time>2015-02-19T11:34:29Z</time>
      </trkpt>
      <trkpt lat="40.334160" lon="-1.168568">
        <ele>993.722</ele>
        <time>2015-02-19T11:34:49Z</time>
      </trkpt>
      <trkpt lat="40.334163" lon="-1.168626">
        <ele>993.707</ele>
        <time>2015-02-19T11:35:09Z</time>
      </trkpt>
      <trkpt lat="40.334161" lon="-1.168685">
        <ele>994.172</ele>
        <time>2015-02-19T11:35:29Z</time>
      </trkpt>
      <trkpt lat="40.334162" lon="-1.168804">
        <ele>994.172</ele>
        <time>2015-02-19T11:35:49Z</time>
      </trkpt>
      <trkpt lat="40.334170" lon="-1.168861">
        <ele>994.693</ele>
        <time>2015-02-19T11:36:09Z</time>
      </trkpt>
      <trkpt lat="40.334185" lon="-1.168919">
        <ele>994.648</ele>
        <time>2015-02-19T11:36:29Z</time>
      </trkpt>
      <trkpt lat="40.334207" lon="-1.168977">
        <ele>995.118</ele>
        <time>2015-02-19T11:36:49Z</time>
      </trkpt>
      <trkpt lat="40.334229" lon="-1.169031">
        <ele>994.664</ele>
        <time>2015-02-19T11:37:09Z</time>
      </trkpt>
      <trkpt lat="40.334257" lon="-1.169083">
        <ele>994.695</ele>
        <time>2015-02-19T11:37:29Z</time>
      </trkpt>
      <trkpt lat="40.334288" lon="-1.169136">
        <ele>994.611</ele>
        <time>2015-02-19T11:37:49Z</time>
      </trkpt>
      <trkpt lat="40.334316" lon="-1.169192">
        <ele>994.621</ele>
        <time>2015-02-19T11:38:09Z</time>
      </trkpt>
      <trkpt lat="40.334337" lon="-1.169252">
        <ele>994.103</ele>
        <time>2015-02-19T11:38:29Z</time>
      </trkpt>
      <trkpt lat="40.334353" lon="-1.169314">
        <ele>994.607</ele>
        <time>2015-02-19T11:38:49Z</time>
      </trkpt>
      <trkpt lat="40.334432" lon="-1.170332">
        <ele>993.789</ele>
        <time>2015-02-19T11:39:09Z</time>
      </trkpt>
      <trkpt lat="40.334449" lon="-1.170476">
        <ele>993.289</ele>
        <time>2015-02-19T11:39:29Z</time>
      </trkpt>
      <trkpt lat="40.334466" lon="-1.171601">
        <ele>995.120</ele>
        <time>2015-02-19T11:39:49Z</time>
      </trkpt>
      <trkpt lat="40.334368" lon="-1.172403">
        <ele>996.585</ele>
        <time>2015-02-19T11:40:09Z</time>
      </trkpt>
      <trkpt lat="40.334179" lon="-1.173353">
        <ele>999.055</ele>
        <time>2015-02-19T11:40:29Z</time>
      </trkpt>
      <trkpt lat="40.334097" lon="-1.173654">
        <ele>1000.981</ele>
        <time>2015-02-19T11:40:49Z</time>
      </trkpt>
      <trkpt lat="40.333888" lon="-1.174394">
        <ele>1003.842</ele>
        <time>2015-02-19T11:41:09Z</time>
      </trkpt>
      <trkpt lat="40.333830" lon="-1.175331">
        <ele>1004.224</ele>
        <time>2015-02-19T11:41:29Z</time>
      </trkpt>
      <trkpt lat="40.333656" lon="-1.176099">
        <ele>1004.204</ele>
        <time>2015-02-19T11:41:49Z</time>
      </trkpt>
      <trkpt lat="40.333461" lon="-1.176999">
        <ele>1004.214</ele>
        <time>2015-02-19T11:42:09Z</time>
      </trkpt>
      <trkpt lat="40.333304" lon="-1.177657">
        <ele>1005.207</ele>
        <time>2015-02-19T11:42:29Z</time>
      </trkpt>
      <trkpt lat="40.333296" lon="-1.177710">
        <ele>1005.740</ele>
        <time>2015-02-19T11:42:49Z</time>
      </trkpt>
      <trkpt lat="40.333289" lon="-1.177763">
        <ele>1005.790</ele>
        <time>2015-02-19T11:43:09Z</time>
      </trkpt>
      <trkpt lat="40.333142" lon="-1.178512">
        <ele>1007.661</ele>
        <time>2015-02-19T11:43:29Z</time>
      </trkpt>
      <trkpt lat="40.332905" lon="-1.179112">
        <ele>1007.646</ele>
        <time>2015-02-19T11:43:49Z</time>
      </trkpt>
      <trkpt lat="40.332875" lon="-1.179149">
        <ele>1007.116</ele>
        <time>2015-02-19T11:44:09Z</time>
      </trkpt>
      <trkpt lat="40.332843" lon="-1.179173">
        <ele>1007.682</ele>
        <time>2015-02-19T11:44:29Z</time>
      </trkpt>
      <trkpt lat="40.332808" lon="-1.179185">
        <ele>1007.623</ele>
        <time>2015-02-19T11:44:49Z</time>
      </trkpt>
      <trkpt lat="40.332772" lon="-1.179196">
        <ele>1007.638</ele>
        <time>2015-02-19T11:45:09Z</time>
      </trkpt>
      <trkpt lat="40.332622" lon="-1.179252">
        <ele>1007.170</ele>
        <time>2015-02-19T11:45:29Z</time>
      </trkpt>
      <trkpt lat="40.332583" lon="-1.179272">
        <ele>1007.617</ele>
        <time>2015-02-19T11:45:49Z</time>
      </trkpt>
      <trkpt lat="40.332549" lon="-1.179299">
        <ele>1008.107</ele>
        <time>2015-02-19T11:46:09Z</time>
      </trkpt>
      <trkpt lat="40.332521" lon="-1.179334">
        <ele>1008.161</ele>
        <time>2015-02-19T11:46:29Z</time>
      </trkpt>
      <trkpt lat="40.332498" lon="-1.179373">
        <ele>1008.631</ele>
        <time>2015-02-19T11:46:49Z</time>
      </trkpt>
      <trkpt lat="40.332480" lon="-1.179415">
        <ele>1008.642</ele>
        <time>2015-02-19T11:47:09Z</time>
      </trkpt>
      <trkpt lat="40.332466" lon="-1.179461">
        <ele>1009.017</ele>
        <time>2015-02-19T11:47:29Z</time>
      </trkpt>
      <trkpt lat="40.332455" lon="-1.179504">
        <ele>1009.047</ele>
        <time>2015-02-19T11:47:49Z</time>
      </trkpt>
      <trkpt lat="40.332277" lon="-1.179984">
        <ele>1011.443</ele>
        <time>2015-02-19T11:48:09Z</time>
      </trkpt>
      <trkpt lat="40.332371" lon="-1.180364">
        <ele>1012.994</ele>
        <time>2015-02-19T11:48:29Z</time>
      </trkpt>
      <trkpt lat="40.332209" lon="-1.180831">
        <ele>1015.369</ele>
        <time>2015-02-19T11:48:49Z</time>
      </trkpt>
      <trkpt lat="40.332063" lon="-1.181239">
        <ele>1018.704</ele>
        <time>2015-02-19T11:49:09Z</time>
      </trkpt>
      <trkpt lat="40.332035" lon="-1.181350">
        <ele>1018.224</ele>
        <time>2015-02-19T11:49:29Z</time>
      </trkpt>
      <trkpt lat="40.331957" lon="-1.181910">
        <ele>1014.807</ele>
        <time>2015-02-19T11:49:49Z</time>
      </trkpt>
      <trkpt lat="40.331934" lon="-1.182319">
        <ele>1012.994</ele>
        <time>2015-02-19T11:50:09Z</time>
      </trkpt>
      <trkpt lat="40.331935" lon="-1.182471">
        <ele>1012.494</ele>
        <time>2015-02-19T11:50:29Z</time>
      </trkpt>
      <trkpt lat="40.331951" lon="-1.182633">
        <ele>1012.975</ele>
        <time>2015-02-19T11:50:49Z</time>
      </trkpt>
      <trkpt lat="40.331957" lon="-1.182717">
        <ele>1011.480</ele>
        <time>2015-02-19T11:51:09Z</time>
      </trkpt>
      <trkpt lat="40.331950" lon="-1.182795">
        <ele>1011.490</ele>
        <time>2015-02-19T11:51:29Z</time>
      </trkpt>
      <trkpt lat="40.331929" lon="-1.182861">
        <ele>1011.086</ele>
        <time>2015-02-19T11:51:49Z</time>
      </trkpt>
      <trkpt lat="40.331902" lon="-1.182921">
        <ele>1011.017</ele>
        <time>2015-02-19T11:52:09Z</time>
      </trkpt>
      <trkpt lat="40.331869" lon="-1.182973">
        <ele>1011.495</ele>
        <time>2015-02-19T11:52:29Z</time>
      </trkpt>
      <trkpt lat="40.331833" lon="-1.183018">
        <ele>1011.449</ele>
        <time>2015-02-19T11:52:49Z</time>
      </trkpt>
      <trkpt lat="40.331656" lon="-1.183289">
        <ele>1012.423</ele>
        <time>2015-02-19T11:53:09Z</time>
      </trkpt>
      <trkpt lat="40.331638" lon="-1.183337">
        <ele>1012.407</ele>
        <time>2015-02-19T11:53:29Z</time>
      </trkpt>
      <trkpt lat="40.331624" lon="-1.183381">
        <ele>1012.467</ele>
        <time>2015-02-19T11:53:49Z</time>
      </trkpt>
      <trkpt lat="40.331612" lon="-1.183424">
        <ele>1012.957</ele>
        <time>2015-02-19T11:54:09Z</time>
      </trkpt>
      <trkpt lat="40.331602" lon="-1.183467">
        <ele>1013.428</ele>
        <time>2015-02-19T11:54:29Z</time>
      </trkpt>
      <trkpt lat="40.331508" lon="-1.184330">
        <ele>1015.343</ele>
        <time>2015-02-19T11:54:49Z</time>
      </trkpt>
      <trkpt lat="40.331416" lon="-1.185016">
        <ele>1017.723</ele>
        <time>2015-02-19T11:55:09Z</time>
      </trkpt>
      <trkpt lat="40.331372" lon="-1.185161">
        <ele>1016.239</ele>
        <time>2015-02-19T11:55:29Z</time>
      </trkpt>
      <trkpt lat="40.331339" lon="-1.185315">
        <ele>1017.790</ele>
        <time>2015-02-19T11:55:49Z</time>
      </trkpt>
      <trkpt lat="40.331327" lon="-1.185371">
        <ele>1016.244</ele>
        <time>2015-02-19T11:56:09Z</time>
      </trkpt>
      <trkpt lat="40.331319" lon="-1.185429">
        <ele>1016.205</ele>
        <time>2015-02-19T11:56:29Z</time>
      </trkpt>
      <trkpt lat="40.331109" lon="-1.186224">
        <ele>1016.715</ele>
        <time>2015-02-19T11:56:49Z</time>
      </trkpt>
      <trkpt lat="40.330757" lon="-1.187036">
        <ele>1017.207</ele>
        <time>2015-02-19T11:57:09Z</time>
      </trkpt>
      <trkpt lat="40.330621" lon="-1.187597">
        <ele>1017.732</ele>
        <time>2015-02-19T11:57:29Z</time>
      </trkpt>
      <trkpt lat="40.330350" lon="-1.188133">
        <ele>1018.782</ele>
        <time>2015-02-19T11:57:49Z</time>
      </trkpt>
      <trkpt lat="40.329944" lon="-1.188646">
        <ele>1021.133</ele>
        <time>2015-02-19T11:58:09Z</time>
      </trkpt>
      <trkpt lat="40.329563" lon="-1.189008">
        <ele>1022.588</ele>
        <time>2015-02-19T11:58:29Z</time>
      </trkpt>
      <trkpt lat="40.329105" lon="-1.189417">
        <ele>1023.538</ele>
        <time>2015-02-19T11:58:49Z</time>
      </trkpt>
      <trkpt lat="40.328572" lon="-1.190089">
        <ele>1023.534</ele>
        <time>2015-02-19T11:59:09Z</time>
      </trkpt>
      <trkpt lat="40.328085" lon="-1.190582">
        <ele>1025.475</ele>
        <time>2015-02-19T11:59:29Z</time>
      </trkpt>
      <trkpt lat="40.327718" lon="-1.190906">
        <ele>1026.825</ele>
        <time>2015-02-19T11:59:49Z</time>
      </trkpt>
      <trkpt lat="40.327356" lon="-1.191235">
        <ele>1029.226</ele>
        <time>2015-02-19T12:00:09Z</time>
      </trkpt>
      <trkpt lat="40.327331" lon="-1.191260">
        <ele>1029.708</ele>
        <time>2015-02-19T12:00:29Z</time>
      </trkpt>
      <trkpt lat="40.326910" lon="-1.191461">
        <ele>1031.607</ele>
        <time>2015-02-19T12:00:49Z</time>
      </trkpt>
      <trkpt lat="40.326642" lon="-1.191574">
        <ele>1035.060</ele>
        <time>2015-02-19T12:01:09Z</time>
      </trkpt>
      <trkpt lat="40.326405" lon="-1.191765">
        <ele>1038.440</ele>
        <time>2015-02-19T12:01:29Z</time>
      </trkpt>
      <trkpt lat="40.326339" lon="-1.191802">
        <ele>1038.881</ele>
        <time>2015-02-19T12:01:49Z</time>
      </trkpt>
      <trkpt lat="40.326323" lon="-1.191820">
        <ele>1039.386</ele>
        <time>2015-02-19T12:02:09Z</time>
      </trkpt>
      <trkpt lat="40.326306" lon="-1.191836">
        <ele>1039.896</ele>
        <time>2015-02-19T12:02:29Z</time>
      </trkpt>
      <trkpt lat="40.326286" lon="-1.191854">
        <ele>1039.872</ele>
        <time>2015-02-19T12:02:49Z</time>
      </trkpt>
      <trkpt lat="40.326270" lon="-1.191873">
        <ele>1039.853</ele>
        <time>2015-02-19T12:03:09Z</time>
      </trkpt>
      <trkpt lat="40.326171" lon="-1.191990">
        <ele>1042.275</ele>
        <time>2015-02-19T12:03:29Z</time>
      </trkpt>
      <trkpt lat="40.325950" lon="-1.192107">
        <ele>1045.628</ele>
        <time>2015-02-19T12:03:49Z</time>
      </trkpt>
      <trkpt lat="40.325686" lon="-1.192214">
        <ele>1048.920</ele>
        <time>2015-02-19T12:04:09Z</time>
      </trkpt>
      <trkpt lat="40.325378" lon="-1.192288">
        <ele>1051.807</ele>
        <time>2015-02-19T12:04:29Z</time>
      </trkpt>
      <trkpt lat="40.325171" lon="-1.192378">
        <ele>1054.735</ele>
        <time>2015-02-19T12:04:49Z</time>
      </trkpt>
      <trkpt lat="40.324873" lon="-1.192414">
        <ele>1058.155</ele>
        <time>2015-02-19T12:05:09Z</time>
      </trkpt>
      <trkpt lat="40.324422" lon="-1.192396">
        <ele>1060.016</ele>
        <time>2015-02-19T12:05:29Z</time>
      </trkpt>
      <trkpt lat="40.324071" lon="-1.192383">
        <ele>1061.961</ele>
        <time>2015-02-19T12:05:49Z</time>
      </trkpt>
      <trkpt lat="40.323777" lon="-1.192456">
        <ele>1061.461</ele>
        <time>2015-02-19T12:06:09Z</time>
      </trkpt>
      <trkpt lat="40.323711" lon="-1.192516">
        <ele>1061.947</ele>
        <time>2015-02-19T12:06:29Z</time>
      </trkpt>
      <trkpt lat="40.323698" lon="-1.192546">
        <ele>1061.438</ele>
        <time>2015-02-19T12:06:49Z</time>
      </trkpt>
      <trkpt lat="40.323678" lon="-1.192609">
        <ele>1062.497</ele>
        <time>2015-02-19T12:07:09Z</time>
      </trkpt>
      <trkpt lat="40.323604" lon="-1.192992">
        <ele>1063.823</ele>
        <time>2015-02-19T12:07:29Z</time>
      </trkpt>
      <trkpt lat="40.323428" lon="-1.193249">
        <ele>1064.825</ele>
        <time>2015-02-19T12:07:49Z</time>
      </trkpt>
      <trkpt lat="40.323297" lon="-1.193459">
        <ele>1061.907</ele>
        <time>2015-02-19T12:08:09Z</time>
      </trkpt>
      <trkpt lat="40.323173" lon="-1.193629">
        <ele>1061.447</ele>
        <time>2015-02-19T12:08:29Z</time>
      </trkpt>
      <trkpt lat="40.323137" lon="-1.193693">
        <ele>1060.967</ele>
        <time>2015-02-19T12:08:49Z</time>
      </trkpt>
      <trkpt lat="40.323109" lon="-1.193762">
        <ele>1062.448</ele>
        <time>2015-02-19T12:09:09Z</time>
      </trkpt>
      <trkpt lat="40.323091" lon="-1.193833">
        <ele>1060.583</ele>
        <time>2015-02-19T12:09:29Z</time>
      </trkpt>
      <trkpt lat="40.323082" lon="-1.193902">
        <ele>1060.563</ele>
        <time>2015-02-19T12:09:49Z</time>
      </trkpt>
      <trkpt lat="40.323077" lon="-1.193967">
        <ele>1060.569</ele>
        <time>2015-02-19T12:10:09Z</time>
      </trkpt>
      <trkpt lat="40.323073" lon="-1.194096">
        <ele>1061.440</ele>
        <time>2015-02-19T12:10:29Z</time>
      </trkpt>
      <trkpt lat="40.323067" lon="-1.194156">
        <ele>1060.515</ele>
        <time>2015-02-19T12:10:49Z</time>
      </trkpt>
      <trkpt lat="40.323059" lon="-1.194213">
        <ele>1060.065</ele>
        <time>2015-02-19T12:11:09Z</time>
      </trkpt>
      <trkpt lat="40.323045" lon="-1.194267">
        <ele>1060.511</ele>
        <time>2015-02-19T12:11:29Z</time>
      </trkpt>
      <trkpt lat="40.323025" lon="-1.194316">
        <ele>1060.007</ele>
        <time>2015-02-19T12:11:49Z</time>
      </trkpt>
      <trkpt lat="40.323000" lon="-1.194365">
        <ele>1060.019</ele>
        <time>2015-02-19T12:12:09Z</time>
      </trkpt>
      <trkpt lat="40.322949" lon="-1.194454">
        <ele>1061.469</ele>
        <time>2015-02-19T12:12:29Z</time>
      </trkpt>
      <trkpt lat="40.322653" lon="-1.194705">
        <ele>1064.310</ele>
        <time>2015-02-19T12:12:49Z</time>
      </trkpt>
      <trkpt lat="40.322414" lon="-1.194822">
        <ele>1067.775</ele>
        <time>2015-02-19T12:13:09Z</time>
      </trkpt>
      <trkpt lat="40.322391" lon="-1.194838">
        <ele>1067.775</ele>
        <time>2015-02-19T12:13:29Z</time>
      </trkpt>
      <trkpt lat="40.322194" lon="-1.195179">
        <ele>1070.681</ele>
        <time>2015-02-19T12:13:49Z</time>
      </trkpt>
      <trkpt lat="40.321977" lon="-1.195247">
        <ele>1068.672</ele>
        <time>2015-02-19T12:14:09Z</time>
      </trkpt>
      <trkpt lat="40.321871" lon="-1.195186">
        <ele>1067.732</ele>
        <time>2015-02-19T12:14:29Z</time>
      </trkpt>
      <trkpt lat="40.321769" lon="-1.194937">
        <ele>1064.892</ele>
        <time>2015-02-19T12:14:49Z</time>
      </trkpt>
      <trkpt lat="40.321743" lon="-1.194888">
        <ele>1064.311</ele>
        <time>2015-02-19T12:15:09Z</time>
      </trkpt>
      <trkpt lat="40.321713" lon="-1.194837">
        <ele>1063.807</ele>
        <time>2015-02-19T12:15:29Z</time>
      </trkpt>
      <trkpt lat="40.321678" lon="-1.194787">
        <ele>1063.471</ele>
        <time>2015-02-19T12:15:49Z</time>
      </trkpt>
      <trkpt lat="40.321515" lon="-1.194590">
        <ele>1061.951</ele>
        <time>2015-02-19T12:16:09Z</time>
      </trkpt>
      <trkpt lat="40.321341" lon="-1.194530">
        <ele>1060.992</ele>
        <time>2015-02-19T12:16:29Z</time>
      </trkpt>
      <trkpt lat="40.321126" lon="-1.194565">
        <ele>1058.647</ele>
        <time>2015-02-19T12:16:49Z</time>
      </trkpt>
      <trkpt lat="40.321091" lon="-1.194594">
        <ele>1057.147</ele>
        <time>2015-02-19T12:17:09Z</time>
      </trkpt>
      <trkpt lat="40.321070" lon="-1.194637">
        <ele>1057.193</ele>
        <time>2015-02-19T12:17:29Z</time>
      </trkpt>
      <trkpt lat="40.321057" lon="-1.194686">
        <ele>1056.214</ele>
        <time>2015-02-19T12:17:49Z</time>
      </trkpt>
      <trkpt lat="40.321054" lon="-1.194737">
        <ele>1057.123</ele>
        <time>2015-02-19T12:18:09Z</time>
      </trkpt>
      <trkpt lat="40.321057" lon="-1.194788">
        <ele>1055.783</ele>
        <time>2015-02-19T12:18:29Z</time>
      </trkpt>
      <trkpt lat="40.321064" lon="-1.194842">
        <ele>1056.611</ele>
        <time>2015-02-19T12:18:49Z</time>
      </trkpt>
      <trkpt lat="40.321071" lon="-1.194901">
        <ele>1055.207</ele>
        <time>2015-02-19T12:19:09Z</time>
      </trkpt>
      <trkpt lat="40.321076" lon="-1.194965">
        <ele>1055.730</ele>
        <time>2015-02-19T12:19:29Z</time>
      </trkpt>
      <trkpt lat="40.321082" lon="-1.195098">
        <ele>1053.730</ele>
        <time>2015-02-19T12:19:49Z</time>
      </trkpt>
      <trkpt lat="40.321098" lon="-1.195237">
        <ele>1053.721</ele>
        <time>2015-02-19T12:20:09Z</time>
      </trkpt>
      <trkpt lat="40.321112" lon="-1.195300">
        <ele>1054.766</ele>
        <time>2015-02-19T12:20:29Z</time>
      </trkpt>
      <trkpt lat="40.321121" lon="-1.195359">
        <ele>1053.756</ele>
        <time>2015-02-19T12:20:49Z</time>
      </trkpt>
      <trkpt lat="40.321122" lon="-1.195415">
        <ele>1054.212</ele>
        <time>2015-02-19T12:21:09Z</time>
      </trkpt>
      <trkpt lat="40.321114" lon="-1.195462">
        <ele>1053.323</ele>
        <time>2015-02-19T12:21:29Z</time>
      </trkpt>
      <trkpt lat="40.321098" lon="-1.195498">
        <ele>1054.295</ele>
        <time>2015-02-19T12:21:49Z</time>
      </trkpt>
      <trkpt lat="40.321077" lon="-1.195522">
        <ele>1053.349</ele>
        <time>2015-02-19T12:22:09Z</time>
      </trkpt>
      <trkpt lat="40.321054" lon="-1.195542">
        <ele>1054.723</ele>
        <time>2015-02-19T12:22:29Z</time>
      </trkpt>
      <trkpt lat="40.320737" lon="-1.195606">
        <ele>1055.207</ele>
        <time>2015-02-19T12:22:49Z</time>
      </trkpt>
      <trkpt lat="40.320344" lon="-1.195650">
        <ele>1057.697</ele>
        <time>2015-02-19T12:23:09Z</time>
      </trkpt>
      <trkpt lat="40.319975" lon="-1.195920">
        <ele>1058.157</ele>
        <time>2015-02-19T12:23:29Z</time>
      </trkpt>
      <trkpt lat="40.319829" lon="-1.196314">
        <ele>1060.568</ele>
        <time>2015-02-19T12:23:49Z</time>
      </trkpt>
      <trkpt lat="40.319616" lon="-1.196710">
        <ele>1063.833</ele>
        <time>2015-02-19T12:24:09Z</time>
      </trkpt>
      <trkpt lat="40.319456" lon="-1.196977">
        <ele>1067.253</ele>
        <time>2015-02-19T12:24:29Z</time>
      </trkpt>
      <trkpt lat="40.319196" lon="-1.197279">
        <ele>1067.779</ele>
        <time>2015-02-19T12:24:49Z</time>
      </trkpt>
      <trkpt lat="40.318750" lon="-1.197555">
        <ele>1067.290</ele>
        <time>2015-02-19T12:25:09Z</time>
      </trkpt>
      <trkpt lat="40.318483" lon="-1.197840">
        <ele>1071.535</ele>
        <time>2015-02-19T12:25:29Z</time>
      </trkpt>
      <trkpt lat="40.318220" lon="-1.198092">
        <ele>1073.986</ele>
        <time>2015-02-19T12:25:49Z</time>
      </trkpt>
      <trkpt lat="40.317879" lon="-1.198089">
        <ele>1074.414</ele>
        <time>2015-02-19T12:26:09Z</time>
      </trkpt>
      <trkpt lat="40.317514" lon="-1.198124">
        <ele>1076.307</ele>
        <time>2015-02-19T12:26:29Z</time>
      </trkpt>
      <trkpt lat="40.317207" lon="-1.198334">
        <ele>1078.341</ele>
        <time>2015-02-19T12:26:49Z</time>
      </trkpt>
      <trkpt lat="40.316815" lon="-1.198341">
        <ele>1079.751</ele>
        <time>2015-02-19T12:27:09Z</time>
      </trkpt>
      <trkpt lat="40.316606" lon="-1.198513">
        <ele>1078.772</ele>
        <time>2015-02-19T12:27:29Z</time>
      </trkpt>
      <trkpt lat="40.316565" lon="-1.198543">
        <ele>1077.867</ele>
        <time>2015-02-19T12:27:49Z</time>
      </trkpt>
      <trkpt lat="40.316518" lon="-1.198572">
        <ele>1077.347</ele>
        <time>2015-02-19T12:28:09Z</time>
      </trkpt>
      <trkpt lat="40.316463" lon="-1.198599">
        <ele>1077.813</ele>
        <time>2015-02-19T12:28:29Z</time>
      </trkpt>
      <trkpt lat="40.316404" lon="-1.198625">
        <ele>1077.394</ele>
        <time>2015-02-19T12:28:49Z</time>
      </trkpt>
      <trkpt lat="40.316182" lon="-1.198755">
        <ele>1075.899</ele>
        <time>2015-02-19T12:29:09Z</time>
      </trkpt>
      <trkpt lat="40.316137" lon="-1.198804">
        <ele>1076.807</ele>
        <time>2015-02-19T12:29:29Z</time>
      </trkpt>
      <trkpt lat="40.316105" lon="-1.198854">
        <ele>1076.827</ele>
        <time>2015-02-19T12:29:49Z</time>
      </trkpt>
      <trkpt lat="40.316087" lon="-1.198901">
        <ele>1076.807</ele>
        <time>2015-02-19T12:30:09Z</time>
      </trkpt>
      <trkpt lat="40.316078" lon="-1.198945">
        <ele>1077.347</ele>
        <time>2015-02-19T12:30:29Z</time>
      </trkpt>
      <trkpt lat="40.316079" lon="-1.198988">
        <ele>1076.897</ele>
        <time>2015-02-19T12:30:49Z</time>
      </trkpt>
      <trkpt lat="40.316081" lon="-1.199029">
        <ele>1077.848</ele>
        <time>2015-02-19T12:31:09Z</time>
      </trkpt>
      <trkpt lat="40.316085" lon="-1.199070">
        <ele>1078.733</ele>
        <time>2015-02-19T12:31:29Z</time>
      </trkpt>
      <trkpt lat="40.316088" lon="-1.199110">
        <ele>1078.753</ele>
        <time>2015-02-19T12:31:49Z</time>
      </trkpt>
      <trkpt lat="40.316293" lon="-1.199402">
        <ele>1081.149</ele>
        <time>2015-02-19T12:32:09Z</time>
      </trkpt>
      <trkpt lat="40.316708" lon="-1.199691">
        <ele>1082.150</ele>
        <time>2015-02-19T12:32:29Z</time>
      </trkpt>
      <trkpt lat="40.316726" lon="-1.199722">
        <ele>1082.637</ele>
        <time>2015-02-19T12:32:49Z</time>
      </trkpt>
      <trkpt lat="40.316939" lon="-1.200133">
        <ele>1084.549</ele>
        <time>2015-02-19T12:33:09Z</time>
      </trkpt>
      <trkpt lat="40.316944" lon="-1.200170">
        <ele>1085.013</ele>
        <time>2015-02-19T12:33:29Z</time>
      </trkpt>
      <trkpt lat="40.316949" lon="-1.200775">
        <ele>1085.007</ele>
        <time>2015-02-19T12:33:49Z</time>
      </trkpt>
      <trkpt lat="40.316874" lon="-1.200970">
        <ele>1084.531</ele>
        <time>2015-02-19T12:34:09Z</time>
      </trkpt>
      <trkpt lat="40.316866" lon="-1.201023">
        <ele>1084.061</ele>
        <time>2015-02-19T12:34:29Z</time>
      </trkpt>
      <trkpt lat="40.316862" lon="-1.201078">
        <ele>1084.542</ele>
        <time>2015-02-19T12:34:49Z</time>
      </trkpt>
      <trkpt lat="40.316994" lon="-1.201789">
        <ele>1083.587</ele>
        <time>2015-02-19T12:35:09Z</time>
      </trkpt>
      <trkpt lat="40.317356" lon="-1.202477">
        <ele>1085.547</ele>
        <time>2015-02-19T12:35:29Z</time>
      </trkpt>
      <trkpt lat="40.317526" lon="-1.203051">
        <ele>1085.913</ele>
        <time>2015-02-19T12:35:49Z</time>
      </trkpt>
      <trkpt lat="40.317861" lon="-1.203379">
        <ele>1087.464</ele>
        <time>2015-02-19T12:36:09Z</time>
      </trkpt>
      <trkpt lat="40.318051" lon="-1.203508">
        <ele>1086.942</ele>
        <time>2015-02-19T12:36:29Z</time>
      </trkpt>
      <trkpt lat="40.318083" lon="-1.203540">
        <ele>1086.422</ele>
        <time>2015-02-19T12:36:49Z</time>
      </trkpt>
      <trkpt lat="40.318109" lon="-1.203577">
        <ele>1086.914</ele>
        <time>2015-02-19T12:37:09Z</time>
      </trkpt>
      <trkpt lat="40.318132" lon="-1.203618">
        <ele>1086.907</ele>
        <time>2015-02-19T12:37:29Z</time>
      </trkpt>
      <trkpt lat="40.318154" lon="-1.203658">
        <ele>1086.972</ele>
        <time>2015-02-19T12:37:49Z</time>
      </trkpt>
      <trkpt lat="40.318501" lon="-1.204296">
        <ele>1089.892</ele>
        <time>2015-02-19T12:38:09Z</time>
      </trkpt>
      <trkpt lat="40.318829" lon="-1.204900">
        <ele>1090.363</ele>
        <time>2015-02-19T12:38:29Z</time>
      </trkpt>
      <trkpt lat="40.318955" lon="-1.205465">
        <ele>1090.828</ele>
        <time>2015-02-19T12:38:49Z</time>
      </trkpt>
      <trkpt lat="40.318980" lon="-1.206164">
        <ele>1093.218</ele>
        <time>2015-02-19T12:39:09Z</time>
      </trkpt>
      <trkpt lat="40.318752" lon="-1.206769">
        <ele>1095.184</ele>
        <time>2015-02-19T12:39:29Z</time>
      </trkpt>
      <trkpt lat="40.318572" lon="-1.207387">
        <ele>1095.695</ele>
        <time>2015-02-19T12:39:49Z</time>
      </trkpt>
      <trkpt lat="40.318474" lon="-1.207946">
        <ele>1098.063</ele>
        <time>2015-02-19T12:40:09Z</time>
      </trkpt>
      <trkpt lat="40.318375" lon="-1.208423">
        <ele>1098.444</ele>
        <time>2015-02-19T12:40:29Z</time>
      </trkpt>
      <trkpt lat="40.318021" lon="-1.208773">
        <ele>1100.818</ele>
        <time>2015-02-19T12:40:49Z</time>
      </trkpt>
      <trkpt lat="40.317906" lon="-1.209207">
        <ele>1099.907</ele>
        <time>2015-02-19T12:41:09Z</time>
      </trkpt>
      <trkpt lat="40.317913" lon="-1.209395">
        <ele>1098.494</ele>
        <time>2015-02-19T12:41:29Z</time>
      </trkpt>
      <trkpt lat="40.317927" lon="-1.209469">
        <ele>1098.094</ele>
        <time>2015-02-19T12:41:49Z</time>
      </trkpt>
      <trkpt lat="40.317949" lon="-1.209541">
        <ele>1098.095</ele>
        <time>2015-02-19T12:42:09Z</time>
      </trkpt>
      <trkpt lat="40.318000" lon="-1.209686">
        <ele>1098.020</ele>
        <time>2015-02-19T12:42:29Z</time>
      </trkpt>
      <trkpt lat="40.318016" lon="-1.209760">
        <ele>1098.080</ele>
        <time>2015-02-19T12:42:49Z</time>
      </trkpt>
      <trkpt lat="40.318017" lon="-1.209827">
        <ele>1097.026</ele>
        <time>2015-02-19T12:43:09Z</time>
      </trkpt>
      <trkpt lat="40.318010" lon="-1.209890">
        <ele>1097.587</ele>
        <time>2015-02-19T12:43:29Z</time>
      </trkpt>
      <trkpt lat="40.317999" lon="-1.209947">
        <ele>1096.598</ele>
        <time>2015-02-19T12:43:49Z</time>
      </trkpt>
      <trkpt lat="40.317987" lon="-1.209999">
        <ele>1097.515</ele>
        <time>2015-02-19T12:44:09Z</time>
      </trkpt>
      <trkpt lat="40.317971" lon="-1.210050">
        <ele>1097.526</ele>
        <time>2015-02-19T12:44:29Z</time>
      </trkpt>
      <trkpt lat="40.317943" lon="-1.210151">
        <ele>1097.007</ele>
        <time>2015-02-19T12:44:49Z</time>
      </trkpt>
      <trkpt lat="40.317933" lon="-1.210203">
        <ele>1097.517</ele>
        <time>2015-02-19T12:45:09Z</time>
      </trkpt>
      <trkpt lat="40.317925" lon="-1.210259">
        <ele>1097.547</ele>
        <time>2015-02-19T12:45:29Z</time>
      </trkpt>
      <trkpt lat="40.317923" lon="-1.210314">
        <ele>1097.538</ele>
        <time>2015-02-19T12:45:49Z</time>
      </trkpt>
      <trkpt lat="40.317925" lon="-1.210369">
        <ele>1096.573</ele>
        <time>2015-02-19T12:46:09Z</time>
      </trkpt>
      <trkpt lat="40.317930" lon="-1.210423">
        <ele>1098.013</ele>
        <time>2015-02-19T12:46:29Z</time>
      </trkpt>
      <trkpt lat="40.318026" lon="-1.211554">
        <ele>1097.589</ele>
        <time>2015-02-19T12:46:49Z</time>
      </trkpt>
      <trkpt lat="40.318112" lon="-1.212087">
        <ele>1097.070</ele>
        <time>2015-02-19T12:47:09Z</time>
      </trkpt>
      <trkpt lat="40.318197" lon="-1.212398">
        <ele>1095.639</ele>
        <time>2015-02-19T12:47:29Z</time>
      </trkpt>
      <trkpt lat="40.318221" lon="-1.212461">
        <ele>1096.001</ele>
        <time>2015-02-19T12:47:49Z</time>
      </trkpt>
      <trkpt lat="40.318352" lon="-1.212853">
        <ele>1093.221</ele>
        <time>2015-02-19T12:48:09Z</time>
      </trkpt>
      <trkpt lat="40.318364" lon="-1.212948">
        <ele>1091.707</ele>
        <time>2015-02-19T12:48:29Z</time>
      </trkpt>
      <trkpt lat="40.318373" lon="-1.213122">
        <ele>1090.841</ele>
        <time>2015-02-19T12:48:49Z</time>
      </trkpt>
      <trkpt lat="40.318386" lon="-1.213200">
        <ele>1091.771</ele>
        <time>2015-02-19T12:49:09Z</time>
      </trkpt>
      <trkpt lat="40.318410" lon="-1.213266">
        <ele>1092.242</ele>
        <time>2015-02-19T12:49:29Z</time>
      </trkpt>
      <trkpt lat="40.318436" lon="-1.213324">
        <ele>1092.217</ele>
        <time>2015-02-19T12:49:49Z</time>
      </trkpt>
      <trkpt lat="40.318468" lon="-1.213371">
        <ele>1093.237</ele>
        <time>2015-02-19T12:50:09Z</time>
      </trkpt>
      <trkpt lat="40.318504" lon="-1.213408">
        <ele>1092.753</ele>
        <time>2015-02-19T12:50:29Z</time>
      </trkpt>
      <trkpt lat="40.318542" lon="-1.213444">
        <ele>1094.164</ele>
        <time>2015-02-19T12:50:49Z</time>
      </trkpt>
      <trkpt lat="40.318583" lon="-1.213474">
        <ele>1093.257</ele>
        <time>2015-02-19T12:51:09Z</time>
      </trkpt>
      <trkpt lat="40.318626" lon="-1.213503">
        <ele>1094.600</ele>
        <time>2015-02-19T12:51:29Z</time>
      </trkpt>
      <trkpt lat="40.318970" lon="-1.213809">
        <ele>1098.020</ele>
        <time>2015-02-19T12:51:49Z</time>
      </trkpt>
      <trkpt lat="40.318992" lon="-1.213851">
        <ele>1098.007</ele>
        <time>2015-02-19T12:52:09Z</time>
      </trkpt>
      <trkpt lat="40.319231" lon="-1.214497">
        <ele>1099.413</ele>
        <time>2015-02-19T12:52:29Z</time>
      </trkpt>
      <trkpt lat="40.319528" lon="-1.215106">
        <ele>1100.453</ele>
        <time>2015-02-19T12:52:49Z</time>
      </trkpt>
      <trkpt lat="40.319791" lon="-1.215585">
        <ele>1102.354</ele>
        <time>2015-02-19T12:53:09Z</time>
      </trkpt>
      <trkpt lat="40.320165" lon="-1.216220">
        <ele>1103.779</ele>
        <time>2015-02-19T12:53:29Z</time>
      </trkpt>
      <trkpt lat="40.320440" lon="-1.216824">
        <ele>1104.749</ele>
        <time>2015-02-19T12:53:49Z</time>
      </trkpt>
      <trkpt lat="40.320684" lon="-1.217449">
        <ele>1103.275</ele>
        <time>2015-02-19T12:54:09Z</time>
      </trkpt>
      <trkpt lat="40.320818" lon="-1.218019">
        <ele>1103.796</ele>
        <time>2015-02-19T12:54:29Z</time>
      </trkpt>
      <trkpt lat="40.320864" lon="-1.218165">
        <ele>1102.397</ele>
        <time>2015-02-19T12:54:49Z</time>
      </trkpt>
      <trkpt lat="40.320878" lon="-1.218218">
        <ele>1102.823</ele>
        <time>2015-02-19T12:55:09Z</time>
      </trkpt>
      <trkpt lat="40.320891" lon="-1.218270">
        <ele>1102.325</ele>
        <time>2015-02-19T12:55:29Z</time>
      </trkpt>
      <trkpt lat="40.320909" lon="-1.218323">
        <ele>1101.807</ele>
        <time>2015-02-19T12:55:49Z</time>
      </trkpt>
      <trkpt lat="40.320930" lon="-1.218374">
        <ele>1101.887</ele>
        <time>2015-02-19T12:56:09Z</time>
      </trkpt>
      <trkpt lat="40.320950" lon="-1.218426">
        <ele>1102.347</ele>
        <time>2015-02-19T12:56:29Z</time>
      </trkpt>
      <trkpt lat="40.321162" lon="-1.219020">
        <ele>1100.898</ele>
        <time>2015-02-19T12:56:49Z</time>
      </trkpt>
      <trkpt lat="40.321213" lon="-1.219115">
        <ele>1101.393</ele>
        <time>2015-02-19T12:57:09Z</time>
      </trkpt>
      <trkpt lat="40.321236" lon="-1.219164">
        <ele>1101.883</ele>
        <time>2015-02-19T12:57:29Z</time>
      </trkpt>
      <trkpt lat="40.321354" lon="-1.219399">
        <ele>1102.339</ele>
        <time>2015-02-19T12:57:49Z</time>
      </trkpt>
      <trkpt lat="40.321373" lon="-1.219448">
        <ele>1101.810</ele>
        <time>2015-02-19T12:58:09Z</time>
      </trkpt>
      <trkpt lat="40.321459" lon="-1.219710">
        <ele>1102.359</ele>
        <time>2015-02-19T12:58:29Z</time>
      </trkpt>
      <trkpt lat="40.321537" lon="-1.219910">
        <ele>1101.303</ele>
        <time>2015-02-19T12:58:49Z</time>
      </trkpt>
      <trkpt lat="40.321563" lon="-1.219954">
        <ele>1101.323</ele>
        <time>2015-02-19T12:59:09Z</time>
      </trkpt>
      <trkpt lat="40.321614" lon="-1.220039">
        <ele>1101.807</ele>
        <time>2015-02-19T12:59:29Z</time>
      </trkpt>
      <trkpt lat="40.321667" lon="-1.220147">
        <ele>1101.363</ele>
        <time>2015-02-19T12:59:49Z</time>
      </trkpt>
      <trkpt lat="40.322014" lon="-1.220732">
        <ele>1101.333</ele>
        <time>2015-02-19T13:00:09Z</time>
      </trkpt>
      <trkpt lat="40.322400" lon="-1.221242">
        <ele>1102.884</ele>
        <time>2015-02-19T13:00:29Z</time>
      </trkpt>
      <trkpt lat="40.322581" lon="-1.221751">
        <ele>1104.749</ele>
        <time>2015-02-19T13:00:49Z</time>
      </trkpt>
      <trkpt lat="40.322509" lon="-1.222259">
        <ele>1104.249</ele>
        <time>2015-02-19T13:01:09Z</time>
      </trkpt>
      <trkpt lat="40.322229" lon="-1.222754">
        <ele>1104.275</ele>
        <time>2015-02-19T13:01:29Z</time>
      </trkpt>
      <trkpt lat="40.321898" lon="-1.223106">
        <ele>1107.696</ele>
        <time>2015-02-19T13:01:49Z</time>
      </trkpt>
      <trkpt lat="40.321489" lon="-1.223394">
        <ele>1108.121</ele>
        <time>2015-02-19T13:02:09Z</time>
      </trkpt>
      <trkpt lat="40.321190" lon="-1.223704">
        <ele>1111.441</ele>
        <time>2015-02-19T13:02:29Z</time>
      </trkpt>
      <trkpt lat="40.320982" lon="-1.224073">
        <ele>1114.805</ele>
        <time>2015-02-19T13:02:49Z</time>
      </trkpt>
      <trkpt lat="40.320725" lon="-1.224797">
        <ele>1114.807</ele>
        <time>2015-02-19T13:03:09Z</time>
      </trkpt>
      <trkpt lat="40.320441" lon="-1.225346">
        <ele>1114.370</ele>
        <time>2015-02-19T13:03:29Z</time>
      </trkpt>
      <trkpt lat="40.319990" lon="-1.225800">
        <ele>1114.310</ele>
        <time>2015-02-19T13:03:49Z</time>
      </trkpt>
      <trkpt lat="40.319583" lon="-1.226245">
        <ele>1114.841</ele>
        <time>2015-02-19T13:04:09Z</time>
      </trkpt>
      <trkpt lat="40.319155" lon="-1.226744">
        <ele>1115.886</ele>
        <time>2015-02-19T13:04:29Z</time>
      </trkpt>
      <trkpt lat="40.318678" lon="-1.227252">
        <ele>1115.336</ele>
        <time>2015-02-19T13:04:49Z</time>
      </trkpt>
      <trkpt lat="40.318381" lon="-1.227772">
        <ele>1116.752</ele>
        <time>2015-02-19T13:05:09Z</time>
      </trkpt>
      <trkpt lat="40.318133" lon="-1.228259">
        <ele>1119.663</ele>
        <time>2015-02-19T13:05:29Z</time>
      </trkpt>
      <trkpt lat="40.317905" lon="-1.228896">
        <ele>1123.931</ele>
        <time>2015-02-19T13:05:49Z</time>
      </trkpt>
      <trkpt lat="40.317874" lon="-1.228980">
        <ele>1124.461</ele>
        <time>2015-02-19T13:06:09Z</time>
      </trkpt>
      <trkpt lat="40.317764" lon="-1.229276">
        <ele>1126.307</ele>
        <time>2015-02-19T13:06:29Z</time>
      </trkpt>
      <trkpt lat="40.317621" lon="-1.229785">
        <ele>1129.207</ele>
        <time>2015-02-19T13:06:49Z</time>
      </trkpt>
      <trkpt lat="40.317545" lon="-1.230241">
        <ele>1133.171</ele>
        <time>2015-02-19T13:07:09Z</time>
      </trkpt>
      <trkpt lat="40.317522" lon="-1.230630">
        <ele>1136.441</ele>
        <time>2015-02-19T13:07:29Z</time>
      </trkpt>
      <trkpt lat="40.317511" lon="-1.230819">
        <ele>1136.432</ele>
        <time>2015-02-19T13:07:49Z</time>
      </trkpt>
      <trkpt lat="40.317511" lon="-1.230833">
        <ele>1135.437</ele>
        <time>2015-02-19T13:08:09Z</time>
      </trkpt>
      <trkpt lat="40.317497" lon="-1.230986">
        <ele>1136.487</ele>
        <time>2015-02-19T13:08:29Z</time>
      </trkpt>
      <trkpt lat="40.317487" lon="-1.231014">
        <ele>1136.493</ele>
        <time>2015-02-19T13:08:49Z</time>
      </trkpt>
      <trkpt lat="40.317482" lon="-1.231039">
        <ele>1136.434</ele>
        <time>2015-02-19T13:09:09Z</time>
      </trkpt>
      <trkpt lat="40.317479" lon="-1.231057">
        <ele>1136.961</ele>
        <time>2015-02-19T13:09:29Z</time>
      </trkpt>
      <trkpt lat="40.317451" lon="-1.231251">
        <ele>1136.921</ele>
        <time>2015-02-19T13:09:49Z</time>
      </trkpt>
      <trkpt lat="40.317394" lon="-1.231506">
        <ele>1136.413</ele>
        <time>2015-02-19T13:10:09Z</time>
      </trkpt>
      <trkpt lat="40.317392" lon="-1.231537">
        <ele>1136.907</ele>
        <time>2015-02-19T13:10:29Z</time>
      </trkpt>
      <trkpt lat="40.317386" lon="-1.231552">
        <ele>1136.444</ele>
        <time>2015-02-19T13:10:49Z</time>
      </trkpt>
      <trkpt lat="40.317381" lon="-1.231567">
        <ele>1136.954</ele>
        <time>2015-02-19T13:11:09Z</time>
      </trkpt>
      <trkpt lat="40.317284" lon="-1.231880">
        <ele>1135.045</ele>
        <time>2015-02-19T13:11:29Z</time>
      </trkpt>
      <trkpt lat="40.317032" lon="-1.232401">
        <ele>1134.540</ele>
        <time>2015-02-19T13:11:49Z</time>
      </trkpt>
      <trkpt lat="40.316955" lon="-1.232556">
        <ele>1133.560</ele>
        <time>2015-02-19T13:12:09Z</time>
      </trkpt>
      <trkpt lat="40.316906" lon="-1.233091">
        <ele>1132.636</ele>
        <time>2015-02-19T13:12:29Z</time>
      </trkpt>
      <trkpt lat="40.317047" lon="-1.233501">
        <ele>1133.167</ele>
        <time>2015-02-19T13:12:49Z</time>
      </trkpt>
      <trkpt lat="40.317231" lon="-1.233764">
        <ele>1133.587</ele>
        <time>2015-02-19T13:13:09Z</time>
      </trkpt>
      <trkpt lat="40.317288" lon="-1.233949">
        <ele>1133.542</ele>
        <time>2015-02-19T13:13:29Z</time>
      </trkpt>
      <trkpt lat="40.317154" lon="-1.233996">
        <ele>1133.526</ele>
        <time>2015-02-19T13:13:49Z</time>
      </trkpt>
      <trkpt lat="40.316771" lon="-1.233908">
        <ele>1135.907</ele>
        <time>2015-02-19T13:14:09Z</time>
      </trkpt>
      <trkpt lat="40.316334" lon="-1.233810">
        <ele>1137.976</ele>
        <time>2015-02-19T13:14:29Z</time>
      </trkpt>
      <trkpt lat="40.315901" lon="-1.233787">
        <ele>1139.846</ele>
        <time>2015-02-19T13:14:49Z</time>
      </trkpt>
      <trkpt lat="40.315444" lon="-1.233818">
        <ele>1141.297</ele>
        <time>2015-02-19T13:15:09Z</time>
      </trkpt>
      <trkpt lat="40.315022" lon="-1.233907">
        <ele>1143.132</ele>
        <time>2015-02-19T13:15:29Z</time>
      </trkpt>
      <trkpt lat="40.314585" lon="-1.234023">
        <ele>1144.642</ele>
        <time>2015-02-19T13:15:49Z</time>
      </trkpt>
      <trkpt lat="40.314134" lon="-1.234243">
        <ele>1146.028</ele>
        <time>2015-02-19T13:16:09Z</time>
      </trkpt>
      <trkpt lat="40.313737" lon="-1.234435">
        <ele>1148.459</ele>
        <time>2015-02-19T13:16:29Z</time>
      </trkpt>
      <trkpt lat="40.313378" lon="-1.234727">
        <ele>1150.835</ele>
        <time>2015-02-19T13:16:49Z</time>
      </trkpt>
      <trkpt lat="40.313084" lon="-1.235221">
        <ele>1152.386</ele>
        <time>2015-02-19T13:17:09Z</time>
      </trkpt>
      <trkpt lat="40.312840" lon="-1.235771">
        <ele>1153.214</ele>
        <time>2015-02-19T13:17:29Z</time>
      </trkpt>
      <trkpt lat="40.312450" lon="-1.236444">
        <ele>1154.707</ele>
        <time>2015-02-19T13:17:49Z</time>
      </trkpt>
      <trkpt lat="40.312044" lon="-1.236877">
        <ele>1155.651</ele>
        <time>2015-02-19T13:18:09Z</time>
      </trkpt>
      <trkpt lat="40.311526" lon="-1.237091">
        <ele>1155.641</ele>
        <time>2015-02-19T13:18:29Z</time>
      </trkpt>
      <trkpt lat="40.311221" lon="-1.237271">
        <ele>1155.692</ele>
        <time>2015-02-19T13:18:49Z</time>
      </trkpt>
      <trkpt lat="40.311189" lon="-1.237305">
        <ele>1155.657</ele>
        <time>2015-02-19T13:19:09Z</time>
      </trkpt>
      <trkpt lat="40.310987" lon="-1.237545">
        <ele>1154.797</ele>
        <time>2015-02-19T13:19:29Z</time>
      </trkpt>
      <trkpt lat="40.310834" lon="-1.237878">
        <ele>1152.833</ele>
        <time>2015-02-19T13:19:49Z</time>
      </trkpt>
      <trkpt lat="40.310810" lon="-1.237960">
        <ele>1152.374</ele>
        <time>2015-02-19T13:20:09Z</time>
      </trkpt>
      <trkpt lat="40.310728" lon="-1.238229">
        <ele>1151.884</ele>
        <time>2015-02-19T13:20:29Z</time>
      </trkpt>
      <trkpt lat="40.310688" lon="-1.238321">
        <ele>1150.807</ele>
        <time>2015-02-19T13:20:49Z</time>
      </trkpt>
      <trkpt lat="40.310638" lon="-1.238410">
        <ele>1149.417</ele>
        <time>2015-02-19T13:21:09Z</time>
      </trkpt>
      <trkpt lat="40.310575" lon="-1.238487">
        <ele>1148.407</ele>
        <time>2015-02-19T13:21:29Z</time>
      </trkpt>
      <trkpt lat="40.310500" lon="-1.238552">
        <ele>1148.496</ele>
        <time>2015-02-19T13:21:49Z</time>
      </trkpt>
      <trkpt lat="40.310416" lon="-1.238599">
        <ele>1147.546</ele>
        <time>2015-02-19T13:22:09Z</time>
      </trkpt>
      <trkpt lat="40.310328" lon="-1.238640">
        <ele>1147.067</ele>
        <time>2015-02-19T13:22:29Z</time>
      </trkpt>
      <trkpt lat="40.310238" lon="-1.238673">
        <ele>1146.572</ele>
        <time>2015-02-19T13:22:49Z</time>
      </trkpt>
      <trkpt lat="40.310146" lon="-1.238705">
        <ele>1145.152</ele>
        <time>2015-02-19T13:23:09Z</time>
      </trkpt>
      <trkpt lat="40.309756" lon="-1.238854">
        <ele>1142.238</ele>
        <time>2015-02-19T13:23:29Z</time>
      </trkpt>
      <trkpt lat="40.309650" lon="-1.238875">
        <ele>1141.269</ele>
        <time>2015-02-19T13:23:49Z</time>
      </trkpt>
      <trkpt lat="40.309540" lon="-1.238877">
        <ele>1140.726</ele>
        <time>2015-02-19T13:24:09Z</time>
      </trkpt>
      <trkpt lat="40.309430" lon="-1.238855">
        <ele>1140.347</ele>
        <time>2015-02-19T13:24:29Z</time>
      </trkpt>
      <trkpt lat="40.309324" lon="-1.238811">
        <ele>1139.311</ele>
        <time>2015-02-19T13:24:49Z</time>
      </trkpt>
      <trkpt lat="40.309219" lon="-1.238758">
        <ele>1138.307</ele>
        <time>2015-02-19T13:25:09Z</time>
      </trkpt>
      <trkpt lat="40.308996" lon="-1.238662">
        <ele>1135.060</ele>
        <time>2015-02-19T13:25:29Z</time>
      </trkpt>
      <trkpt lat="40.308879" lon="-1.238617">
        <ele>1134.510</ele>
        <time>2015-02-19T13:25:49Z</time>
      </trkpt>
      <trkpt lat="40.308767" lon="-1.238562">
        <ele>1134.561</ele>
        <time>2015-02-19T13:26:09Z</time>
      </trkpt>
      <trkpt lat="40.308452" lon="-1.238391">
        <ele>1130.256</ele>
        <time>2015-02-19T13:26:29Z</time>
      </trkpt>
      <trkpt lat="40.308351" lon="-1.238361">
        <ele>1129.246</ele>
        <time>2015-02-19T13:26:49Z</time>
      </trkpt>
      <trkpt lat="40.308243" lon="-1.238354">
        <ele>1128.222</ele>
        <time>2015-02-19T13:27:09Z</time>
      </trkpt>
      <trkpt lat="40.308129" lon="-1.238363">
        <ele>1126.843</ele>
        <time>2015-02-19T13:27:29Z</time>
      </trkpt>
      <trkpt lat="40.308011" lon="-1.238379">
        <ele>1125.895</ele>
        <time>2015-02-19T13:27:49Z</time>
      </trkpt>
      <trkpt lat="40.307656" lon="-1.238437">
        <ele>1120.649</ele>
        <time>2015-02-19T13:28:09Z</time>
      </trkpt>
      <trkpt lat="40.307451" lon="-1.238457">
        <ele>1117.223</ele>
        <time>2015-02-19T13:28:29Z</time>
      </trkpt>
      <trkpt lat="40.307274" lon="-1.238487">
        <ele>1114.307</ele>
        <time>2015-02-19T13:28:49Z</time>
      </trkpt>
      <trkpt lat="40.307190" lon="-1.238525">
        <ele>1113.317</ele>
        <time>2015-02-19T13:29:09Z</time>
      </trkpt>
      <trkpt lat="40.307106" lon="-1.238584">
        <ele>1111.947</ele>
        <time>2015-02-19T13:29:29Z</time>
      </trkpt>
      <trkpt lat="40.307028" lon="-1.238659">
        <ele>1111.438</ele>
        <time>2015-02-19T13:29:49Z</time>
      </trkpt>
      <trkpt lat="40.306959" lon="-1.238735">
        <ele>1110.563</ele>
        <time>2015-02-19T13:30:09Z</time>
      </trkpt>
      <trkpt lat="40.306803" lon="-1.238906">
        <ele>1107.163</ele>
        <time>2015-02-19T13:30:29Z</time>
      </trkpt>
      <trkpt lat="40.306760" lon="-1.238937">
        <ele>1105.719</ele>
        <time>2015-02-19T13:30:49Z</time>
      </trkpt>
      <trkpt lat="40.306722" lon="-1.238944">
        <ele>1104.770</ele>
        <time>2015-02-19T13:31:09Z</time>
      </trkpt>
      <trkpt lat="40.306696" lon="-1.238935">
        <ele>1104.294</ele>
        <time>2015-02-19T13:31:29Z</time>
      </trkpt>
      <trkpt lat="40.306675" lon="-1.238913">
        <ele>1104.257</ele>
        <time>2015-02-19T13:31:49Z</time>
      </trkpt>
      <trkpt lat="40.306656" lon="-1.238889">
        <ele>1104.222</ele>
        <time>2015-02-19T13:32:09Z</time>
      </trkpt>
      <trkpt lat="40.306343" lon="-1.238599">
        <ele>1103.707</ele>
        <time>2015-02-19T13:32:29Z</time>
      </trkpt>
      <trkpt lat="40.306073" lon="-1.238194">
        <ele>1102.357</ele>
        <time>2015-02-19T13:32:49Z</time>
      </trkpt>
      <trkpt lat="40.305841" lon="-1.237991">
        <ele>1102.897</ele>
        <time>2015-02-19T13:33:09Z</time>
      </trkpt>
      <trkpt lat="40.305783" lon="-1.237954">
        <ele>1103.218</ele>
        <time>2015-02-19T13:33:29Z</time>
      </trkpt>
      <trkpt lat="40.305748" lon="-1.237920">
        <ele>1103.293</ele>
        <time>2015-02-19T13:33:49Z</time>
      </trkpt>
      <trkpt lat="40.305517" lon="-1.237646">
        <ele>1106.123</ele>
        <time>2015-02-19T13:34:09Z</time>
      </trkpt>
      <trkpt lat="40.305438" lon="-1.237553">
        <ele>1107.179</ele>
        <time>2015-02-19T13:34:29Z</time>
      </trkpt>
      <trkpt lat="40.305421" lon="-1.237538">
        <ele>1107.610</ele>
        <time>2015-02-19T13:34:49Z</time>
      </trkpt>
      <trkpt lat="40.305406" lon="-1.237519">
        <ele>1107.662</ele>
        <time>2015-02-19T13:35:09Z</time>
      </trkpt>
      <trkpt lat="40.305390" lon="-1.237499">
        <ele>1107.683</ele>
        <time>2015-02-19T13:35:29Z</time>
      </trkpt>
      <trkpt lat="40.305375" lon="-1.237480">
        <ele>1107.611</ele>
        <time>2015-02-19T13:35:49Z</time>
      </trkpt>
      <trkpt lat="40.305359" lon="-1.237462">
        <ele>1108.107</ele>
        <time>2015-02-19T13:36:09Z</time>
      </trkpt>
      <trkpt lat="40.305051" lon="-1.237159">
        <ele>1109.044</ele>
        <time>2015-02-19T13:36:29Z</time>
      </trkpt>
      <trkpt lat="40.304566" lon="-1.236986">
        <ele>1108.174</ele>
        <time>2015-02-19T13:36:49Z</time>
      </trkpt>
      <trkpt lat="40.304152" lon="-1.236856">
        <ele>1107.655</ele>
        <time>2015-02-19T13:37:09Z</time>
      </trkpt>
      <trkpt lat="40.303715" lon="-1.236737">
        <ele>1107.160</ele>
        <time>2015-02-19T13:37:29Z</time>
      </trkpt>
      <trkpt lat="40.303192" lon="-1.236578">
        <ele>1106.680</ele>
        <time>2015-02-19T13:37:49Z</time>
      </trkpt>
      <trkpt lat="40.302859" lon="-1.236479">
        <ele>1108.586</ele>
        <time>2015-02-19T13:38:09Z</time>
      </trkpt>
      <trkpt lat="40.302574" lon="-1.236302">
        <ele>1111.457</ele>
        <time>2015-02-19T13:38:29Z</time>
      </trkpt>
      <trkpt lat="40.302344" lon="-1.236007">
        <ele>1114.353</ele>
        <time>2015-02-19T13:38:49Z</time>
      </trkpt>
      <trkpt lat="40.302100" lon="-1.235761">
        <ele>1116.704</ele>
        <time>2015-02-19T13:39:09Z</time>
      </trkpt>
      <trkpt lat="40.301802" lon="-1.235798">
        <ele>1120.114</ele>
        <time>2015-02-19T13:39:29Z</time>
      </trkpt>
      <trkpt lat="40.301674" lon="-1.236128">
        <ele>1121.507</ele>
        <time>2015-02-19T13:39:49Z</time>
      </trkpt>
      <trkpt lat="40.301549" lon="-1.236585">
        <ele>1123.023</ele>
        <time>2015-02-19T13:40:09Z</time>
      </trkpt>
      <trkpt lat="40.301253" lon="-1.236772">
        <ele>1125.813</ele>
        <time>2015-02-19T13:40:29Z</time>
      </trkpt>
      <trkpt lat="40.300907" lon="-1.236981">
        <ele>1126.864</ele>
        <time>2015-02-19T13:40:49Z</time>
      </trkpt>
      <trkpt lat="40.300608" lon="-1.237143">
        <ele>1128.769</ele>
        <time>2015-02-19T13:41:09Z</time>
      </trkpt>
      <trkpt lat="40.300228" lon="-1.237342">
        <ele>1131.149</ele>
        <time>2015-02-19T13:41:29Z</time>
      </trkpt>
      <trkpt lat="40.299820" lon="-1.237593">
        <ele>1131.155</ele>
        <time>2015-02-19T13:41:49Z</time>
      </trkpt>
      <trkpt lat="40.299383" lon="-1.237750">
        <ele>1131.196</ele>
        <time>2015-02-19T13:42:09Z</time>
      </trkpt>
      <trkpt lat="40.298897" lon="-1.237777">
        <ele>1133.177</ele>
        <time>2015-02-19T13:42:29Z</time>
      </trkpt>
      <trkpt lat="40.298384" lon="-1.237703">
        <ele>1133.561</ele>
        <time>2015-02-19T13:42:49Z</time>
      </trkpt>
      <trkpt lat="40.297910" lon="-1.237665">
        <ele>1134.027</ele>
        <time>2015-02-19T13:43:09Z</time>
      </trkpt>
      <trkpt lat="40.297632" lon="-1.237591">
        <ele>1137.407</ele>
        <time>2015-02-19T13:43:29Z</time>
      </trkpt>
      <trkpt lat="40.297250" lon="-1.237379">
        <ele>1139.335</ele>
        <time>2015-02-19T13:43:49Z</time>
      </trkpt>
      <trkpt lat="40.296734" lon="-1.237405">
        <ele>1142.285</ele>
        <time>2015-02-19T13:44:09Z</time>
      </trkpt>
      <trkpt lat="40.296348" lon="-1.237283">
        <ele>1144.696</ele>
        <time>2015-02-19T13:44:29Z</time>
      </trkpt>
      <trkpt lat="40.295921" lon="-1.237242">
        <ele>1146.521</ele>
        <time>2015-02-19T13:44:49Z</time>
      </trkpt>
      <trkpt lat="40.295475" lon="-1.237266">
        <ele>1146.581</ele>
        <time>2015-02-19T13:45:09Z</time>
      </trkpt>
      <trkpt lat="40.294934" lon="-1.237131">
        <ele>1149.497</ele>
        <time>2015-02-19T13:45:29Z</time>
      </trkpt>
      <trkpt lat="40.294372" lon="-1.237002">
        <ele>1147.578</ele>
        <time>2015-02-19T13:45:49Z</time>
      </trkpt>
      <trkpt lat="40.294261" lon="-1.236955">
        <ele>1147.092</ele>
        <time>2015-02-19T13:46:09Z</time>
      </trkpt>
      <trkpt lat="40.294211" lon="-1.236924">
        <ele>1147.073</ele>
        <time>2015-02-19T13:46:29Z</time>
      </trkpt>
      <trkpt lat="40.293920" lon="-1.236720">
        <ele>1150.320</ele>
        <time>2015-02-19T13:46:49Z</time>
      </trkpt>
      <trkpt lat="40.293648" lon="-1.236574">
        <ele>1154.207</ele>
        <time>2015-02-19T13:47:09Z</time>
      </trkpt>
      <trkpt lat="40.293370" lon="-1.236396">
        <ele>1157.167</ele>
        <time>2015-02-19T13:47:29Z</time>
      </trkpt>
      <trkpt lat="40.293046" lon="-1.236174">
        <ele>1160.017</ele>
        <time>2015-02-19T13:47:49Z</time>
      </trkpt>
      <trkpt lat="40.292564" lon="-1.235840">
        <ele>1158.118</ele>
        <time>2015-02-19T13:48:09Z</time>
      </trkpt>
      <trkpt lat="40.292524" lon="-1.235795">
        <ele>1158.173</ele>
        <time>2015-02-19T13:48:29Z</time>
      </trkpt>
      <trkpt lat="40.292407" lon="-1.235659">
        <ele>1157.113</ele>
        <time>2015-02-19T13:48:49Z</time>
      </trkpt>
      <trkpt lat="40.292365" lon="-1.235631">
        <ele>1157.669</ele>
        <time>2015-02-19T13:49:09Z</time>
      </trkpt>
      <trkpt lat="40.292328" lon="-1.235601">
        <ele>1157.620</ele>
        <time>2015-02-19T13:49:29Z</time>
      </trkpt>
      <trkpt lat="40.292010" lon="-1.235159">
        <ele>1160.446</ele>
        <time>2015-02-19T13:49:49Z</time>
      </trkpt>
      <trkpt lat="40.291713" lon="-1.234929">
        <ele>1163.388</ele>
        <time>2015-02-19T13:50:09Z</time>
      </trkpt>
      <trkpt lat="40.291254" lon="-1.234894">
        <ele>1166.216</ele>
        <time>2015-02-19T13:50:29Z</time>
      </trkpt>
      <trkpt lat="40.290877" lon="-1.234659">
        <ele>1168.107</ele>
        <time>2015-02-19T13:50:49Z</time>
      </trkpt>
      <trkpt lat="40.290526" lon="-1.234488">
        <ele>1170.552</ele>
        <time>2015-02-19T13:51:09Z</time>
      </trkpt>
      <trkpt lat="40.290097" lon="-1.234277">
        <ele>1173.492</ele>
        <time>2015-02-19T13:51:29Z</time>
      </trkpt>
      <trkpt lat="40.289660" lon="-1.234096">
        <ele>1179.783</ele>
        <time>2015-02-19T13:51:49Z</time>
      </trkpt>
      <trkpt lat="40.289636" lon="-1.234089">
        <ele>1175.398</ele>
        <time>2015-02-19T13:52:09Z</time>
      </trkpt>
      <trkpt lat="40.289412" lon="-1.233776">
        <ele>1178.298</ele>
        <time>2015-02-19T13:52:29Z</time>
      </trkpt>
      <trkpt lat="40.289295" lon="-1.233630">
        <ele>1178.234</ele>
        <time>2015-02-19T13:52:49Z</time>
      </trkpt>
      <trkpt lat="40.289279" lon="-1.233616">
        <ele>1178.765</ele>
        <time>2015-02-19T13:53:09Z</time>
      </trkpt>
      <trkpt lat="40.289265" lon="-1.233600">
        <ele>1178.725</ele>
        <time>2015-02-19T13:53:29Z</time>
      </trkpt>
      <trkpt lat="40.289249" lon="-1.233582">
        <ele>1179.226</ele>
        <time>2015-02-19T13:53:49Z</time>
      </trkpt>
      <trkpt lat="40.289235" lon="-1.233565">
        <ele>1179.208</ele>
        <time>2015-02-19T13:54:09Z</time>
      </trkpt>
      <trkpt lat="40.289034" lon="-1.233301">
        <ele>1179.207</ele>
        <time>2015-02-19T13:54:29Z</time>
      </trkpt>
      <trkpt lat="40.288810" lon="-1.232988">
        <ele>1179.230</ele>
        <time>2015-02-19T13:54:49Z</time>
      </trkpt>
      <trkpt lat="40.288480" lon="-1.232862">
        <ele>1178.240</ele>
        <time>2015-02-19T13:55:09Z</time>
      </trkpt>
      <trkpt lat="40.288083" lon="-1.232652">
        <ele>1177.361</ele>
        <time>2015-02-19T13:55:29Z</time>
      </trkpt>
      <trkpt lat="40.287615" lon="-1.232249">
        <ele>1176.396</ele>
        <time>2015-02-19T13:55:49Z</time>
      </trkpt>
      <trkpt lat="40.287299" lon="-1.232040">
        <ele>1175.386</ele>
        <time>2015-02-19T13:56:09Z</time>
      </trkpt>
      <trkpt lat="40.286923" lon="-1.231812">
        <ele>1173.952</ele>
        <time>2015-02-19T13:56:29Z</time>
      </trkpt>
      <trkpt lat="40.286883" lon="-1.231768">
        <ele>1173.983</ele>
        <time>2015-02-19T13:56:49Z</time>
      </trkpt>
      <trkpt lat="40.286814" lon="-1.231672">
        <ele>1173.423</ele>
        <time>2015-02-19T13:57:09Z</time>
      </trkpt>
      <trkpt lat="40.286784" lon="-1.231621">
        <ele>1173.483</ele>
        <time>2015-02-19T13:57:29Z</time>
      </trkpt>
      <trkpt lat="40.286756" lon="-1.231571">
        <ele>1173.411</ele>
        <time>2015-02-19T13:57:49Z</time>
      </trkpt>
      <trkpt lat="40.286727" lon="-1.231517">
        <ele>1172.907</ele>
        <time>2015-02-19T13:58:09Z</time>
      </trkpt>
      <trkpt lat="40.286697" lon="-1.231465">
        <ele>1172.990</ele>
        <time>2015-02-19T13:58:29Z</time>
      </trkpt>
      <trkpt lat="40.286669" lon="-1.231415">
        <ele>1172.950</ele>
        <time>2015-02-19T13:58:49Z</time>
      </trkpt>
      <trkpt lat="40.286638" lon="-1.231368">
        <ele>1172.551</ele>
        <time>2015-02-19T13:59:09Z</time>
      </trkpt>
      <trkpt lat="40.286351" lon="-1.230808">
        <ele>1172.576</ele>
        <time>2015-02-19T13:59:29Z</time>
      </trkpt>
      <trkpt lat="40.286058" lon="-1.230242">
        <ele>1173.996</ele>
        <time>2015-02-19T13:59:49Z</time>
      </trkpt>
      <trkpt lat="40.285744" lon="-1.229738">
        <ele>1175.372</ele>
        <time>2015-02-19T14:00:09Z</time>
      </trkpt>
      <trkpt lat="40.285426" lon="-1.229181">
        <ele>1176.873</ele>
        <time>2015-02-19T14:00:29Z</time>
      </trkpt>
      <trkpt lat="40.285056" lon="-1.228643">
        <ele>1178.239</ele>
        <time>2015-02-19T14:00:49Z</time>
      </trkpt>
      <trkpt lat="40.284725" lon="-1.228219">
        <ele>1180.201</ele>
        <time>2015-02-19T14:01:09Z</time>
      </trkpt>
      <trkpt lat="40.284412" lon="-1.227748">
        <ele>1181.621</ele>
        <time>2015-02-19T14:01:29Z</time>
      </trkpt>
      <trkpt lat="40.284105" lon="-1.227099">
        <ele>1184.507</ele>
        <time>2015-02-19T14:01:49Z</time>
      </trkpt>
      <trkpt lat="40.283893" lon="-1.226547">
        <ele>1186.981</ele>
        <time>2015-02-19T14:02:09Z</time>
      </trkpt>
      <trkpt lat="40.283708" lon="-1.225976">
        <ele>1189.891</ele>
        <time>2015-02-19T14:02:29Z</time>
      </trkpt>
      <trkpt lat="40.283524" lon="-1.225470">
        <ele>1192.782</ele>
        <time>2015-02-19T14:02:49Z</time>
      </trkpt>
      <trkpt lat="40.283347" lon="-1.224814">
        <ele>1194.617</ele>
        <time>2015-02-19T14:03:09Z</time>
      </trkpt>
      <trkpt lat="40.283138" lon="-1.224218">
        <ele>1195.127</ele>
        <time>2015-02-19T14:03:29Z</time>
      </trkpt>
      <trkpt lat="40.282987" lon="-1.223661">
        <ele>1195.133</ele>
        <time>2015-02-19T14:03:49Z</time>
      </trkpt>
      <trkpt lat="40.283009" lon="-1.223258">
        <ele>1194.654</ele>
        <time>2015-02-19T14:04:09Z</time>
      </trkpt>
      <trkpt lat="40.283041" lon="-1.223260">
        <ele>1193.676</ele>
        <time>2015-02-19T14:04:29Z</time>
      </trkpt>
      <trkpt lat="40.283034" lon="-1.223270">
        <ele>1193.190</ele>
        <time>2015-02-19T14:04:49Z</time>
      </trkpt>
      <trkpt lat="40.283044" lon="-1.223312">
        <ele>1193.619</ele>
        <time>2015-02-19T14:05:09Z</time>
      </trkpt>
      <trkpt lat="40.283041" lon="-1.223292">
        <ele>1193.107</ele>
        <time>2015-02-19T14:05:29Z</time>
      </trkpt>
      <trkpt lat="40.283029" lon="-1.223289">
        <ele>1194.145</ele>
        <time>2015-02-19T14:05:49Z</time>
      </trkpt>
      <trkpt lat="40.283018" lon="-1.223277">
        <ele>1194.185</ele>
        <time>2015-02-19T14:06:09Z</time>
      </trkpt>
      <trkpt lat="40.283067" lon="-1.223309">
        <ele>1194.176</ele>
        <time>2015-02-19T14:06:29Z</time>
      </trkpt>
      <trkpt lat="40.283031" lon="-1.223300">
        <ele>1194.151</ele>
        <time>2015-02-19T14:06:49Z</time>
      </trkpt>
      <trkpt lat="40.283013" lon="-1.223280">
        <ele>1193.631</ele>
        <time>2015-02-19T14:07:09Z</time>
      </trkpt>
      <trkpt lat="40.283019" lon="-1.223277">
        <ele>1194.157</ele>
        <time>2015-02-19T14:07:29Z</time>
      </trkpt>
      <trkpt lat="40.283028" lon="-1.223295">
        <ele>1194.668</ele>
        <time>2015-02-19T14:07:49Z</time>
      </trkpt>
      <trkpt lat="40.283033" lon="-1.223265">
        <ele>1194.166</ele>
        <time>2015-02-19T14:08:09Z</time>
      </trkpt>
      <trkpt lat="40.283127" lon="-1.223030">
        <ele>1194.129</ele>
        <time>2015-02-19T14:08:29Z</time>
      </trkpt>
      <trkpt lat="40.283156" lon="-1.222998">
        <ele>1194.121</ele>
        <time>2015-02-19T14:08:49Z</time>
      </trkpt>
      <trkpt lat="40.283427" lon="-1.222512">
        <ele>1193.607</ele>
        <time>2015-02-19T14:09:09Z</time>
      </trkpt>
      <trkpt lat="40.283477" lon="-1.222356">
        <ele>1193.144</ele>
        <time>2015-02-19T14:09:29Z</time>
      </trkpt>
      <trkpt lat="40.283590" lon="-1.221962">
        <ele>1192.744</ele>
        <time>2015-02-19T14:09:49Z</time>
      </trkpt>
      <trkpt lat="40.283619" lon="-1.221908">
        <ele>1194.165</ele>
        <time>2015-02-19T14:10:09Z</time>
      </trkpt>
      <trkpt lat="40.283653" lon="-1.221859">
        <ele>1194.150</ele>
        <time>2015-02-19T14:10:29Z</time>
      </trkpt>
      <trkpt lat="40.283692" lon="-1.221822">
        <ele>1193.620</ele>
        <time>2015-02-19T14:10:49Z</time>
      </trkpt>
      <trkpt lat="40.283734" lon="-1.221791">
        <ele>1193.686</ele>
        <time>2015-02-19T14:11:09Z</time>
      </trkpt>
      <trkpt lat="40.283775" lon="-1.221764">
        <ele>1193.667</ele>
        <time>2015-02-19T14:11:29Z</time>
      </trkpt>
      <trkpt lat="40.283858" lon="-1.221712">
        <ele>1193.684</ele>
        <time>2015-02-19T14:11:49Z</time>
      </trkpt>
      <trkpt lat="40.283995" lon="-1.221624">
        <ele>1193.107</ele>
        <time>2015-02-19T14:12:09Z</time>
      </trkpt>
      <trkpt lat="40.284036" lon="-1.221583">
        <ele>1193.117</ele>
        <time>2015-02-19T14:12:29Z</time>
      </trkpt>
      <trkpt lat="40.284072" lon="-1.221531">
        <ele>1193.107</ele>
        <time>2015-02-19T14:12:49Z</time>
      </trkpt>
      <trkpt lat="40.284099" lon="-1.221466">
        <ele>1192.736</ele>
        <time>2015-02-19T14:13:09Z</time>
      </trkpt>
      <trkpt lat="40.284112" lon="-1.221402">
        <ele>1192.756</ele>
        <time>2015-02-19T14:13:29Z</time>
      </trkpt>
      <trkpt lat="40.284115" lon="-1.221335">
        <ele>1192.777</ele>
        <time>2015-02-19T14:13:49Z</time>
      </trkpt>
      <trkpt lat="40.284112" lon="-1.221269">
        <ele>1192.712</ele>
        <time>2015-02-19T14:14:09Z</time>
      </trkpt>
      <trkpt lat="40.284103" lon="-1.221204">
        <ele>1193.132</ele>
        <time>2015-02-19T14:14:29Z</time>
      </trkpt>
      <trkpt lat="40.284103" lon="-1.221138">
        <ele>1192.728</ele>
        <time>2015-02-19T14:14:49Z</time>
      </trkpt>
      <trkpt lat="40.284109" lon="-1.221074">
        <ele>1193.149</ele>
        <time>2015-02-19T14:15:09Z</time>
      </trkpt>
      <trkpt lat="40.284119" lon="-1.221008">
        <ele>1193.126</ele>
        <time>2015-02-19T14:15:29Z</time>
      </trkpt>
      <trkpt lat="40.284134" lon="-1.220945">
        <ele>1193.147</ele>
        <time>2015-02-19T14:15:49Z</time>
      </trkpt>
      <trkpt lat="40.284153" lon="-1.220881">
        <ele>1193.111</ele>
        <time>2015-02-19T14:16:09Z</time>
      </trkpt>
      <trkpt lat="40.284176" lon="-1.220812">
        <ele>1193.607</ele>
        <time>2015-02-19T14:16:29Z</time>
      </trkpt>
      <trkpt lat="40.284239" lon="-1.220595">
        <ele>1192.780</ele>
        <time>2015-02-19T14:16:49Z</time>
      </trkpt>
      <trkpt lat="40.284364" lon="-1.219602">
        <ele>1192.720</ele>
        <time>2015-02-19T14:17:09Z</time>
      </trkpt>
      <trkpt lat="40.284403" lon="-1.219458">
        <ele>1193.191</ele>
        <time>2015-02-19T14:17:29Z</time>
      </trkpt>
      <trkpt lat="40.284429" lon="-1.219384">
        <ele>1193.186</ele>
        <time>2015-02-19T14:17:49Z</time>
      </trkpt>
      <trkpt lat="40.284656" lon="-1.218578">
        <ele>1189.846</ele>
        <time>2015-02-19T14:18:09Z</time>
      </trkpt>
      <trkpt lat="40.284806" lon="-1.217824">
        <ele>1185.972</ele>
        <time>2015-02-19T14:18:29Z</time>
      </trkpt>
      <trkpt lat="40.284824" lon="-1.217724">
        <ele>1185.023</ele>
        <time>2015-02-19T14:18:49Z</time>
      </trkpt>
      <trkpt lat="40.284907" lon="-1.217354">
        <ele>1184.061</ele>
        <time>2015-02-19T14:19:09Z</time>
      </trkpt>
      <trkpt lat="40.284912" lon="-1.217273">
        <ele>1183.021</ele>
        <time>2015-02-19T14:19:29Z</time>
      </trkpt>
      <trkpt lat="40.284909" lon="-1.217200">
        <ele>1183.013</ele>
        <time>2015-02-19T14:19:49Z</time>
      </trkpt>
      <trkpt lat="40.284907" lon="-1.217126">
        <ele>1183.007</ele>
        <time>2015-02-19T14:20:09Z</time>
      </trkpt>
      <trkpt lat="40.284910" lon="-1.217051">
        <ele>1183.584</ele>
        <time>2015-02-19T14:20:29Z</time>
      </trkpt>
      <trkpt lat="40.284915" lon="-1.216976">
        <ele>1184.564</ele>
        <time>2015-02-19T14:20:49Z</time>
      </trkpt>
      <trkpt lat="40.284927" lon="-1.216900">
        <ele>1184.075</ele>
        <time>2015-02-19T14:21:09Z</time>
      </trkpt>
      <trkpt lat="40.284943" lon="-1.216823">
        <ele>1185.020</ele>
        <time>2015-02-19T14:21:29Z</time>
      </trkpt>
      <trkpt lat="40.284964" lon="-1.216747">
        <ele>1185.070</ele>
        <time>2015-02-19T14:21:49Z</time>
      </trkpt>
      <trkpt lat="40.284991" lon="-1.216671">
        <ele>1184.596</ele>
        <time>2015-02-19T14:22:09Z</time>
      </trkpt>
      <trkpt lat="40.285162" lon="-1.216202">
        <ele>1184.017</ele>
        <time>2015-02-19T14:22:29Z</time>
      </trkpt>
      <trkpt lat="40.285162" lon="-1.216120">
        <ele>1183.513</ele>
        <time>2015-02-19T14:22:49Z</time>
      </trkpt>
      <trkpt lat="40.285160" lon="-1.216038">
        <ele>1183.043</ele>
        <time>2015-02-19T14:23:09Z</time>
      </trkpt>
      <trkpt lat="40.285162" lon="-1.215957">
        <ele>1184.007</ele>
        <time>2015-02-19T14:23:29Z</time>
      </trkpt>
      <trkpt lat="40.285168" lon="-1.215876">
        <ele>1185.007</ele>
        <time>2015-02-19T14:23:49Z</time>
      </trkpt>
      <trkpt lat="40.285174" lon="-1.215797">
        <ele>1185.099</ele>
        <time>2015-02-19T14:24:09Z</time>
      </trkpt>
      <trkpt lat="40.285183" lon="-1.215650">
        <ele>1184.519</ele>
        <time>2015-02-19T14:24:29Z</time>
      </trkpt>
      <trkpt lat="40.285170" lon="-1.215220">
        <ele>1184.090</ele>
        <time>2015-02-19T14:24:49Z</time>
      </trkpt>
      <trkpt lat="40.285158" lon="-1.215144">
        <ele>1183.575</ele>
        <time>2015-02-19T14:25:09Z</time>
      </trkpt>
      <trkpt lat="40.285150" lon="-1.215064">
        <ele>1183.525</ele>
        <time>2015-02-19T14:25:29Z</time>
      </trkpt>
      <trkpt lat="40.285151" lon="-1.214980">
        <ele>1184.051</ele>
        <time>2015-02-19T14:25:49Z</time>
      </trkpt>
      <trkpt lat="40.285162" lon="-1.214897">
        <ele>1184.032</ele>
        <time>2015-02-19T14:26:09Z</time>
      </trkpt>
      <trkpt lat="40.285183" lon="-1.214817">
        <ele>1184.039</ele>
        <time>2015-02-19T14:26:29Z</time>
      </trkpt>
      <trkpt lat="40.285210" lon="-1.214738">
        <ele>1183.501</ele>
        <time>2015-02-19T14:26:49Z</time>
      </trkpt>
      <trkpt lat="40.285263" lon="-1.214563">
        <ele>1181.621</ele>
        <time>2015-02-19T14:27:09Z</time>
      </trkpt>
      <trkpt lat="40.285281" lon="-1.214461">
        <ele>1180.607</ele>
        <time>2015-02-19T14:27:29Z</time>
      </trkpt>
      <trkpt lat="40.285301" lon="-1.214352">
        <ele>1180.241</ele>
        <time>2015-02-19T14:27:49Z</time>
      </trkpt>
      <trkpt lat="40.285329" lon="-1.214240">
        <ele>1179.251</ele>
        <time>2015-02-19T14:28:09Z</time>
      </trkpt>
      <trkpt lat="40.285363" lon="-1.214125">
        <ele>1178.212</ele>
        <time>2015-02-19T14:28:29Z</time>
      </trkpt>
      <trkpt lat="40.285397" lon="-1.214005">
        <ele>1176.857</ele>
        <time>2015-02-19T14:28:49Z</time>
      </trkpt>
      <trkpt lat="40.285425" lon="-1.213882">
        <ele>1176.827</ele>
        <time>2015-02-19T14:29:09Z</time>
      </trkpt>
      <trkpt lat="40.285508" lon="-1.213513">
        <ele>1175.313</ele>
        <time>2015-02-19T14:29:29Z</time>
      </trkpt>
      <trkpt lat="40.285583" lon="-1.213274">
        <ele>1173.484</ele>
        <time>2015-02-19T14:29:49Z</time>
      </trkpt>
      <trkpt lat="40.285634" lon="-1.213160">
        <ele>1173.449</ele>
        <time>2015-02-19T14:30:09Z</time>
      </trkpt>
      <trkpt lat="40.285691" lon="-1.213055">
        <ele>1172.902</ele>
        <time>2015-02-19T14:30:29Z</time>
      </trkpt>
      <trkpt lat="40.285867" lon="-1.212764">
        <ele>1172.022</ele>
        <time>2015-02-19T14:30:49Z</time>
      </trkpt>
      <trkpt lat="40.285908" lon="-1.212664">
        <ele>1171.007</ele>
        <time>2015-02-19T14:31:09Z</time>
      </trkpt>
      <trkpt lat="40.285928" lon="-1.212561">
        <ele>1170.172</ele>
        <time>2015-02-19T14:31:29Z</time>
      </trkpt>
      <trkpt lat="40.285923" lon="-1.212463">
        <ele>1169.692</ele>
        <time>2015-02-19T14:31:49Z</time>
      </trkpt>
      <trkpt lat="40.285897" lon="-1.212375">
        <ele>1168.643</ele>
        <time>2015-02-19T14:32:09Z</time>
      </trkpt>
      <trkpt lat="40.285862" lon="-1.212295">
        <ele>1168.138</ele>
        <time>2015-02-19T14:32:29Z</time>
      </trkpt>
      <trkpt lat="40.285824" lon="-1.212217">
        <ele>1169.188</ele>
        <time>2015-02-19T14:32:49Z</time>
      </trkpt>
      <trkpt lat="40.285791" lon="-1.212141">
        <ele>1169.124</ele>
        <time>2015-02-19T14:33:09Z</time>
      </trkpt>
      <trkpt lat="40.285765" lon="-1.212063">
        <ele>1169.185</ele>
        <time>2015-02-19T14:33:29Z</time>
      </trkpt>
      <trkpt lat="40.285746" lon="-1.211987">
        <ele>1169.663</ele>
        <time>2015-02-19T14:33:49Z</time>
      </trkpt>
      <trkpt lat="40.285730" lon="-1.211916">
        <ele>1169.144</ele>
        <time>2015-02-19T14:34:09Z</time>
      </trkpt>
      <trkpt lat="40.285713" lon="-1.211850">
        <ele>1169.118</ele>
        <time>2015-02-19T14:34:29Z</time>
      </trkpt>
      <trkpt lat="40.285699" lon="-1.211783">
        <ele>1169.107</ele>
        <time>2015-02-19T14:34:49Z</time>
      </trkpt>
      <trkpt lat="40.285578" lon="-1.210510">
        <ele>1167.784</ele>
        <time>2015-02-19T14:35:09Z</time>
      </trkpt>
      <trkpt lat="40.285372" lon="-1.209478">
        <ele>1164.324</ele>
        <time>2015-02-19T14:35:29Z</time>
      </trkpt>
      <trkpt lat="40.285324" lon="-1.209243">
        <ele>1162.815</ele>
        <time>2015-02-19T14:35:49Z</time>
      </trkpt>
      <trkpt lat="40.285231" lon="-1.208727">
        <ele>1159.050</ele>
        <time>2015-02-19T14:36:09Z</time>
      </trkpt>
      <trkpt lat="40.285199" lon="-1.208590">
        <ele>1159.050</ele>
        <time>2015-02-19T14:36:29Z</time>
      </trkpt>
      <trkpt lat="40.285029" lon="-1.207899">
        <ele>1156.156</ele>
        <time>2015-02-19T14:36:49Z</time>
      </trkpt>
      <trkpt lat="40.284994" lon="-1.207771">
        <ele>1155.267</ele>
        <time>2015-02-19T14:37:09Z</time>
      </trkpt>
      <trkpt lat="40.284952" lon="-1.207646">
        <ele>1154.721</ele>
        <time>2015-02-19T14:37:29Z</time>
      </trkpt>
      <trkpt lat="40.284829" lon="-1.207262">
        <ele>1152.341</ele>
        <time>2015-02-19T14:37:49Z</time>
      </trkpt>
      <trkpt lat="40.284812" lon="-1.207132">
        <ele>1151.305</ele>
        <time>2015-02-19T14:38:09Z</time>
      </trkpt>
      <trkpt lat="40.284808" lon="-1.207000">
        <ele>1151.807</ele>
        <time>2015-02-19T14:38:29Z</time>
      </trkpt>
      <trkpt lat="40.284815" lon="-1.206588">
        <ele>1148.960</ele>
        <time>2015-02-19T14:38:49Z</time>
      </trkpt>
      <trkpt lat="40.284799" lon="-1.206446">
        <ele>1147.980</ele>
        <time>2015-02-19T14:39:09Z</time>
      </trkpt>
      <trkpt lat="40.284767" lon="-1.206305">
        <ele>1146.521</ele>
        <time>2015-02-19T14:39:29Z</time>
      </trkpt>
      <trkpt lat="40.284640" lon="-1.205877">
        <ele>1143.176</ele>
        <time>2015-02-19T14:39:49Z</time>
      </trkpt>
      <trkpt lat="40.284583" lon="-1.205738">
        <ele>1142.276</ele>
        <time>2015-02-19T14:40:09Z</time>
      </trkpt>
      <trkpt lat="40.284481" lon="-1.205493">
        <ele>1140.342</ele>
        <time>2015-02-19T14:40:29Z</time>
      </trkpt>
      <trkpt lat="40.284453" lon="-1.205385">
        <ele>1138.853</ele>
        <time>2015-02-19T14:40:49Z</time>
      </trkpt>
      <trkpt lat="40.284435" lon="-1.205276">
        <ele>1138.834</ele>
        <time>2015-02-19T14:41:09Z</time>
      </trkpt>
      <trkpt lat="40.284412" lon="-1.205166">
        <ele>1137.955</ele>
        <time>2015-02-19T14:41:29Z</time>
      </trkpt>
      <trkpt lat="40.284374" lon="-1.205058">
        <ele>1137.410</ele>
        <time>2015-02-19T14:41:49Z</time>
      </trkpt>
      <trkpt lat="40.284318" lon="-1.204957">
        <ele>1136.407</ele>
        <time>2015-02-19T14:42:09Z</time>
      </trkpt>
      <trkpt lat="40.284249" lon="-1.204875">
        <ele>1135.411</ele>
        <time>2015-02-19T14:42:29Z</time>
      </trkpt>
      <trkpt lat="40.284175" lon="-1.204810">
        <ele>1135.461</ele>
        <time>2015-02-19T14:42:49Z</time>
      </trkpt>
      <trkpt lat="40.283793" lon="-1.204378">
        <ele>1135.022</ele>
        <time>2015-02-19T14:43:09Z</time>
      </trkpt>
      <trkpt lat="40.283765" lon="-1.204300">
        <ele>1135.447</ele>
        <time>2015-02-19T14:43:29Z</time>
      </trkpt>
      <trkpt lat="40.283753" lon="-1.204211">
        <ele>1134.557</ele>
        <time>2015-02-19T14:43:49Z</time>
      </trkpt>
      <trkpt lat="40.283756" lon="-1.204023">
        <ele>1134.513</ele>
        <time>2015-02-19T14:44:09Z</time>
      </trkpt>
      <trkpt lat="40.283778" lon="-1.203817">
        <ele>1132.614</ele>
        <time>2015-02-19T14:44:29Z</time>
      </trkpt>
      <trkpt lat="40.283826" lon="-1.203247">
        <ele>1131.162</ele>
        <time>2015-02-19T14:44:49Z</time>
      </trkpt>
      <trkpt lat="40.283810" lon="-1.203124">
        <ele>1130.283</ele>
        <time>2015-02-19T14:45:09Z</time>
      </trkpt>
      <trkpt lat="40.283778" lon="-1.203005">
        <ele>1129.211</ele>
        <time>2015-02-19T14:45:29Z</time>
      </trkpt>
      <trkpt lat="40.283660" lon="-1.202657">
        <ele>1127.307</ele>
        <time>2015-02-19T14:45:49Z</time>
      </trkpt>
      <trkpt lat="40.283635" lon="-1.202538">
        <ele>1126.814</ele>
        <time>2015-02-19T14:46:09Z</time>
      </trkpt>
      <trkpt lat="40.283591" lon="-1.202161">
        <ele>1124.954</ele>
        <time>2015-02-19T14:46:29Z</time>
      </trkpt>
      <trkpt lat="40.283592" lon="-1.202027">
        <ele>1124.995</ele>
        <time>2015-02-19T14:46:49Z</time>
      </trkpt>
      <trkpt lat="40.283600" lon="-1.201895">
        <ele>1123.970</ele>
        <time>2015-02-19T14:47:09Z</time>
      </trkpt>
      <trkpt lat="40.283616" lon="-1.201767">
        <ele>1123.470</ele>
        <time>2015-02-19T14:47:29Z</time>
      </trkpt>
      <trkpt lat="40.283638" lon="-1.201643">
        <ele>1123.426</ele>
        <time>2015-02-19T14:47:49Z</time>
      </trkpt>
      <trkpt lat="40.283667" lon="-1.201523">
        <ele>1123.457</ele>
        <time>2015-02-19T14:48:09Z</time>
      </trkpt>
      <trkpt lat="40.283697" lon="-1.201406">
        <ele>1122.068</ele>
        <time>2015-02-19T14:48:29Z</time>
      </trkpt>
      <trkpt lat="40.283727" lon="-1.201288">
        <ele>1122.042</ele>
        <time>2015-02-19T14:48:49Z</time>
      </trkpt>
      <trkpt lat="40.283948" lon="-1.200205">
        <ele>1120.126</ele>
        <time>2015-02-19T14:49:09Z</time>
      </trkpt>
      <trkpt lat="40.284095" lon="-1.199352">
        <ele>1115.807</ele>
        <time>2015-02-19T14:49:29Z</time>
      </trkpt>
      <trkpt lat="40.284129" lon="-1.199241">
        <ele>1115.894</ele>
        <time>2015-02-19T14:49:49Z</time>
      </trkpt>
      <trkpt lat="40.284173" lon="-1.199140">
        <ele>1115.844</ele>
        <time>2015-02-19T14:50:09Z</time>
      </trkpt>
      <trkpt lat="40.284224" lon="-1.199051">
        <ele>1116.295</ele>
        <time>2015-02-19T14:50:29Z</time>
      </trkpt>
      <trkpt lat="40.284278" lon="-1.198971">
        <ele>1116.250</ele>
        <time>2015-02-19T14:50:49Z</time>
      </trkpt>
      <trkpt lat="40.284471" lon="-1.198595">
        <ele>1114.340</ele>
        <time>2015-02-19T14:51:09Z</time>
      </trkpt>
      <trkpt lat="40.284491" lon="-1.198513">
        <ele>1114.346</ele>
        <time>2015-02-19T14:51:29Z</time>
      </trkpt>
      <trkpt lat="40.284504" lon="-1.198427">
        <ele>1113.827</ele>
        <time>2015-02-19T14:51:49Z</time>
      </trkpt>
      <trkpt lat="40.284503" lon="-1.198338">
        <ele>1113.372</ele>
        <time>2015-02-19T14:52:09Z</time>
      </trkpt>
      <trkpt lat="40.284494" lon="-1.198246">
        <ele>1113.813</ele>
        <time>2015-02-19T14:52:29Z</time>
      </trkpt>
      <trkpt lat="40.284470" lon="-1.197942">
        <ele>1112.414</ele>
        <time>2015-02-19T14:52:49Z</time>
      </trkpt>
      <trkpt lat="40.284472" lon="-1.197836">
        <ele>1112.407</ele>
        <time>2015-02-19T14:53:09Z</time>
      </trkpt>
      <trkpt lat="40.284480" lon="-1.197730">
        <ele>1111.465</ele>
        <time>2015-02-19T14:53:29Z</time>
      </trkpt>
      <trkpt lat="40.284535" lon="-1.197305">
        <ele>1110.565</ele>
        <time>2015-02-19T14:53:49Z</time>
      </trkpt>
      <trkpt lat="40.284541" lon="-1.197200">
        <ele>1110.096</ele>
        <time>2015-02-19T14:54:09Z</time>
      </trkpt>
      <trkpt lat="40.284540" lon="-1.197099">
        <ele>1110.081</ele>
        <time>2015-02-19T14:54:29Z</time>
      </trkpt>
      <trkpt lat="40.284491" lon="-1.196680">
        <ele>1107.141</ele>
        <time>2015-02-19T14:54:49Z</time>
      </trkpt>
      <trkpt lat="40.284441" lon="-1.196088">
        <ele>1105.297</ele>
        <time>2015-02-19T14:55:09Z</time>
      </trkpt>
      <trkpt lat="40.284437" lon="-1.195975">
        <ele>1103.768</ele>
        <time>2015-02-19T14:55:29Z</time>
      </trkpt>
      <trkpt lat="40.284446" lon="-1.195867">
        <ele>1103.774</ele>
        <time>2015-02-19T14:55:49Z</time>
      </trkpt>
      <trkpt lat="40.284468" lon="-1.195766">
        <ele>1103.256</ele>
        <time>2015-02-19T14:56:09Z</time>
      </trkpt>
      <trkpt lat="40.284500" lon="-1.195673">
        <ele>1102.821</ele>
        <time>2015-02-19T14:56:29Z</time>
      </trkpt>
      <trkpt lat="40.284536" lon="-1.195579">
        <ele>1101.307</ele>
        <time>2015-02-19T14:56:49Z</time>
      </trkpt>
      <trkpt lat="40.284618" lon="-1.195385">
        <ele>1099.935</ele>
        <time>2015-02-19T14:57:09Z</time>
      </trkpt>
      <trkpt lat="40.284697" lon="-1.195187">
        <ele>1098.475</ele>
        <time>2015-02-19T14:57:29Z</time>
      </trkpt>
      <trkpt lat="40.284770" lon="-1.194990">
        <ele>1098.046</ele>
        <time>2015-02-19T14:57:49Z</time>
      </trkpt>
      <trkpt lat="40.284779" lon="-1.194882">
        <ele>1097.021</ele>
        <time>2015-02-19T14:58:09Z</time>
      </trkpt>
      <trkpt lat="40.284769" lon="-1.194772">
        <ele>1096.021</ele>
        <time>2015-02-19T14:58:29Z</time>
      </trkpt>
      <trkpt lat="40.284747" lon="-1.194662">
        <ele>1095.667</ele>
        <time>2015-02-19T14:58:49Z</time>
      </trkpt>
      <trkpt lat="40.284714" lon="-1.194551">
        <ele>1094.648</ele>
        <time>2015-02-19T14:59:09Z</time>
      </trkpt>
      <trkpt lat="40.284675" lon="-1.194437">
        <ele>1094.151</ele>
        <time>2015-02-19T14:59:29Z</time>
      </trkpt>
      <trkpt lat="40.284502" lon="-1.193827">
        <ele>1090.801</ele>
        <time>2015-02-19T14:59:49Z</time>
      </trkpt>
      <trkpt lat="40.284370" lon="-1.193289">
        <ele>1086.911</ele>
        <time>2015-02-19T15:00:09Z</time>
      </trkpt>
      <trkpt lat="40.284211" lon="-1.192795">
        <ele>1084.007</ele>
        <time>2015-02-19T15:00:29Z</time>
      </trkpt>
      <trkpt lat="40.284192" lon="-1.192709">
        <ele>1083.123</ele>
        <time>2015-02-19T15:00:49Z</time>
      </trkpt>
      <trkpt lat="40.284193" lon="-1.192632">
        <ele>1082.143</ele>
        <time>2015-02-19T15:01:09Z</time>
      </trkpt>
      <trkpt lat="40.284205" lon="-1.192565">
        <ele>1082.184</ele>
        <time>2015-02-19T15:01:29Z</time>
      </trkpt>
      <trkpt lat="40.284222" lon="-1.192519">
        <ele>1081.169</ele>
        <time>2015-02-19T15:01:49Z</time>
      </trkpt>
      <trkpt lat="40.284241" lon="-1.192490">
        <ele>1080.239</ele>
        <time>2015-02-19T15:02:09Z</time>
      </trkpt>
      <trkpt lat="40.284258" lon="-1.192475">
        <ele>1080.295</ele>
        <time>2015-02-19T15:02:29Z</time>
      </trkpt>
      <trkpt lat="40.284273" lon="-1.192472">
        <ele>1079.736</ele>
        <time>2015-02-19T15:02:49Z</time>
      </trkpt>
      <trkpt lat="40.284292" lon="-1.192472">
        <ele>1079.738</ele>
        <time>2015-02-19T15:03:09Z</time>
      </trkpt>
      <trkpt lat="40.284514" lon="-1.192216">
        <ele>1078.370</ele>
        <time>2015-02-19T15:03:29Z</time>
      </trkpt>
      <trkpt lat="40.284518" lon="-1.192159">
        <ele>1077.817</ele>
        <time>2015-02-19T15:03:49Z</time>
      </trkpt>
      <trkpt lat="40.284514" lon="-1.192101">
        <ele>1077.807</ele>
        <time>2015-02-19T15:04:09Z</time>
      </trkpt>
      <trkpt lat="40.284491" lon="-1.191907">
        <ele>1076.331</ele>
        <time>2015-02-19T15:04:29Z</time>
      </trkpt>
      <trkpt lat="40.284486" lon="-1.191896">
        <ele>1075.811</ele>
        <time>2015-02-19T15:04:49Z</time>
      </trkpt>
      <trkpt lat="40.284474" lon="-1.191876">
        <ele>1076.312</ele>
        <time>2015-02-19T15:05:09Z</time>
      </trkpt>
      <trkpt lat="40.284463" lon="-1.191849">
        <ele>1075.877</ele>
        <time>2015-02-19T15:05:29Z</time>
      </trkpt>
      <trkpt lat="40.284456" lon="-1.191817">
        <ele>1076.327</ele>
        <time>2015-02-19T15:05:49Z</time>
      </trkpt>
      <trkpt lat="40.284463" lon="-1.191780">
        <ele>1075.853</ele>
        <time>2015-02-19T15:06:09Z</time>
      </trkpt>
      <trkpt lat="40.284476" lon="-1.191744">
        <ele>1076.324</ele>
        <time>2015-02-19T15:06:29Z</time>
      </trkpt>
      <trkpt lat="40.284490" lon="-1.191715">
        <ele>1076.324</ele>
        <time>2015-02-19T15:06:49Z</time>
      </trkpt>
      <trkpt lat="40.284656" lon="-1.191408">
        <ele>1077.304</ele>
        <time>2015-02-19T15:07:09Z</time>
      </trkpt>
      <trkpt lat="40.284715" lon="-1.191321">
        <ele>1077.314</ele>
        <time>2015-02-19T15:07:29Z</time>
      </trkpt>
      <trkpt lat="40.284750" lon="-1.191277">
        <ele>1076.807</ele>
        <time>2015-02-19T15:07:49Z</time>
      </trkpt>
      <trkpt lat="40.284786" lon="-1.191233">
        <ele>1076.890</ele>
        <time>2015-02-19T15:08:09Z</time>
      </trkpt>
      <trkpt lat="40.284860" lon="-1.191147">
        <ele>1075.850</ele>
        <time>2015-02-19T15:08:29Z</time>
      </trkpt>
      <trkpt lat="40.284892" lon="-1.191098">
        <ele>1076.331</ele>
        <time>2015-02-19T15:08:49Z</time>
      </trkpt>
      <trkpt lat="40.284996" lon="-1.190851">
        <ele>1073.926</ele>
        <time>2015-02-19T15:09:09Z</time>
      </trkpt>
      <trkpt lat="40.285012" lon="-1.190780">
        <ele>1073.026</ele>
        <time>2015-02-19T15:09:29Z</time>
      </trkpt>
      <trkpt lat="40.285027" lon="-1.190707">
        <ele>1073.442</ele>
        <time>2015-02-19T15:09:49Z</time>
      </trkpt>
      <trkpt lat="40.285032" lon="-1.190629">
        <ele>1073.473</ele>
        <time>2015-02-19T15:10:09Z</time>
      </trkpt>
      <trkpt lat="40.285024" lon="-1.190548">
        <ele>1072.041</ele>
        <time>2015-02-19T15:10:29Z</time>
      </trkpt>
      <trkpt lat="40.285012" lon="-1.190464">
        <ele>1072.081</ele>
        <time>2015-02-19T15:10:49Z</time>
      </trkpt>
      <trkpt lat="40.285007" lon="-1.190374">
        <ele>1071.509</ele>
        <time>2015-02-19T15:11:09Z</time>
      </trkpt>
      <trkpt lat="40.285008" lon="-1.190274">
        <ele>1070.607</ele>
        <time>2015-02-19T15:11:29Z</time>
      </trkpt>
      <trkpt lat="40.285012" lon="-1.190171">
        <ele>1069.112</ele>
        <time>2015-02-19T15:11:49Z</time>
      </trkpt>
      <trkpt lat="40.285006" lon="-1.190064">
        <ele>1067.242</ele>
        <time>2015-02-19T15:12:09Z</time>
      </trkpt>
      <trkpt lat="40.284982" lon="-1.189954">
        <ele>1067.263</ele>
        <time>2015-02-19T15:12:29Z</time>
      </trkpt>
      <trkpt lat="40.284938" lon="-1.189849">
        <ele>1065.338</ele>
        <time>2015-02-19T15:12:49Z</time>
      </trkpt>
      <trkpt lat="40.284881" lon="-1.189744">
        <ele>1065.878</ele>
        <time>2015-02-19T15:13:09Z</time>
      </trkpt>
      <trkpt lat="40.284787" lon="-1.189525">
        <ele>1064.324</ele>
        <time>2015-02-19T15:13:29Z</time>
      </trkpt>
      <trkpt lat="40.284753" lon="-1.189408">
        <ele>1063.855</ele>
        <time>2015-02-19T15:13:49Z</time>
      </trkpt>
      <trkpt lat="40.284738" lon="-1.189286">
        <ele>1063.432</ele>
        <time>2015-02-19T15:14:09Z</time>
      </trkpt>
      <trkpt lat="40.284736" lon="-1.189162">
        <ele>1063.492</ele>
        <time>2015-02-19T15:14:29Z</time>
      </trkpt>
      <trkpt lat="40.284746" lon="-1.189046">
        <ele>1062.911</ele>
        <time>2015-02-19T15:14:49Z</time>
      </trkpt>
      <trkpt lat="40.284762" lon="-1.188934">
        <ele>1062.907</ele>
        <time>2015-02-19T15:15:09Z</time>
      </trkpt>
      <trkpt lat="40.284781" lon="-1.188826">
        <ele>1061.951</ele>
        <time>2015-02-19T15:15:29Z</time>
      </trkpt>
      <trkpt lat="40.284789" lon="-1.188719">
        <ele>1061.991</ele>
        <time>2015-02-19T15:15:49Z</time>
      </trkpt>
      <trkpt lat="40.284790" lon="-1.188612">
        <ele>1061.472</ele>
        <time>2015-02-19T15:16:09Z</time>
      </trkpt>
      <trkpt lat="40.284799" lon="-1.188510">
        <ele>1060.947</ele>
        <time>2015-02-19T15:16:29Z</time>
      </trkpt>
      <trkpt lat="40.284829" lon="-1.188428">
        <ele>1061.467</ele>
        <time>2015-02-19T15:16:49Z</time>
      </trkpt>
      <trkpt lat="40.284883" lon="-1.188375">
        <ele>1060.913</ele>
        <time>2015-02-19T15:17:09Z</time>
      </trkpt>
      <trkpt lat="40.284946" lon="-1.188358">
        <ele>1060.994</ele>
        <time>2015-02-19T15:17:29Z</time>
      </trkpt>
      <trkpt lat="40.285009" lon="-1.188368">
        <ele>1061.495</ele>
        <time>2015-02-19T15:17:49Z</time>
      </trkpt>
      <trkpt lat="40.285071" lon="-1.188392">
        <ele>1061.449</ele>
        <time>2015-02-19T15:18:09Z</time>
      </trkpt>
      <trkpt lat="40.285133" lon="-1.188418">
        <ele>1061.423</ele>
        <time>2015-02-19T15:18:29Z</time>
      </trkpt>
      <trkpt lat="40.285198" lon="-1.188430">
        <ele>1061.407</ele>
        <time>2015-02-19T15:18:49Z</time>
      </trkpt>
      <trkpt lat="40.285265" lon="-1.188423">
        <ele>1061.967</ele>
        <time>2015-02-19T15:19:09Z</time>
      </trkpt>
      <trkpt lat="40.285327" lon="-1.188389">
        <ele>1061.937</ele>
        <time>2015-02-19T15:19:29Z</time>
      </trkpt>
      <trkpt lat="40.285379" lon="-1.188340">
        <ele>1062.458</ele>
        <time>2015-02-19T15:19:49Z</time>
      </trkpt>
      <trkpt lat="40.285421" lon="-1.188281">
        <ele>1062.413</ele>
        <time>2015-02-19T15:20:09Z</time>
      </trkpt>
      <trkpt lat="40.285458" lon="-1.188210">
        <ele>1062.483</ele>
        <time>2015-02-19T15:20:29Z</time>
      </trkpt>
      <trkpt lat="40.285492" lon="-1.188132">
        <ele>1062.459</ele>
        <time>2015-02-19T15:20:49Z</time>
      </trkpt>
      <trkpt lat="40.285532" lon="-1.188058">
        <ele>1062.430</ele>
        <time>2015-02-19T15:21:09Z</time>
      </trkpt>
      <trkpt lat="40.285581" lon="-1.188000">
        <ele>1061.948</ele>
        <time>2015-02-19T15:21:29Z</time>
      </trkpt>
      <trkpt lat="40.285632" lon="-1.187954">
        <ele>1061.961</ele>
        <time>2015-02-19T15:21:49Z</time>
      </trkpt>
      <trkpt lat="40.285684" lon="-1.187919">
        <ele>1062.917</ele>
        <time>2015-02-19T15:22:09Z</time>
      </trkpt>
      <trkpt lat="40.285735" lon="-1.187885">
        <ele>1061.907</ele>
        <time>2015-02-19T15:22:29Z</time>
      </trkpt>
      <trkpt lat="40.285782" lon="-1.187843">
        <ele>1062.422</ele>
        <time>2015-02-19T15:22:49Z</time>
      </trkpt>
      <trkpt lat="40.285824" lon="-1.187792">
        <ele>1061.942</ele>
        <time>2015-02-19T15:23:09Z</time>
      </trkpt>
      <trkpt lat="40.286314" lon="-1.187158">
        <ele>1058.693</ele>
        <time>2015-02-19T15:23:29Z</time>
      </trkpt>
      <trkpt lat="40.286364" lon="-1.187046">
        <ele>1058.158</ele>
        <time>2015-02-19T15:23:49Z</time>
      </trkpt>
      <trkpt lat="40.286502" lon="-1.186740">
        <ele>1056.678</ele>
        <time>2015-02-19T15:24:09Z</time>
      </trkpt>
      <trkpt lat="40.286582" lon="-1.186564">
        <ele>1056.674</ele>
        <time>2015-02-19T15:24:29Z</time>
      </trkpt>
      <trkpt lat="40.286614" lon="-1.186484">
        <ele>1057.155</ele>
        <time>2015-02-19T15:24:49Z</time>
      </trkpt>
      <trkpt lat="40.286649" lon="-1.186409">
        <ele>1056.661</ele>
        <time>2015-02-19T15:25:09Z</time>
      </trkpt>
      <trkpt lat="40.286695" lon="-1.186345">
        <ele>1056.221</ele>
        <time>2015-02-19T15:25:29Z</time>
      </trkpt>
      <trkpt lat="40.286754" lon="-1.186298">
        <ele>1055.213</ele>
        <time>2015-02-19T15:25:49Z</time>
      </trkpt>
      <trkpt lat="40.286820" lon="-1.186269">
        <ele>1054.707</ele>
        <time>2015-02-19T15:26:09Z</time>
      </trkpt>
      <trkpt lat="40.286889" lon="-1.186246">
        <ele>1054.774</ele>
        <time>2015-02-19T15:26:29Z</time>
      </trkpt>
      <trkpt lat="40.286955" lon="-1.186209">
        <ele>1054.224</ele>
        <time>2015-02-19T15:26:49Z</time>
      </trkpt>
      <trkpt lat="40.287006" lon="-1.186144">
        <ele>1053.365</ele>
        <time>2015-02-19T15:27:09Z</time>
      </trkpt>
      <trkpt lat="40.287041" lon="-1.186053">
        <ele>1053.380</ele>
        <time>2015-02-19T15:27:29Z</time>
      </trkpt>
      <trkpt lat="40.287058" lon="-1.185955">
        <ele>1051.830</ele>
        <time>2015-02-19T15:27:49Z</time>
      </trkpt>
      <trkpt lat="40.287064" lon="-1.185857">
        <ele>1051.836</ele>
        <time>2015-02-19T15:28:09Z</time>
      </trkpt>
      <trkpt lat="40.287059" lon="-1.185761">
        <ele>1052.387</ele>
        <time>2015-02-19T15:28:29Z</time>
      </trkpt>
      <trkpt lat="40.287050" lon="-1.185666">
        <ele>1051.836</ele>
        <time>2015-02-19T15:28:49Z</time>
      </trkpt>
      <trkpt lat="40.287035" lon="-1.185570">
        <ele>1050.917</ele>
        <time>2015-02-19T15:29:09Z</time>
      </trkpt>
      <trkpt lat="40.287010" lon="-1.185474">
        <ele>1050.418</ele>
        <time>2015-02-19T15:29:29Z</time>
      </trkpt>
      <trkpt lat="40.286974" lon="-1.185378">
        <ele>1049.907</ele>
        <time>2015-02-19T15:29:49Z</time>
      </trkpt>
      <trkpt lat="40.286941" lon="-1.185276">
        <ele>1049.411</ele>
        <time>2015-02-19T15:30:09Z</time>
      </trkpt>
      <trkpt lat="40.286917" lon="-1.185162">
        <ele>1048.081</ele>
        <time>2015-02-19T15:30:29Z</time>
      </trkpt>
      <trkpt lat="40.286907" lon="-1.185038">
        <ele>1047.512</ele>
        <time>2015-02-19T15:30:49Z</time>
      </trkpt>
      <trkpt lat="40.286918" lon="-1.184913">
        <ele>1046.597</ele>
        <time>2015-02-19T15:31:09Z</time>
      </trkpt>
      <trkpt lat="40.286948" lon="-1.184790">
        <ele>1045.637</ele>
        <time>2015-02-19T15:31:29Z</time>
      </trkpt>
      <trkpt lat="40.286994" lon="-1.184668">
        <ele>1043.713</ele>
        <time>2015-02-19T15:31:49Z</time>
      </trkpt>
      <trkpt lat="40.287043" lon="-1.184540">
        <ele>1042.264</ele>
        <time>2015-02-19T15:32:09Z</time>
      </trkpt>
      <trkpt lat="40.287085" lon="-1.184425">
        <ele>1040.878</ele>
        <time>2015-02-19T15:32:29Z</time>
      </trkpt>
      <trkpt lat="40.287128" lon="-1.184334">
        <ele>1039.833</ele>
        <time>2015-02-19T15:32:49Z</time>
      </trkpt>
      <trkpt lat="40.287187" lon="-1.184266">
        <ele>1039.326</ele>
        <time>2015-02-19T15:33:09Z</time>
      </trkpt>
      <trkpt lat="40.287263" lon="-1.184229">
        <ele>1038.807</ele>
        <time>2015-02-19T15:33:29Z</time>
      </trkpt>
      <trkpt lat="40.287350" lon="-1.184207">
        <ele>1038.485</ele>
        <time>2015-02-19T15:33:49Z</time>
      </trkpt>
      <trkpt lat="40.287443" lon="-1.184179">
        <ele>1037.985</ele>
        <time>2015-02-19T15:34:09Z</time>
      </trkpt>
      <trkpt lat="40.287539" lon="-1.184142">
        <ele>1036.486</ele>
        <time>2015-02-19T15:34:29Z</time>
      </trkpt>
      <trkpt lat="40.287630" lon="-1.184078">
        <ele>1036.061</ele>
        <time>2015-02-19T15:34:49Z</time>
      </trkpt>
      <trkpt lat="40.287711" lon="-1.183989">
        <ele>1034.081</ele>
        <time>2015-02-19T15:35:09Z</time>
      </trkpt>
      <trkpt lat="40.287786" lon="-1.183890">
        <ele>1034.047</ele>
        <time>2015-02-19T15:35:29Z</time>
      </trkpt>
      <trkpt lat="40.287862" lon="-1.183798">
        <ele>1033.188</ele>
        <time>2015-02-19T15:35:49Z</time>
      </trkpt>
      <trkpt lat="40.287944" lon="-1.183728">
        <ele>1032.188</ele>
        <time>2015-02-19T15:36:09Z</time>
      </trkpt>
      <trkpt lat="40.288034" lon="-1.183668">
        <ele>1029.724</ele>
        <time>2015-02-19T15:36:29Z</time>
      </trkpt>
      <trkpt lat="40.288130" lon="-1.183610">
        <ele>1028.826</ele>
        <time>2015-02-19T15:36:49Z</time>
      </trkpt>
      <trkpt lat="40.288222" lon="-1.183563">
        <ele>1027.807</ele>
        <time>2015-02-19T15:37:09Z</time>
      </trkpt>
      <trkpt lat="40.288316" lon="-1.183537">
        <ele>1026.886</ele>
        <time>2015-02-19T15:37:29Z</time>
      </trkpt>
      <trkpt lat="40.288415" lon="-1.183527">
        <ele>1025.956</ele>
        <time>2015-02-19T15:37:49Z</time>
      </trkpt>
      <trkpt lat="40.288516" lon="-1.183516">
        <ele>1023.947</ele>
        <time>2015-02-19T15:38:09Z</time>
      </trkpt>
      <trkpt lat="40.288619" lon="-1.183495">
        <ele>1023.522</ele>
        <time>2015-02-19T15:38:29Z</time>
      </trkpt>
      <trkpt lat="40.288840" lon="-1.183449">
        <ele>1020.162</ele>
        <time>2015-02-19T15:38:49Z</time>
      </trkpt>
      <trkpt lat="40.289072" lon="-1.183390">
        <ele>1016.768</ele>
        <time>2015-02-19T15:39:09Z</time>
      </trkpt>
      <trkpt lat="40.289178" lon="-1.183337">
        <ele>1015.849</ele>
        <time>2015-02-19T15:39:29Z</time>
      </trkpt>
      <trkpt lat="40.289382" lon="-1.183232">
        <ele>1012.466</ele>
        <time>2015-02-19T15:39:49Z</time>
      </trkpt>
      <trkpt lat="40.289479" lon="-1.183192">
        <ele>1011.429</ele>
        <time>2015-02-19T15:40:09Z</time>
      </trkpt>
      <trkpt lat="40.289566" lon="-1.183134">
        <ele>1010.521</ele>
        <time>2015-02-19T15:40:29Z</time>
      </trkpt>
      <trkpt lat="40.289646" lon="-1.183058">
        <ele>1008.607</ele>
        <time>2015-02-19T15:40:49Z</time>
      </trkpt>
      <trkpt lat="40.289717" lon="-1.182962">
        <ele>1007.664</ele>
        <time>2015-02-19T15:41:09Z</time>
      </trkpt>
      <trkpt lat="40.289780" lon="-1.182854">
        <ele>1006.244</ele>
        <time>2015-02-19T15:41:29Z</time>
      </trkpt>
      <trkpt lat="40.289835" lon="-1.182745">
        <ele>1004.785</ele>
        <time>2015-02-19T15:41:49Z</time>
      </trkpt>
      <trkpt lat="40.289933" lon="-1.182531">
        <ele>1001.360</ele>
        <time>2015-02-19T15:42:09Z</time>
      </trkpt>
      <trkpt lat="40.290031" lon="-1.182312">
        <ele>999.010</ele>
        <time>2015-02-19T15:42:29Z</time>
      </trkpt>
      <trkpt lat="40.290150" lon="-1.181991">
        <ele>994.646</ele>
        <time>2015-02-19T15:42:49Z</time>
      </trkpt>
      <trkpt lat="40.290287" lon="-1.181600">
        <ele>991.327</ele>
        <time>2015-02-19T15:43:09Z</time>
      </trkpt>
      <trkpt lat="40.290327" lon="-1.181459">
        <ele>991.359</ele>
        <time>2015-02-19T15:43:29Z</time>
      </trkpt>
      <trkpt lat="40.290473" lon="-1.181047">
        <ele>987.903</ele>
        <time>2015-02-19T15:43:49Z</time>
      </trkpt>
      <trkpt lat="40.290628" lon="-1.180662">
        <ele>983.623</ele>
        <time>2015-02-19T15:44:09Z</time>
      </trkpt>
      <trkpt lat="40.290692" lon="-1.180548">
        <ele>982.607</ele>
        <time>2015-02-19T15:44:29Z</time>
      </trkpt>
      <trkpt lat="40.290762" lon="-1.180442">
        <ele>982.633</ele>
        <time>2015-02-19T15:44:49Z</time>
      </trkpt>
      <trkpt lat="40.291019" lon="-1.180004">
        <ele>979.283</ele>
        <time>2015-02-19T15:45:09Z</time>
      </trkpt>
      <trkpt lat="40.291213" lon="-1.179708">
        <ele>974.974</ele>
        <time>2015-02-19T15:45:29Z</time>
      </trkpt>
      <trkpt lat="40.291295" lon="-1.179522">
        <ele>971.589</ele>
        <time>2015-02-19T15:45:49Z</time>
      </trkpt>
      <trkpt lat="40.291318" lon="-1.179422">
        <ele>969.619</ele>
        <time>2015-02-19T15:46:09Z</time>
      </trkpt>
      <trkpt lat="40.291323" lon="-1.179313">
        <ele>968.745</ele>
        <time>2015-02-19T15:46:29Z</time>
      </trkpt>
      <trkpt lat="40.291304" lon="-1.179201">
        <ele>967.796</ele>
        <time>2015-02-19T15:46:49Z</time>
      </trkpt>
      <trkpt lat="40.291273" lon="-1.179094">
        <ele>966.754</ele>
        <time>2015-02-19T15:47:09Z</time>
      </trkpt>
      <trkpt lat="40.291246" lon="-1.178988">
        <ele>966.356</ele>
        <time>2015-02-19T15:47:29Z</time>
      </trkpt>
      <trkpt lat="40.291239" lon="-1.178878">
        <ele>965.811</ele>
        <time>2015-02-19T15:47:49Z</time>
      </trkpt>
      <trkpt lat="40.291252" lon="-1.178766">
        <ele>964.807</ele>
        <time>2015-02-19T15:48:09Z</time>
      </trkpt>
      <trkpt lat="40.291280" lon="-1.178657">
        <ele>963.983</ele>
        <time>2015-02-19T15:48:29Z</time>
      </trkpt>
      <trkpt lat="40.291316" lon="-1.178553">
        <ele>962.433</ele>
        <time>2015-02-19T15:48:49Z</time>
      </trkpt>
      <trkpt lat="40.291360" lon="-1.178463">
        <ele>961.094</ele>
        <time>2015-02-19T15:49:09Z</time>
      </trkpt>
      <trkpt lat="40.291415" lon="-1.178401">
        <ele>960.039</ele>
        <time>2015-02-19T15:49:29Z</time>
      </trkpt>
      <trkpt lat="40.291474" lon="-1.178371">
        <ele>958.629</ele>
        <time>2015-02-19T15:49:49Z</time>
      </trkpt>
      <trkpt lat="40.291536" lon="-1.178363">
        <ele>957.125</ele>
        <time>2015-02-19T15:50:09Z</time>
      </trkpt>
      <trkpt lat="40.291606" lon="-1.178370">
        <ele>956.286</ele>
        <time>2015-02-19T15:50:29Z</time>
      </trkpt>
      <trkpt lat="40.291682" lon="-1.178384">
        <ele>955.245</ele>
        <time>2015-02-19T15:50:49Z</time>
      </trkpt>
      <trkpt lat="40.291757" lon="-1.178408">
        <ele>954.247</ele>
        <time>2015-02-19T15:51:09Z</time>
      </trkpt>
      <trkpt lat="40.291829" lon="-1.178424">
        <ele>952.311</ele>
        <time>2015-02-19T15:51:29Z</time>
      </trkpt>
      <trkpt lat="40.291897" lon="-1.178412">
        <ele>950.907</ele>
        <time>2015-02-19T15:51:49Z</time>
      </trkpt>
      <trkpt lat="40.291961" lon="-1.178374">
        <ele>950.952</ele>
        <time>2015-02-19T15:52:09Z</time>
      </trkpt>
      <trkpt lat="40.292025" lon="-1.178321">
        <ele>949.922</ele>
        <time>2015-02-19T15:52:29Z</time>
      </trkpt>
      <trkpt lat="40.292170" lon="-1.178217">
        <ele>948.033</ele>
        <time>2015-02-19T15:52:49Z</time>
      </trkpt>
      <trkpt lat="40.292259" lon="-1.178183">
        <ele>947.528</ele>
        <time>2015-02-19T15:53:09Z</time>
      </trkpt>
      <trkpt lat="40.292353" lon="-1.178165">
        <ele>947.028</ele>
        <time>2015-02-19T15:53:29Z</time>
      </trkpt>
      <trkpt lat="40.292445" lon="-1.178157">
        <ele>945.694</ele>
        <time>2015-02-19T15:53:49Z</time>
      </trkpt>
      <trkpt lat="40.292533" lon="-1.178155">
        <ele>944.675</ele>
        <time>2015-02-19T15:54:09Z</time>
      </trkpt>
      <trkpt lat="40.292776" lon="-1.178117">
        <ele>940.868</ele>
        <time>2015-02-19T15:54:29Z</time>
      </trkpt>
      <trkpt lat="40.292845" lon="-1.178094">
        <ele>938.942</ele>
        <time>2015-02-19T15:54:49Z</time>
      </trkpt>
      <trkpt lat="40.292903" lon="-1.178053">
        <ele>936.926</ele>
        <time>2015-02-19T15:55:09Z</time>
      </trkpt>
      <trkpt lat="40.292952" lon="-1.177996">
        <ele>936.507</ele>
        <time>2015-02-19T15:55:29Z</time>
      </trkpt>
      <trkpt lat="40.292991" lon="-1.177930">
        <ele>936.914</ele>
        <time>2015-02-19T15:55:49Z</time>
      </trkpt>
      <trkpt lat="40.293024" lon="-1.177860">
        <ele>936.034</ele>
        <time>2015-02-19T15:56:09Z</time>
      </trkpt>
      <trkpt lat="40.293052" lon="-1.177791">
        <ele>935.525</ele>
        <time>2015-02-19T15:56:29Z</time>
      </trkpt>
      <trkpt lat="40.293103" lon="-1.177658">
        <ele>935.070</ele>
        <time>2015-02-19T15:56:49Z</time>
      </trkpt>
      <trkpt lat="40.293227" lon="-1.177243">
        <ele>934.580</ele>
        <time>2015-02-19T15:57:09Z</time>
      </trkpt>
      <trkpt lat="40.293257" lon="-1.177179">
        <ele>934.116</ele>
        <time>2015-02-19T15:57:29Z</time>
      </trkpt>
      <trkpt lat="40.293292" lon="-1.177121">
        <ele>934.157</ele>
        <time>2015-02-19T15:57:49Z</time>
      </trkpt>
      <trkpt lat="40.293474" lon="-1.176825">
        <ele>932.634</ele>
        <time>2015-02-19T15:58:09Z</time>
      </trkpt>
      <trkpt lat="40.293501" lon="-1.176767">
        <ele>931.755</ele>
        <time>2015-02-19T15:58:29Z</time>
      </trkpt>
      <trkpt lat="40.293525" lon="-1.176711">
        <ele>932.110</ele>
        <time>2015-02-19T15:58:49Z</time>
      </trkpt>
      <trkpt lat="40.293552" lon="-1.176660">
        <ele>931.207</ele>
        <time>2015-02-19T15:59:09Z</time>
      </trkpt>
      <trkpt lat="40.293581" lon="-1.176612">
        <ele>931.741</ele>
        <time>2015-02-19T15:59:29Z</time>
      </trkpt>
      <trkpt lat="40.293636" lon="-1.176519">
        <ele>930.751</ele>
        <time>2015-02-19T15:59:49Z</time>
      </trkpt>
      <trkpt lat="40.293666" lon="-1.176479">
        <ele>931.212</ele>
        <time>2015-02-19T16:00:09Z</time>
      </trkpt>
      <trkpt lat="40.293695" lon="-1.176437">
        <ele>930.717</ele>
        <time>2015-02-19T16:00:29Z</time>
      </trkpt>
      <trkpt lat="40.294214" lon="-1.175930">
        <ele>928.857</ele>
        <time>2015-02-19T16:00:49Z</time>
      </trkpt>
      <trkpt lat="40.294783" lon="-1.175357">
        <ele>925.943</ele>
        <time>2015-02-19T16:01:09Z</time>
      </trkpt>
      <trkpt lat="40.294961" lon="-1.175062">
        <ele>924.914</ele>
        <time>2015-02-19T16:01:29Z</time>
      </trkpt>
      <trkpt lat="40.294987" lon="-1.174990">
        <ele>924.562</ele>
        <time>2015-02-19T16:01:49Z</time>
      </trkpt>
      <trkpt lat="40.295008" lon="-1.174917">
        <ele>924.583</ele>
        <time>2015-02-19T16:02:09Z</time>
      </trkpt>
      <trkpt lat="40.295028" lon="-1.174840">
        <ele>924.011</ele>
        <time>2015-02-19T16:02:29Z</time>
      </trkpt>
      <trkpt lat="40.295046" lon="-1.174762">
        <ele>924.507</ele>
        <time>2015-02-19T16:02:49Z</time>
      </trkpt>
      <trkpt lat="40.295229" lon="-1.174058">
        <ele>921.664</ele>
        <time>2015-02-19T16:03:09Z</time>
      </trkpt>
      <trkpt lat="40.295396" lon="-1.173508">
        <ele>920.694</ele>
        <time>2015-02-19T16:03:29Z</time>
      </trkpt>
      <trkpt lat="40.295430" lon="-1.173452">
        <ele>920.145</ele>
        <time>2015-02-19T16:03:49Z</time>
      </trkpt>
      <trkpt lat="40.295499" lon="-1.173346">
        <ele>920.190</ele>
        <time>2015-02-19T16:04:09Z</time>
      </trkpt>
      <trkpt lat="40.295535" lon="-1.173294">
        <ele>919.630</ele>
        <time>2015-02-19T16:04:29Z</time>
      </trkpt>
      <trkpt lat="40.295606" lon="-1.173182">
        <ele>919.276</ele>
        <time>2015-02-19T16:04:49Z</time>
      </trkpt>
      <trkpt lat="40.295648" lon="-1.173130">
        <ele>919.617</ele>
        <time>2015-02-19T16:05:09Z</time>
      </trkpt>
      <trkpt lat="40.296104" lon="-1.172378">
        <ele>916.362</ele>
        <time>2015-02-19T16:05:29Z</time>
      </trkpt>
      <trkpt lat="40.296233" lon="-1.171911">
        <ele>914.883</ele>
        <time>2015-02-19T16:05:49Z</time>
      </trkpt>
      <trkpt lat="40.296235" lon="-1.171925">
        <ele>913.911</ele>
        <time>2015-02-19T16:06:09Z</time>
      </trkpt>
      <trkpt lat="40.296225" lon="-1.171904">
        <ele>914.307</ele>
        <time>2015-02-19T16:06:29Z</time>
      </trkpt>
      <trkpt lat="40.296219" lon="-1.171603">
        <ele>914.344</ele>
        <time>2015-02-19T16:06:49Z</time>
      </trkpt>
      <trkpt lat="40.296215" lon="-1.171583">
        <ele>913.484</ele>
        <time>2015-02-19T16:07:09Z</time>
      </trkpt>
      <trkpt lat="40.296219" lon="-1.171560">
        <ele>913.915</ele>
        <time>2015-02-19T16:07:29Z</time>
      </trkpt>
      <trkpt lat="40.296223" lon="-1.171538">
        <ele>913.950</ele>
        <time>2015-02-19T16:07:49Z</time>
      </trkpt>
      <trkpt lat="40.296226" lon="-1.171514">
        <ele>914.380</ele>
        <time>2015-02-19T16:08:09Z</time>
      </trkpt>
      <trkpt lat="40.296228" lon="-1.171487">
        <ele>913.916</ele>
        <time>2015-02-19T16:08:29Z</time>
      </trkpt>
      <trkpt lat="40.296180" lon="-1.171021">
        <ele>913.417</ele>
        <time>2015-02-19T16:08:49Z</time>
      </trkpt>
      <trkpt lat="40.295933" lon="-1.170378">
        <ele>912.015</ele>
        <time>2015-02-19T16:09:09Z</time>
      </trkpt>
      <trkpt lat="40.295876" lon="-1.170289">
        <ele>911.065</ele>
        <time>2015-02-19T16:09:29Z</time>
      </trkpt>
      <trkpt lat="40.295545" lon="-1.169904">
        <ele>910.011</ele>
        <time>2015-02-19T16:09:49Z</time>
      </trkpt>
      <trkpt lat="40.295513" lon="-1.169865">
        <ele>910.007</ele>
        <time>2015-02-19T16:10:09Z</time>
      </trkpt>
      <trkpt lat="40.295269" lon="-1.169581">
        <ele>908.619</ele>
        <time>2015-02-19T16:10:29Z</time>
      </trkpt>
      <trkpt lat="40.295100" lon="-1.169469">
        <ele>908.129</ele>
        <time>2015-02-19T16:10:49Z</time>
      </trkpt>
      <trkpt lat="40.294876" lon="-1.169393">
        <ele>907.690</ele>
        <time>2015-02-19T16:11:09Z</time>
      </trkpt>
      <trkpt lat="40.294827" lon="-1.169383">
        <ele>907.625</ele>
        <time>2015-02-19T16:11:29Z</time>
      </trkpt>
      <trkpt lat="40.294780" lon="-1.169378">
        <ele>907.135</ele>
        <time>2015-02-19T16:11:49Z</time>
      </trkpt>
      <trkpt lat="40.294731" lon="-1.169374">
        <ele>906.721</ele>
        <time>2015-02-19T16:12:09Z</time>
      </trkpt>
      <trkpt lat="40.294683" lon="-1.169371">
        <ele>906.792</ele>
        <time>2015-02-19T16:12:29Z</time>
      </trkpt>
      <trkpt lat="40.294634" lon="-1.169371">
        <ele>906.248</ele>
        <time>2015-02-19T16:12:49Z</time>
      </trkpt>
      <trkpt lat="40.294358" lon="-1.169356">
        <ele>905.761</ele>
        <time>2015-02-19T16:13:09Z</time>
      </trkpt>
      <trkpt lat="40.294312" lon="-1.169347">
        <ele>905.217</ele>
        <time>2015-02-19T16:13:29Z</time>
      </trkpt>
      <trkpt lat="40.294267" lon="-1.169335">
        <ele>904.707</ele>
        <time>2015-02-19T16:13:49Z</time>
      </trkpt>
      <trkpt lat="40.294080" lon="-1.169290">
        <ele>904.332</ele>
        <time>2015-02-19T16:14:09Z</time>
      </trkpt>
      <trkpt lat="40.293707" lon="-1.169088">
        <ele>903.362</ele>
        <time>2015-02-19T16:14:29Z</time>
      </trkpt>
      <trkpt lat="40.293665" lon="-1.169046">
        <ele>903.363</ele>
        <time>2015-02-19T16:14:49Z</time>
      </trkpt>
      <trkpt lat="40.293255" lon="-1.168230">
        <ele>900.458</ele>
        <time>2015-02-19T16:15:09Z</time>
      </trkpt>
      <trkpt lat="40.292927" lon="-1.167489">
        <ele>899.568</ele>
        <time>2015-02-19T16:15:29Z</time>
      </trkpt>
      <trkpt lat="40.292685" lon="-1.166822">
        <ele>897.524</ele>
        <time>2015-02-19T16:15:49Z</time>
      </trkpt>
      <trkpt lat="40.292380" lon="-1.165780">
        <ele>894.625</ele>
        <time>2015-02-19T16:16:09Z</time>
      </trkpt>
      <trkpt lat="40.292013" lon="-1.164662">
        <ele>892.289</ele>
        <time>2015-02-19T16:16:29Z</time>
      </trkpt>
      <trkpt lat="40.291579" lon="-1.163561">
        <ele>889.806</ele>
        <time>2015-02-19T16:16:49Z</time>
      </trkpt>
      <trkpt lat="40.291320" lon="-1.162827">
        <ele>887.926</ele>
        <time>2015-02-19T16:17:09Z</time>
      </trkpt>
      <trkpt lat="40.291304" lon="-1.162455">
        <ele>887.007</ele>
        <time>2015-02-19T16:17:29Z</time>
      </trkpt>
      <trkpt lat="40.291302" lon="-1.162387">
        <ele>886.576</ele>
        <time>2015-02-19T16:17:49Z</time>
      </trkpt>
      <trkpt lat="40.291297" lon="-1.162311">
        <ele>886.526</ele>
        <time>2015-02-19T16:18:09Z</time>
      </trkpt>
      <trkpt lat="40.291406" lon="-1.161049">
        <ele>883.687</ele>
        <time>2015-02-19T16:18:29Z</time>
      </trkpt>
      <trkpt lat="40.291476" lon="-1.160154">
        <ele>882.612</ele>
        <time>2015-02-19T16:18:49Z</time>
      </trkpt>
      <trkpt lat="40.291380" lon="-1.159146">
        <ele>879.792</ele>
        <time>2015-02-19T16:19:09Z</time>
      </trkpt>
      <trkpt lat="40.291026" lon="-1.157989">
        <ele>877.328</ele>
        <time>2015-02-19T16:19:29Z</time>
      </trkpt>
      <trkpt lat="40.290905" lon="-1.156804">
        <ele>874.019</ele>
        <time>2015-02-19T16:19:49Z</time>
      </trkpt>
      <trkpt lat="40.290899" lon="-1.156623">
        <ele>874.049</ele>
        <time>2015-02-19T16:20:09Z</time>
      </trkpt>
      <trkpt lat="40.290888" lon="-1.156532">
        <ele>873.502</ele>
        <time>2015-02-19T16:20:29Z</time>
      </trkpt>
      <trkpt lat="40.290819" lon="-1.155868">
        <ele>871.122</ele>
        <time>2015-02-19T16:20:49Z</time>
      </trkpt>
      <trkpt lat="40.290649" lon="-1.155268">
        <ele>869.707</ele>
        <time>2015-02-19T16:21:09Z</time>
      </trkpt>
      <trkpt lat="40.290607" lon="-1.155199">
        <ele>870.182</ele>
        <time>2015-02-19T16:21:29Z</time>
      </trkpt>
      <trkpt lat="40.290561" lon="-1.155133">
        <ele>869.282</ele>
        <time>2015-02-19T16:21:49Z</time>
      </trkpt>
      <trkpt lat="40.290508" lon="-1.155075">
        <ele>869.273</ele>
        <time>2015-02-19T16:22:09Z</time>
      </trkpt>
      <trkpt lat="40.290453" lon="-1.155026">
        <ele>869.278</ele>
        <time>2015-02-19T16:22:29Z</time>
      </trkpt>
      <trkpt lat="40.290397" lon="-1.154981">
        <ele>869.248</ele>
        <time>2015-02-19T16:22:49Z</time>
      </trkpt>
      <trkpt lat="40.289828" lon="-1.154503">
        <ele>867.794</ele>
        <time>2015-02-19T16:23:09Z</time>
      </trkpt>
      <trkpt lat="40.289539" lon="-1.153928">
        <ele>866.395</ele>
        <time>2015-02-19T16:23:29Z</time>
      </trkpt>
      <trkpt lat="40.289522" lon="-1.153845">
        <ele>865.824</ele>
        <time>2015-02-19T16:23:49Z</time>
      </trkpt>
      <trkpt lat="40.289496" lon="-1.153593">
        <ele>865.304</ele>
        <time>2015-02-19T16:24:09Z</time>
      </trkpt>
      <trkpt lat="40.289509" lon="-1.153435">
        <ele>865.314</ele>
        <time>2015-02-19T16:24:29Z</time>
      </trkpt>
      <trkpt lat="40.289553" lon="-1.152194">
        <ele>862.407</ele>
        <time>2015-02-19T16:24:49Z</time>
      </trkpt>
      <trkpt lat="40.289327" lon="-1.150919">
        <ele>860.020</ele>
        <time>2015-02-19T16:25:09Z</time>
      </trkpt>
      <trkpt lat="40.289280" lon="-1.150768">
        <ele>859.640</ele>
        <time>2015-02-19T16:25:29Z</time>
      </trkpt>
      <trkpt lat="40.289257" lon="-1.150693">
        <ele>859.671</ele>
        <time>2015-02-19T16:25:49Z</time>
      </trkpt>
      <trkpt lat="40.289026" lon="-1.149977">
        <ele>858.616</ele>
        <time>2015-02-19T16:26:09Z</time>
      </trkpt>
      <trkpt lat="40.288524" lon="-1.149097">
        <ele>856.766</ele>
        <time>2015-02-19T16:26:29Z</time>
      </trkpt>
      <trkpt lat="40.288336" lon="-1.148812">
        <ele>855.792</ele>
        <time>2015-02-19T16:26:49Z</time>
      </trkpt>
      <trkpt lat="40.288257" lon="-1.148704">
        <ele>854.843</ele>
        <time>2015-02-19T16:27:09Z</time>
      </trkpt>
      <trkpt lat="40.288223" lon="-1.148642">
        <ele>855.255</ele>
        <time>2015-02-19T16:27:29Z</time>
      </trkpt>
      <trkpt lat="40.287850" lon="-1.147954">
        <ele>853.307</ele>
        <time>2015-02-19T16:27:49Z</time>
      </trkpt>
      <trkpt lat="40.287827" lon="-1.147897">
        <ele>853.317</ele>
        <time>2015-02-19T16:28:09Z</time>
      </trkpt>
      <trkpt lat="40.287790" lon="-1.147773">
        <ele>852.807</ele>
        <time>2015-02-19T16:28:29Z</time>
      </trkpt>
      <trkpt lat="40.287783" lon="-1.147712">
        <ele>852.383</ele>
        <time>2015-02-19T16:28:49Z</time>
      </trkpt>
      <trkpt lat="40.287778" lon="-1.147599">
        <ele>852.313</ele>
        <time>2015-02-19T16:29:09Z</time>
      </trkpt>
      <trkpt lat="40.287768" lon="-1.147545">
        <ele>852.324</ele>
        <time>2015-02-19T16:29:29Z</time>
      </trkpt>
      <trkpt lat="40.287752" lon="-1.147489">
        <ele>851.499</ele>
        <time>2015-02-19T16:29:49Z</time>
      </trkpt>
      <trkpt lat="40.287730" lon="-1.147435">
        <ele>851.929</ele>
        <time>2015-02-19T16:30:09Z</time>
      </trkpt>
      <trkpt lat="40.287704" lon="-1.147379">
        <ele>852.345</ele>
        <time>2015-02-19T16:30:29Z</time>
      </trkpt>
      <trkpt lat="40.287600" lon="-1.147178">
        <ele>851.916</ele>
        <time>2015-02-19T16:30:49Z</time>
      </trkpt>
      <trkpt lat="40.287574" lon="-1.147125">
        <ele>851.927</ele>
        <time>2015-02-19T16:31:09Z</time>
      </trkpt>
      <trkpt lat="40.287404" lon="-1.146819">
        <ele>851.468</ele>
        <time>2015-02-19T16:31:29Z</time>
      </trkpt>
      <trkpt lat="40.287267" lon="-1.146306">
        <ele>850.914</ele>
        <time>2015-02-19T16:31:49Z</time>
      </trkpt>
      <trkpt lat="40.287248" lon="-1.145990">
        <ele>851.407</ele>
        <time>2015-02-19T16:32:09Z</time>
      </trkpt>
      <trkpt lat="40.287228" lon="-1.145747">
        <ele>851.480</ele>
        <time>2015-02-19T16:32:29Z</time>
      </trkpt>
      <trkpt lat="40.287201" lon="-1.145637">
        <ele>850.980</ele>
        <time>2015-02-19T16:32:49Z</time>
      </trkpt>
      <trkpt lat="40.287103" lon="-1.145440">
        <ele>849.521</ele>
        <time>2015-02-19T16:33:09Z</time>
      </trkpt>
      <trkpt lat="40.286787" lon="-1.145078">
        <ele>849.026</ele>
        <time>2015-02-19T16:33:29Z</time>
      </trkpt>
      <trkpt lat="40.286536" lon="-1.144675">
        <ele>847.516</ele>
        <time>2015-02-19T16:33:49Z</time>
      </trkpt>
      <trkpt lat="40.286443" lon="-1.144480">
        <ele>848.072</ele>
        <time>2015-02-19T16:34:09Z</time>
      </trkpt>
      <trkpt lat="40.286219" lon="-1.144146">
        <ele>849.953</ele>
        <time>2015-02-19T16:34:29Z</time>
      </trkpt>
      <trkpt lat="40.286224" lon="-1.144166">
        <ele>849.917</ele>
        <time>2015-02-19T16:34:49Z</time>
      </trkpt>
      <trkpt lat="40.286226" lon="-1.144154">
        <ele>849.987</ele>
        <time>2015-02-19T16:35:09Z</time>
      </trkpt>
      <trkpt lat="40.286227" lon="-1.144164">
        <ele>849.915</ele>
        <time>2015-02-19T16:35:29Z</time>
      </trkpt>
      <trkpt lat="40.286109" lon="-1.143889">
        <ele>849.507</ele>
        <time>2015-02-19T16:35:49Z</time>
      </trkpt>
      <trkpt lat="40.286049" lon="-1.143746">
        <ele>849.069</ele>
        <time>2015-02-19T16:36:09Z</time>
      </trkpt>
      <trkpt lat="40.285813" lon="-1.143232">
        <ele>849.099</ele>
        <time>2015-02-19T16:36:29Z</time>
      </trkpt>
      <trkpt lat="40.285507" lon="-1.142544">
        <ele>847.160</ele>
        <time>2015-02-19T16:36:49Z</time>
      </trkpt>
      <trkpt lat="40.285369" lon="-1.142243">
        <ele>847.535</ele>
        <time>2015-02-19T16:37:09Z</time>
      </trkpt>
      <trkpt lat="40.285059" lon="-1.141433">
        <ele>846.165</ele>
        <time>2015-02-19T16:37:29Z</time>
      </trkpt>
      <trkpt lat="40.284646" lon="-1.140691">
        <ele>845.131</ele>
        <time>2015-02-19T16:37:49Z</time>
      </trkpt>
      <trkpt lat="40.284298" lon="-1.140018">
        <ele>844.222</ele>
        <time>2015-02-19T16:38:09Z</time>
      </trkpt>
      <trkpt lat="40.284055" lon="-1.139470">
        <ele>843.234</ele>
        <time>2015-02-19T16:38:29Z</time>
      </trkpt>
      <trkpt lat="40.284005" lon="-1.139316">
        <ele>843.255</ele>
        <time>2015-02-19T16:38:49Z</time>
      </trkpt>
      <trkpt lat="40.283830" lon="-1.138768">
        <ele>840.810</ele>
        <time>2015-02-19T16:39:09Z</time>
      </trkpt>
      <trkpt lat="40.283781" lon="-1.138612">
        <ele>841.307</ele>
        <time>2015-02-19T16:39:29Z</time>
      </trkpt>
      <trkpt lat="40.283678" lon="-1.138321">
        <ele>840.821</ele>
        <time>2015-02-19T16:39:49Z</time>
      </trkpt>
      <trkpt lat="40.283741" lon="-1.137976">
        <ele>840.881</ele>
        <time>2015-02-19T16:40:09Z</time>
      </trkpt>
      <trkpt lat="40.283980" lon="-1.137606">
        <ele>840.882</ele>
        <time>2015-02-19T16:40:29Z</time>
      </trkpt>
      <trkpt lat="40.284161" lon="-1.137451">
        <ele>841.397</ele>
        <time>2015-02-19T16:40:49Z</time>
      </trkpt>
      <trkpt lat="40.284319" lon="-1.137367">
        <ele>841.327</ele>
        <time>2015-02-19T16:41:09Z</time>
      </trkpt>
      <trkpt lat="40.284691" lon="-1.137138">
        <ele>841.863</ele>
        <time>2015-02-19T16:41:29Z</time>
      </trkpt>
      <trkpt lat="40.285088" lon="-1.136922">
        <ele>841.374</ele>
        <time>2015-02-19T16:41:49Z</time>
      </trkpt>
      <trkpt lat="40.285369" lon="-1.136969">
        <ele>841.333</ele>
        <time>2015-02-19T16:42:09Z</time>
      </trkpt>
      <trkpt lat="40.285413" lon="-1.136971">
        <ele>841.823</ele>
        <time>2015-02-19T16:42:29Z</time>
      </trkpt>
      <trkpt lat="40.285455" lon="-1.136965">
        <ele>841.815</ele>
        <time>2015-02-19T16:42:49Z</time>
      </trkpt>
      <trkpt lat="40.285493" lon="-1.136954">
        <ele>841.807</ele>
        <time>2015-02-19T16:43:09Z</time>
      </trkpt>
      <trkpt lat="40.285526" lon="-1.136935">
        <ele>841.831</ele>
        <time>2015-02-19T16:43:29Z</time>
      </trkpt>
      <trkpt lat="40.285556" lon="-1.136914">
        <ele>842.251</ele>
        <time>2015-02-19T16:43:49Z</time>
      </trkpt>
      <trkpt lat="40.285650" lon="-1.136870">
        <ele>841.342</ele>
        <time>2015-02-19T16:44:09Z</time>
      </trkpt>
      <trkpt lat="40.285692" lon="-1.136866">
        <ele>841.877</ele>
        <time>2015-02-19T16:44:29Z</time>
      </trkpt>
      <trkpt lat="40.285707" lon="-1.136870">
        <ele>841.867</ele>
        <time>2015-02-19T16:44:49Z</time>
      </trkpt>
      <trkpt lat="40.285729" lon="-1.136869">
        <ele>842.283</ele>
        <time>2015-02-19T16:45:09Z</time>
      </trkpt>
      <trkpt lat="40.285753" lon="-1.136861">
        <ele>841.894</ele>
        <time>2015-02-19T16:45:29Z</time>
      </trkpt>
      <trkpt lat="40.285775" lon="-1.136854">
        <ele>841.862</ele>
        <time>2015-02-19T16:45:49Z</time>
      </trkpt>
      <trkpt lat="40.285799" lon="-1.136847">
        <ele>841.883</ele>
        <time>2015-02-19T16:46:09Z</time>
      </trkpt>
      <trkpt lat="40.285819" lon="-1.136839">
        <ele>841.811</ele>
        <time>2015-02-19T16:46:29Z</time>
      </trkpt>
      <trkpt lat="40.285842" lon="-1.136826">
        <ele>842.207</ele>
        <time>2015-02-19T16:46:49Z</time>
      </trkpt>
      <trkpt lat="40.285867" lon="-1.136815">
        <ele>841.834</ele>
        <time>2015-02-19T16:47:09Z</time>
      </trkpt>
      <trkpt lat="40.285892" lon="-1.136808">
        <ele>841.844</ele>
        <time>2015-02-19T16:47:29Z</time>
      </trkpt>
      <trkpt lat="40.286318" lon="-1.136843">
        <ele>841.815</ele>
        <time>2015-02-19T16:47:49Z</time>
      </trkpt>
      <trkpt lat="40.286360" lon="-1.136861">
        <ele>841.890</ele>
        <time>2015-02-19T16:48:09Z</time>
      </trkpt>
      <trkpt lat="40.286403" lon="-1.136885">
        <ele>841.810</ele>
        <time>2015-02-19T16:48:29Z</time>
      </trkpt>
      <trkpt lat="40.286445" lon="-1.136908">
        <ele>842.226</ele>
        <time>2015-02-19T16:48:49Z</time>
      </trkpt>
      <trkpt lat="40.286488" lon="-1.136932">
        <ele>843.297</ele>
        <time>2015-02-19T16:49:09Z</time>
      </trkpt>
      <trkpt lat="40.286530" lon="-1.136954">
        <ele>842.255</ele>
        <time>2015-02-19T16:49:29Z</time>
      </trkpt>
      <trkpt lat="40.286572" lon="-1.136976">
        <ele>842.207</ele>
        <time>2015-02-19T16:49:49Z</time>
      </trkpt>
      <trkpt lat="40.286614" lon="-1.137000">
        <ele>842.217</ele>
        <time>2015-02-19T16:50:09Z</time>
      </trkpt>
      <trkpt lat="40.286697" lon="-1.137042">
        <ele>842.207</ele>
        <time>2015-02-19T16:50:29Z</time>
      </trkpt>
      <trkpt lat="40.286735" lon="-1.137065">
        <ele>842.783</ele>
        <time>2015-02-19T16:50:49Z</time>
      </trkpt>
      <trkpt lat="40.286857" lon="-1.137142">
        <ele>842.743</ele>
        <time>2015-02-19T16:51:09Z</time>
      </trkpt>
      <trkpt lat="40.286895" lon="-1.137179">
        <ele>842.764</ele>
        <time>2015-02-19T16:51:29Z</time>
      </trkpt>
      <trkpt lat="40.286931" lon="-1.137213">
        <ele>842.759</ele>
        <time>2015-02-19T16:51:49Z</time>
      </trkpt>
      <trkpt lat="40.286970" lon="-1.137243">
        <ele>843.299</ele>
        <time>2015-02-19T16:52:09Z</time>
      </trkpt>
      <trkpt lat="40.287010" lon="-1.137272">
        <ele>843.225</ele>
        <time>2015-02-19T16:52:29Z</time>
      </trkpt>
      <trkpt lat="40.287561" lon="-1.137529">
        <ele>842.726</ele>
        <time>2015-02-19T16:52:49Z</time>
      </trkpt>
      <trkpt lat="40.288011" lon="-1.137729">
        <ele>842.792</ele>
        <time>2015-02-19T16:53:09Z</time>
      </trkpt>
      <trkpt lat="40.288100" lon="-1.137749">
        <ele>843.273</ele>
        <time>2015-02-19T16:53:29Z</time>
      </trkpt>
      <trkpt lat="40.288146" lon="-1.137753">
        <ele>843.220</ele>
        <time>2015-02-19T16:53:49Z</time>
      </trkpt>
      <trkpt lat="40.288190" lon="-1.137754">
        <ele>842.707</ele>
        <time>2015-02-19T16:54:09Z</time>
      </trkpt>
      <trkpt lat="40.288632" lon="-1.137692">
        <ele>843.737</ele>
        <time>2015-02-19T16:54:29Z</time>
      </trkpt>
      <trkpt lat="40.288808" lon="-1.137631">
        <ele>843.757</ele>
        <time>2015-02-19T16:54:49Z</time>
      </trkpt>
      <trkpt lat="40.288852" lon="-1.137622">
        <ele>843.728</ele>
        <time>2015-02-19T16:55:09Z</time>
      </trkpt>
      <trkpt lat="40.288892" lon="-1.137605">
        <ele>843.283</ele>
        <time>2015-02-19T16:55:29Z</time>
      </trkpt>
      <trkpt lat="40.288935" lon="-1.137592">
        <ele>843.213</ele>
        <time>2015-02-19T16:55:49Z</time>
      </trkpt>
      <trkpt lat="40.288978" lon="-1.137583">
        <ele>843.759</ele>
        <time>2015-02-19T16:56:09Z</time>
      </trkpt>
      <trkpt lat="40.289021" lon="-1.137568">
        <ele>843.710</ele>
        <time>2015-02-19T16:56:29Z</time>
      </trkpt>
      <trkpt lat="40.289062" lon="-1.137551">
        <ele>844.251</ele>
        <time>2015-02-19T16:56:49Z</time>
      </trkpt>
      <trkpt lat="40.289180" lon="-1.137493">
        <ele>844.201</ele>
        <time>2015-02-19T16:57:09Z</time>
      </trkpt>
      <trkpt lat="40.289690" lon="-1.137170">
        <ele>844.711</ele>
        <time>2015-02-19T16:57:29Z</time>
      </trkpt>
      <trkpt lat="40.290009" lon="-1.136982">
        <ele>844.207</ele>
        <time>2015-02-19T16:57:49Z</time>
      </trkpt>
      <trkpt lat="40.290050" lon="-1.136964">
        <ele>844.253</ele>
        <time>2015-02-19T16:58:09Z</time>
      </trkpt>
      <trkpt lat="40.290088" lon="-1.136944">
        <ele>844.733</ele>
        <time>2015-02-19T16:58:29Z</time>
      </trkpt>
      <trkpt lat="40.290402" lon="-1.136759">
        <ele>844.264</ele>
        <time>2015-02-19T16:58:49Z</time>
      </trkpt>
      <trkpt lat="40.290971" lon="-1.136446">
        <ele>844.279</ele>
        <time>2015-02-19T16:59:09Z</time>
      </trkpt>
      <trkpt lat="40.291667" lon="-1.136092">
        <ele>844.759</ele>
        <time>2015-02-19T16:59:29Z</time>
      </trkpt>
      <trkpt lat="40.292281" lon="-1.135840">
        <ele>844.715</ele>
        <time>2015-02-19T16:59:49Z</time>
      </trkpt>
      <trkpt lat="40.292325" lon="-1.135823">
        <ele>844.736</ele>
        <time>2015-02-19T17:00:09Z</time>
      </trkpt>
      <trkpt lat="40.292949" lon="-1.135643">
        <ele>845.117</ele>
        <time>2015-02-19T17:00:29Z</time>
      </trkpt>
      <trkpt lat="40.293129" lon="-1.135613">
        <ele>845.687</ele>
        <time>2015-02-19T17:00:49Z</time>
      </trkpt>
      <trkpt lat="40.293215" lon="-1.135606">
        <ele>845.615</ele>
        <time>2015-02-19T17:01:09Z</time>
      </trkpt>
      <trkpt lat="40.293257" lon="-1.135593">
        <ele>845.607</ele>
        <time>2015-02-19T17:01:29Z</time>
      </trkpt>
      <trkpt lat="40.293387" lon="-1.135552">
        <ele>845.689</ele>
        <time>2015-02-19T17:01:49Z</time>
      </trkpt>
      <trkpt lat="40.293432" lon="-1.135540">
        <ele>846.169</ele>
        <time>2015-02-19T17:02:09Z</time>
      </trkpt>
      <trkpt lat="40.293834" lon="-1.135477">
        <ele>846.650</ele>
        <time>2015-02-19T17:02:29Z</time>
      </trkpt>
      <trkpt lat="40.294552" lon="-1.135399">
        <ele>847.165</ele>
        <time>2015-02-19T17:02:49Z</time>
      </trkpt>
      <trkpt lat="40.294724" lon="-1.135334">
        <ele>847.595</ele>
        <time>2015-02-19T17:03:09Z</time>
      </trkpt>
      <trkpt lat="40.295162" lon="-1.134942">
        <ele>847.171</ele>
        <time>2015-02-19T17:03:29Z</time>
      </trkpt>
      <trkpt lat="40.295459" lon="-1.134648">
        <ele>847.192</ele>
        <time>2015-02-19T17:03:49Z</time>
      </trkpt>
      <trkpt lat="40.295522" lon="-1.134538">
        <ele>847.121</ele>
        <time>2015-02-19T17:04:09Z</time>
      </trkpt>
      <trkpt lat="40.295532" lon="-1.134491">
        <ele>847.541</ele>
        <time>2015-02-19T17:04:29Z</time>
      </trkpt>
      <trkpt lat="40.295671" lon="-1.134142">
        <ele>847.105</ele>
        <time>2015-02-19T17:04:49Z</time>
      </trkpt>
      <trkpt lat="40.295981" lon="-1.133800">
        <ele>846.607</ele>
        <time>2015-02-19T17:05:09Z</time>
      </trkpt>
      <trkpt lat="40.296589" lon="-1.133392">
        <ele>847.560</ele>
        <time>2015-02-19T17:05:29Z</time>
      </trkpt>
      <trkpt lat="40.296633" lon="-1.133366">
        <ele>848.050</ele>
        <time>2015-02-19T17:05:49Z</time>
      </trkpt>
      <trkpt lat="40.296995" lon="-1.133146">
        <ele>848.571</ele>
        <time>2015-02-19T17:06:09Z</time>
      </trkpt>
      <trkpt lat="40.297032" lon="-1.133113">
        <ele>848.086</ele>
        <time>2015-02-19T17:06:29Z</time>
      </trkpt>
      <trkpt lat="40.297066" lon="-1.133075">
        <ele>849.066</ele>
        <time>2015-02-19T17:06:49Z</time>
      </trkpt>
      <trkpt lat="40.297218" lon="-1.132858">
        <ele>848.562</ele>
        <time>2015-02-19T17:07:09Z</time>
      </trkpt>
      <trkpt lat="40.297267" lon="-1.132757">
        <ele>849.063</ele>
        <time>2015-02-19T17:07:29Z</time>
      </trkpt>
      <trkpt lat="40.297433" lon="-1.132466">
        <ele>849.544</ele>
        <time>2015-02-19T17:07:49Z</time>
      </trkpt>
      <trkpt lat="40.297462" lon="-1.132423">
        <ele>849.005</ele>
        <time>2015-02-19T17:08:09Z</time>
      </trkpt>
      <trkpt lat="40.298014" lon="-1.131769">
        <ele>849.515</ele>
        <time>2015-02-19T17:08:29Z</time>
      </trkpt>
      <trkpt lat="40.298333" lon="-1.131394">
        <ele>849.007</ele>
        <time>2015-02-19T17:08:49Z</time>
      </trkpt>
      <trkpt lat="40.298392" lon="-1.131290">
        <ele>849.542</ele>
        <time>2015-02-19T17:09:09Z</time>
      </trkpt>
      <trkpt lat="40.298428" lon="-1.131254">
        <ele>849.042</ele>
        <time>2015-02-19T17:09:29Z</time>
      </trkpt>
      <trkpt lat="40.298468" lon="-1.131236">
        <ele>849.533</ele>
        <time>2015-02-19T17:09:49Z</time>
      </trkpt>
      <trkpt lat="40.298509" lon="-1.131225">
        <ele>849.598</ele>
        <time>2015-02-19T17:10:09Z</time>
      </trkpt>
      <trkpt lat="40.298544" lon="-1.131205">
        <ele>849.068</ele>
        <time>2015-02-19T17:10:29Z</time>
      </trkpt>
      <trkpt lat="40.298580" lon="-1.131175">
        <ele>849.074</ele>
        <time>2015-02-19T17:10:49Z</time>
      </trkpt>
      <trkpt lat="40.299155" lon="-1.130525">
        <ele>849.925</ele>
        <time>2015-02-19T17:11:09Z</time>
      </trkpt>
      <trkpt lat="40.299348" lon="-1.130368">
        <ele>850.437</ele>
        <time>2015-02-19T17:11:29Z</time>
      </trkpt>
      <trkpt lat="40.299542" lon="-1.130247">
        <ele>849.949</ele>
        <time>2015-02-19T17:11:49Z</time>
      </trkpt>
      <trkpt lat="40.299689" lon="-1.130200">
        <ele>850.413</ele>
        <time>2015-02-19T17:12:09Z</time>
      </trkpt>
      <trkpt lat="40.299709" lon="-1.130178">
        <ele>850.907</ele>
        <time>2015-02-19T17:12:29Z</time>
      </trkpt>
      <trkpt lat="40.299721" lon="-1.130159">
        <ele>850.941</ele>
        <time>2015-02-19T17:12:49Z</time>
      </trkpt>
      <trkpt lat="40.299719" lon="-1.130141">
        <ele>850.991</ele>
        <time>2015-02-19T17:13:09Z</time>
      </trkpt>
      <trkpt lat="40.299705" lon="-1.130112">
        <ele>850.942</ele>
        <time>2015-02-19T17:13:29Z</time>
      </trkpt>
      <trkpt lat="40.299701" lon="-1.130093">
        <ele>850.987</ele>
        <time>2015-02-19T17:13:49Z</time>
      </trkpt>
      <trkpt lat="40.299696" lon="-1.130072">
        <ele>850.967</ele>
        <time>2015-02-19T17:14:09Z</time>
      </trkpt>
      <trkpt lat="40.299688" lon="-1.130048">
        <ele>851.433</ele>
        <time>2015-02-19T17:14:29Z</time>
      </trkpt>
      <trkpt lat="40.299680" lon="-1.130025">
        <ele>851.454</ele>
        <time>2015-02-19T17:14:49Z</time>
      </trkpt>
      <trkpt lat="40.299674" lon="-1.130006">
        <ele>851.446</ele>
        <time>2015-02-19T17:15:09Z</time>
      </trkpt>
      <trkpt lat="40.299670" lon="-1.129986">
        <ele>851.488</ele>
        <time>2015-02-19T17:15:29Z</time>
      </trkpt>
      <trkpt lat="40.299494" lon="-1.129594">
        <ele>850.416</ele>
        <time>2015-02-19T17:15:49Z</time>
      </trkpt>
      <trkpt lat="40.299218" lon="-1.129104">
        <ele>850.407</ele>
        <time>2015-02-19T17:16:09Z</time>
      </trkpt>
      <trkpt lat="40.298974" lon="-1.128701">
        <ele>850.452</ele>
        <time>2015-02-19T17:16:29Z</time>
      </trkpt>
      <trkpt lat="40.298763" lon="-1.128369">
        <ele>850.932</ele>
        <time>2015-02-19T17:16:49Z</time>
      </trkpt>
      <trkpt lat="40.298541" lon="-1.128013">
        <ele>851.493</ele>
        <time>2015-02-19T17:17:09Z</time>
      </trkpt>
      <trkpt lat="40.298258" lon="-1.127565">
        <ele>853.388</ele>
        <time>2015-02-19T17:17:29Z</time>
      </trkpt>
      <trkpt lat="40.297977" lon="-1.127050">
        <ele>854.388</ele>
        <time>2015-02-19T17:17:49Z</time>
      </trkpt>
      <trkpt lat="40.297825" lon="-1.126332">
        <ele>855.284</ele>
        <time>2015-02-19T17:18:09Z</time>
      </trkpt>
      <trkpt lat="40.297737" lon="-1.125738">
        <ele>857.265</ele>
        <time>2015-02-19T17:18:29Z</time>
      </trkpt>
      <trkpt lat="40.297623" lon="-1.124985">
        <ele>858.189</ele>
        <time>2015-02-19T17:18:49Z</time>
      </trkpt>
      <trkpt lat="40.297653" lon="-1.124097">
        <ele>859.606</ele>
        <time>2015-02-19T17:19:09Z</time>
      </trkpt>
      <trkpt lat="40.297926" lon="-1.123185">
        <ele>862.426</ele>
        <time>2015-02-19T17:19:29Z</time>
      </trkpt>
      <trkpt lat="40.298055" lon="-1.122736">
        <ele>864.407</ele>
        <time>2015-02-19T17:19:49Z</time>
      </trkpt>
      <trkpt lat="40.298386" lon="-1.122568">
        <ele>866.326</ele>
        <time>2015-02-19T17:20:09Z</time>
      </trkpt>
      <trkpt lat="40.298632" lon="-1.122751">
        <ele>868.726</ele>
        <time>2015-02-19T17:20:29Z</time>
      </trkpt>
      <trkpt lat="40.298755" lon="-1.123216">
        <ele>869.767</ele>
        <time>2015-02-19T17:20:49Z</time>
      </trkpt>
      <trkpt lat="40.298773" lon="-1.123271">
        <ele>870.662</ele>
        <time>2015-02-19T17:21:09Z</time>
      </trkpt>
      <trkpt lat="40.298797" lon="-1.123329">
        <ele>870.122</ele>
        <time>2015-02-19T17:21:29Z</time>
      </trkpt>
      <trkpt lat="40.298861" lon="-1.123451">
        <ele>869.258</ele>
        <time>2015-02-19T17:21:49Z</time>
      </trkpt>
      <trkpt lat="40.298901" lon="-1.123510">
        <ele>868.769</ele>
        <time>2015-02-19T17:22:09Z</time>
      </trkpt>
      <trkpt lat="40.298949" lon="-1.123566">
        <ele>868.727</ele>
        <time>2015-02-19T17:22:29Z</time>
      </trkpt>
      <trkpt lat="40.299043" lon="-1.123694">
        <ele>867.768</ele>
        <time>2015-02-19T17:22:49Z</time>
      </trkpt>
      <trkpt lat="40.299152" lon="-1.123816">
        <ele>867.214</ele>
        <time>2015-02-19T17:23:09Z</time>
      </trkpt>
      <trkpt lat="40.299215" lon="-1.123865">
        <ele>866.807</ele>
        <time>2015-02-19T17:23:29Z</time>
      </trkpt>
      <trkpt lat="40.299280" lon="-1.123908">
        <ele>866.820</ele>
        <time>2015-02-19T17:23:49Z</time>
      </trkpt>
      <trkpt lat="40.299345" lon="-1.123945">
        <ele>866.360</ele>
        <time>2015-02-19T17:24:09Z</time>
      </trkpt>
      <trkpt lat="40.299412" lon="-1.123976">
        <ele>866.361</ele>
        <time>2015-02-19T17:24:29Z</time>
      </trkpt>
      <trkpt lat="40.299473" lon="-1.123996">
        <ele>865.856</ele>
        <time>2015-02-19T17:24:49Z</time>
      </trkpt>
      <trkpt lat="40.299540" lon="-1.123999">
        <ele>865.856</ele>
        <time>2015-02-19T17:25:09Z</time>
      </trkpt>
      <trkpt lat="40.299608" lon="-1.123992">
        <ele>865.862</ele>
        <time>2015-02-19T17:25:29Z</time>
      </trkpt>
      <trkpt lat="40.300530" lon="-1.123877">
        <ele>865.863</ele>
        <time>2015-02-19T17:25:49Z</time>
      </trkpt>
      <trkpt lat="40.301426" lon="-1.123719">
        <ele>865.355</ele>
        <time>2015-02-19T17:26:09Z</time>
      </trkpt>
      <trkpt lat="40.302122" lon="-1.123477">
        <ele>866.307</ele>
        <time>2015-02-19T17:26:29Z</time>
      </trkpt>
      <trkpt lat="40.302508" lon="-1.123349">
        <ele>865.817</ele>
        <time>2015-02-19T17:26:49Z</time>
      </trkpt>
      <trkpt lat="40.303486" lon="-1.123060">
        <ele>865.807</ele>
        <time>2015-02-19T17:27:09Z</time>
      </trkpt>
      <trkpt lat="40.304416" lon="-1.122837">
        <ele>866.313</ele>
        <time>2015-02-19T17:27:29Z</time>
      </trkpt>
      <trkpt lat="40.305435" lon="-1.122626">
        <ele>867.233</ele>
        <time>2015-02-19T17:27:49Z</time>
      </trkpt>
      <trkpt lat="40.306677" lon="-1.122341">
        <ele>868.794</ele>
        <time>2015-02-19T17:28:09Z</time>
      </trkpt>
      <trkpt lat="40.308073" lon="-1.122026">
        <ele>868.259</ele>
        <time>2015-02-19T17:28:29Z</time>
      </trkpt>
      <trkpt lat="40.309521" lon="-1.121689">
        <ele>866.849</ele>
        <time>2015-02-19T17:28:49Z</time>
      </trkpt>
      <trkpt lat="40.310652" lon="-1.121425">
        <ele>868.775</ele>
        <time>2015-02-19T17:29:09Z</time>
      </trkpt>
      <trkpt lat="40.311626" lon="-1.121161">
        <ele>868.786</ele>
        <time>2015-02-19T17:29:29Z</time>
      </trkpt>
      <trkpt lat="40.312449" lon="-1.120848">
        <ele>869.758</ele>
        <time>2015-02-19T17:29:49Z</time>
      </trkpt>
      <trkpt lat="40.312509" lon="-1.120828">
        <ele>870.652</ele>
        <time>2015-02-19T17:30:09Z</time>
      </trkpt>
      <trkpt lat="40.313070" lon="-1.120530">
        <ele>871.617</ele>
        <time>2015-02-19T17:30:29Z</time>
      </trkpt>
      <trkpt lat="40.313126" lon="-1.120495">
        <ele>871.607</ele>
        <time>2015-02-19T17:30:49Z</time>
      </trkpt>
      <trkpt lat="40.314151" lon="-1.119937">
        <ele>873.533</ele>
        <time>2015-02-19T17:31:09Z</time>
      </trkpt>
      <trkpt lat="40.314998" lon="-1.119468">
        <ele>873.093</ele>
        <time>2015-02-19T17:31:29Z</time>
      </trkpt>
      <trkpt lat="40.315505" lon="-1.119187">
        <ele>872.084</ele>
        <time>2015-02-19T17:31:49Z</time>
      </trkpt>
      <trkpt lat="40.316044" lon="-1.118867">
        <ele>868.729</ele>
        <time>2015-02-19T17:32:09Z</time>
      </trkpt>
      <trkpt lat="40.316124" lon="-1.118825">
        <ele>869.249</ele>
        <time>2015-02-19T17:32:29Z</time>
      </trkpt>
      <trkpt lat="40.317143" lon="-1.118546">
        <ele>866.375</ele>
        <time>2015-02-19T17:32:49Z</time>
      </trkpt>
      <trkpt lat="40.317940" lon="-1.118368">
        <ele>866.396</ele>
        <time>2015-02-19T17:33:09Z</time>
      </trkpt>
      <trkpt lat="40.318195" lon="-1.118179">
        <ele>867.231</ele>
        <time>2015-02-19T17:33:29Z</time>
      </trkpt>
      <trkpt lat="40.318251" lon="-1.118114">
        <ele>867.261</ele>
        <time>2015-02-19T17:33:49Z</time>
      </trkpt>
      <trkpt lat="40.318303" lon="-1.118042">
        <ele>866.807</ele>
        <time>2015-02-19T17:34:09Z</time>
      </trkpt>
      <trkpt lat="40.318901" lon="-1.117166">
        <ele>867.707</ele>
        <time>2015-02-19T17:34:29Z</time>
      </trkpt>
      <trkpt lat="40.320025" lon="-1.116474">
        <ele>867.241</ele>
        <time>2015-02-19T17:34:49Z</time>
      </trkpt>
      <trkpt lat="40.320980" lon="-1.116163">
        <ele>868.291</ele>
        <time>2015-02-19T17:35:09Z</time>
      </trkpt>
      <trkpt lat="40.322518" lon="-1.115917">
        <ele>867.262</ele>
        <time>2015-02-19T17:35:29Z</time>
      </trkpt>
      <trkpt lat="40.323765" lon="-1.115737">
        <ele>867.757</ele>
        <time>2015-02-19T17:35:49Z</time>
      </trkpt>
      <trkpt lat="40.324726" lon="-1.115456">
        <ele>867.727</ele>
        <time>2015-02-19T17:36:09Z</time>
      </trkpt>
      <trkpt lat="40.324790" lon="-1.115408">
        <ele>867.233</ele>
        <time>2015-02-19T17:36:29Z</time>
      </trkpt>
      <trkpt lat="40.325289" lon="-1.114901">
        <ele>869.264</ele>
        <time>2015-02-19T17:36:49Z</time>
      </trkpt>
      <trkpt lat="40.325328" lon="-1.114823">
        <ele>869.767</ele>
        <time>2015-02-19T17:37:09Z</time>
      </trkpt>
      <trkpt lat="40.325357" lon="-1.114737">
        <ele>870.181</ele>
        <time>2015-02-19T17:37:29Z</time>
      </trkpt>
      <trkpt lat="40.325410" lon="-1.114561">
        <ele>870.119</ele>
        <time>2015-02-19T17:37:49Z</time>
      </trkpt>
      <trkpt lat="40.325457" lon="-1.114491">
        <ele>870.607</ele>
        <time>2015-02-19T17:38:09Z</time>
      </trkpt>
      <trkpt lat="40.325598" lon="-1.114429">
        <ele>870.624</ele>
        <time>2015-02-19T17:38:29Z</time>
      </trkpt>
      <trkpt lat="40.326206" lon="-1.114129">
        <ele>874.514</ele>
        <time>2015-02-19T17:38:49Z</time>
      </trkpt>
      <trkpt lat="40.326599" lon="-1.113867">
        <ele>876.945</ele>
        <time>2015-02-19T17:39:09Z</time>
      </trkpt>
      <trkpt lat="40.327271" lon="-1.113456">
        <ele>876.920</ele>
        <time>2015-02-19T17:39:29Z</time>
      </trkpt>
      <trkpt lat="40.327366" lon="-1.113412">
        <ele>876.470</ele>
        <time>2015-02-19T17:39:49Z</time>
      </trkpt>
      <trkpt lat="40.327467" lon="-1.113356">
        <ele>876.936</ele>
        <time>2015-02-19T17:40:09Z</time>
      </trkpt>
      <trkpt lat="40.327991" lon="-1.113024">
        <ele>873.537</ele>
        <time>2015-02-19T17:40:29Z</time>
      </trkpt>
      <trkpt lat="40.328051" lon="-1.112965">
        <ele>873.042</ele>
        <time>2015-02-19T17:40:49Z</time>
      </trkpt>
      <trkpt lat="40.328104" lon="-1.112894">
        <ele>872.522</ele>
        <time>2015-02-19T17:41:09Z</time>
      </trkpt>
      <trkpt lat="40.328153" lon="-1.112828">
        <ele>871.614</ele>
        <time>2015-02-19T17:41:29Z</time>
      </trkpt>
      <trkpt lat="40.328207" lon="-1.112774">
        <ele>871.607</ele>
        <time>2015-02-19T17:41:49Z</time>
      </trkpt>
      <trkpt lat="40.328262" lon="-1.112722">
        <ele>872.032</ele>
        <time>2015-02-19T17:42:09Z</time>
      </trkpt>
      <trkpt lat="40.328443" lon="-1.112497">
        <ele>871.142</ele>
        <time>2015-02-19T17:42:29Z</time>
      </trkpt>
      <trkpt lat="40.328470" lon="-1.112441">
        <ele>870.613</ele>
        <time>2015-02-19T17:42:49Z</time>
      </trkpt>
      <trkpt lat="40.328491" lon="-1.112382">
        <ele>870.628</ele>
        <time>2015-02-19T17:43:09Z</time>
      </trkpt>
      <trkpt lat="40.328530" lon="-1.111931">
        <ele>872.528</ele>
        <time>2015-02-19T17:43:29Z</time>
      </trkpt>
      <trkpt lat="40.328537" lon="-1.111487">
        <ele>875.414</ele>
        <time>2015-02-19T17:43:49Z</time>
      </trkpt>
      <trkpt lat="40.328544" lon="-1.111385">
        <ele>876.485</ele>
        <time>2015-02-19T17:44:09Z</time>
      </trkpt>
      <trkpt lat="40.328513" lon="-1.111021">
        <ele>879.761</ele>
        <time>2015-02-19T17:44:29Z</time>
      </trkpt>
      <trkpt lat="40.328550" lon="-1.110833">
        <ele>882.221</ele>
        <time>2015-02-19T17:44:49Z</time>
      </trkpt>
      <trkpt lat="40.328563" lon="-1.110810">
        <ele>882.613</ele>
        <time>2015-02-19T17:45:09Z</time>
      </trkpt>
      <trkpt lat="40.328650" lon="-1.110669">
        <ele>884.507</ele>
        <time>2015-02-19T17:45:29Z</time>
      </trkpt>
      <trkpt lat="40.328677" lon="-1.110627">
        <ele>884.594</ele>
        <time>2015-02-19T17:45:49Z</time>
      </trkpt>
      <trkpt lat="40.328746" lon="-1.110265">
        <ele>885.534</ele>
        <time>2015-02-19T17:46:09Z</time>
      </trkpt>
      <trkpt lat="40.328791" lon="-1.109702">
        <ele>886.515</ele>
        <time>2015-02-19T17:46:29Z</time>
      </trkpt>
      <trkpt lat="40.328720" lon="-1.109284">
        <ele>889.430</ele>
        <time>2015-02-19T17:46:49Z</time>
      </trkpt>
      <trkpt lat="40.328953" lon="-1.109005">
        <ele>892.250</ele>
        <time>2015-02-19T17:47:09Z</time>
      </trkpt>
      <trkpt lat="40.329143" lon="-1.108883">
        <ele>895.176</ele>
        <time>2015-02-19T17:47:29Z</time>
      </trkpt>
      <trkpt lat="40.329258" lon="-1.108672">
        <ele>898.557</ele>
        <time>2015-02-19T17:47:49Z</time>
      </trkpt>
      <trkpt lat="40.329284" lon="-1.108529">
        <ele>900.477</ele>
        <time>2015-02-19T17:48:09Z</time>
      </trkpt>
      <trkpt lat="40.329183" lon="-1.108251">
        <ele>903.861</ele>
        <time>2015-02-19T17:48:29Z</time>
      </trkpt>
      <trkpt lat="40.328918" lon="-1.107877">
        <ele>906.227</ele>
        <time>2015-02-19T17:48:49Z</time>
      </trkpt>
      <trkpt lat="40.328856" lon="-1.107618">
        <ele>907.607</ele>
        <time>2015-02-19T17:49:09Z</time>
      </trkpt>
      <trkpt lat="40.328875" lon="-1.107568">
        <ele>907.685</ele>
        <time>2015-02-19T17:49:29Z</time>
      </trkpt>
      <trkpt lat="40.328914" lon="-1.107525">
        <ele>907.635</ele>
        <time>2015-02-19T17:49:49Z</time>
      </trkpt>
      <trkpt lat="40.328931" lon="-1.107505">
        <ele>907.686</ele>
        <time>2015-02-19T17:50:09Z</time>
      </trkpt>
      <trkpt lat="40.329028" lon="-1.107415">
        <ele>908.621</ele>
        <time>2015-02-19T17:50:29Z</time>
      </trkpt>
      <trkpt lat="40.329080" lon="-1.107339">
        <ele>910.191</ele>
        <time>2015-02-19T17:50:49Z</time>
      </trkpt>
      <trkpt lat="40.328871" lon="-1.106857">
        <ele>910.497</ele>
        <time>2015-02-19T17:51:09Z</time>
      </trkpt>
      <trkpt lat="40.328681" lon="-1.106413">
        <ele>910.238</ele>
        <time>2015-02-19T17:51:29Z</time>
      </trkpt>
      <trkpt lat="40.328664" lon="-1.106324">
        <ele>910.393</ele>
        <time>2015-02-19T17:51:49Z</time>
      </trkpt>
      <trkpt lat="40.328703" lon="-1.105987">
        <ele>911.765</ele>
        <time>2015-02-19T17:52:09Z</time>
      </trkpt>
      <trkpt lat="40.328824" lon="-1.105091">
        <ele>916.121</ele>
        <time>2015-02-19T17:52:29Z</time>
      </trkpt>
      <trkpt lat="40.328915" lon="-1.104221">
        <ele>919.707</ele>
        <time>2015-02-19T17:52:49Z</time>
      </trkpt>
      <trkpt lat="40.328968" lon="-1.103715">
        <ele>921.537</ele>
        <time>2015-02-19T17:53:09Z</time>
      </trkpt>
      <trkpt lat="40.329001" lon="-1.102987">
        <ele>921.367</ele>
        <time>2015-02-19T17:53:29Z</time>
      </trkpt>
      <trkpt lat="40.328982" lon="-1.102638">
        <ele>921.238</ele>
        <time>2015-02-19T17:53:49Z</time>
      </trkpt>
      <trkpt lat="40.328922" lon="-1.101740">
        <ele>921.263</ele>
        <time>2015-02-19T17:54:09Z</time>
      </trkpt>
      <trkpt lat="40.328987" lon="-1.101344">
        <ele>922.063</ele>
        <time>2015-02-19T17:54:29Z</time>
      </trkpt>
      <trkpt lat="40.329062" lon="-1.100904">
        <ele>923.439</ele>
        <time>2015-02-19T17:54:49Z</time>
      </trkpt>
      <trkpt lat="40.329006" lon="-1.100715">
        <ele>923.630</ele>
        <time>2015-02-19T17:55:09Z</time>
      </trkpt>
      <trkpt lat="40.328958" lon="-1.100530">
        <ele>923.893</ele>
        <time>2015-02-19T17:55:29Z</time>
      </trkpt>
      <trkpt lat="40.328670" lon="-1.100275">
        <ele>922.765</ele>
        <time>2015-02-19T17:55:49Z</time>
      </trkpt>
      <trkpt lat="40.328290" lon="-1.099822">
        <ele>919.421</ele>
        <time>2015-02-19T17:56:09Z</time>
      </trkpt>
      <trkpt lat="40.328088" lon="-1.099462">
        <ele>918.007</ele>
        <time>2015-02-19T17:56:29Z</time>
      </trkpt>
      <trkpt lat="40.327941" lon="-1.099038">
        <ele>918.127</ele>
        <time>2015-02-19T17:56:49Z</time>
      </trkpt>
      <trkpt lat="40.327804" lon="-1.098537">
        <ele>919.477</ele>
        <time>2015-02-19T17:57:09Z</time>
      </trkpt>
      <trkpt lat="40.327707" lon="-1.097742">
        <ele>921.988</ele>
        <time>2015-02-19T17:57:29Z</time>
      </trkpt>
      <trkpt lat="40.327553" lon="-1.097343">
        <ele>922.563</ele>
        <time>2015-02-19T17:57:49Z</time>
      </trkpt>
      <trkpt lat="40.327410" lon="-1.096868">
        <ele>923.193</ele>
        <time>2015-02-19T17:58:09Z</time>
      </trkpt>
      <trkpt lat="40.327515" lon="-1.096596">
        <ele>924.069</ele>
        <time>2015-02-19T17:58:29Z</time>
      </trkpt>
      <trkpt lat="40.327480" lon="-1.096420">
        <ele>924.170</ele>
        <time>2015-02-19T17:58:49Z</time>
      </trkpt>
      <trkpt lat="40.327301" lon="-1.096114">
        <ele>923.858</ele>
        <time>2015-02-19T17:59:09Z</time>
      </trkpt>
      <trkpt lat="40.326455" lon="-1.095095">
        <ele>922.752</ele>
        <time>2015-02-19T17:59:29Z</time>
      </trkpt>
      <trkpt lat="40.326133" lon="-1.094685">
        <ele>923.617</ele>
        <time>2015-02-19T17:59:49Z</time>
      </trkpt>
      <trkpt lat="40.325988" lon="-1.094117">
        <ele>925.507</ele>
        <time>2015-02-19T18:00:09Z</time>
      </trkpt>
      <trkpt lat="40.325929" lon="-1.093673">
        <ele>926.763</ele>
        <time>2015-02-19T18:00:29Z</time>
      </trkpt>
      <trkpt lat="40.325949" lon="-1.093311">
        <ele>928.023</ele>
        <time>2015-02-19T18:00:49Z</time>
      </trkpt>
      <trkpt lat="40.325991" lon="-1.093108">
        <ele>928.944</ele>
        <time>2015-02-19T18:01:09Z</time>
      </trkpt>
      <trkpt lat="40.326229" lon="-1.092716">
        <ele>931.279</ele>
        <time>2015-02-19T18:01:29Z</time>
      </trkpt>
      <trkpt lat="40.327129" lon="-1.091530">
        <ele>936.829</ele>
        <time>2015-02-19T18:01:49Z</time>
      </trkpt>
      <trkpt lat="40.327388" lon="-1.091212">
        <ele>938.665</ele>
        <time>2015-02-19T18:02:09Z</time>
      </trkpt>
      <trkpt lat="40.327494" lon="-1.091041">
        <ele>939.216</ele>
        <time>2015-02-19T18:02:29Z</time>
      </trkpt>
      <trkpt lat="40.327673" lon="-1.090959">
        <ele>940.521</ele>
        <time>2015-02-19T18:02:49Z</time>
      </trkpt>
      <trkpt lat="40.328757" lon="-1.089988">
        <ele>943.041</ele>
        <time>2015-02-19T18:03:09Z</time>
      </trkpt>
      <trkpt lat="40.328811" lon="-1.089767">
        <ele>943.605</ele>
        <time>2015-02-19T18:03:29Z</time>
      </trkpt>
      <trkpt lat="40.329004" lon="-1.089755">
        <ele>944.007</ele>
        <time>2015-02-19T18:03:49Z</time>
      </trkpt>
      <trkpt lat="40.329137" lon="-1.089675">
        <ele>944.380</ele>
        <time>2015-02-19T18:04:09Z</time>
      </trkpt>
      <trkpt lat="40.329604" lon="-1.089090">
        <ele>946.260</ele>
        <time>2015-02-19T18:04:29Z</time>
      </trkpt>
      <trkpt lat="40.330032" lon="-1.088532">
        <ele>947.471</ele>
        <time>2015-02-19T18:04:49Z</time>
      </trkpt>
      <trkpt lat="40.330239" lon="-1.088232">
        <ele>947.716</ele>
        <time>2015-02-19T18:05:09Z</time>
      </trkpt>
      <trkpt lat="40.330320" lon="-1.088053">
        <ele>947.986</ele>
        <time>2015-02-19T18:05:29Z</time>
      </trkpt>
      <trkpt lat="40.330403" lon="-1.088009">
        <ele>947.982</ele>
        <time>2015-02-19T18:05:49Z</time>
      </trkpt>
      <trkpt lat="40.330623" lon="-1.087725">
        <ele>949.313</ele>
        <time>2015-02-19T18:06:09Z</time>
      </trkpt>
      <trkpt lat="40.330825" lon="-1.087493">
        <ele>950.555</ele>
        <time>2015-02-19T18:06:29Z</time>
      </trkpt>
      <trkpt lat="40.331220" lon="-1.087237">
        <ele>951.807</ele>
        <time>2015-02-19T18:06:49Z</time>
      </trkpt>
      <trkpt lat="40.332065" lon="-1.087029">
        <ele>957.917</ele>
        <time>2015-02-19T18:07:09Z</time>
      </trkpt>
      <trkpt lat="40.333135" lon="-1.086762">
        <ele>958.907</ele>
        <time>2015-02-19T18:07:29Z</time>
      </trkpt>
      <trkpt lat="40.333185" lon="-1.086686">
        <ele>958.713</ele>
        <time>2015-02-19T18:07:49Z</time>
      </trkpt>
      <trkpt lat="40.333153" lon="-1.086308">
        <ele>958.113</ele>
        <time>2015-02-19T18:08:09Z</time>
      </trkpt>
      <trkpt lat="40.333065" lon="-1.085559">
        <ele>957.824</ele>
        <time>2015-02-19T18:08:29Z</time>
      </trkpt>
      <trkpt lat="40.333144" lon="-1.085573">
        <ele>958.181</ele>
        <time>2015-02-19T09:28:17Z</time>
      </trkpt>
      <trkpt lat="40.333189" lon="-1.086295">
        <ele>958.161</ele>
        <time>2015-02-19T09:28:37Z</time>
      </trkpt>
      <trkpt lat="40.333246" lon="-1.086709">
        <ele>958.717</ele>
        <time>2015-02-19T09:28:57Z</time>
      </trkpt>
      <trkpt lat="40.333098" lon="-1.086831">
        <ele>959.107</ele>
        <time>2015-02-19T09:29:17Z</time>
      </trkpt>
      <trkpt lat="40.332065" lon="-1.087029">
        <ele>957.916</ele>
        <time>2015-02-19T09:29:37Z</time>
      </trkpt>
      <trkpt lat="40.331220" lon="-1.087237">
        <ele>951.816</ele>
        <time>2015-02-19T09:29:57Z</time>
      </trkpt>
      <trkpt lat="40.330825" lon="-1.087493">
        <ele>950.587</ele>
        <time>2015-02-19T09:30:17Z</time>
      </trkpt>
      <trkpt lat="40.330623" lon="-1.087725">
        <ele>949.312</ele>
        <time>2015-02-19T09:30:37Z</time>
      </trkpt>
      <trkpt lat="40.330403" lon="-1.088009">
        <ele>947.992</ele>
        <time>2015-02-19T09:30:57Z</time>
      </trkpt>
      <trkpt lat="40.330320" lon="-1.088053">
        <ele>947.958</ele>
        <time>2015-02-19T09:31:17Z</time>
      </trkpt>
      <trkpt lat="40.330239" lon="-1.088232">
        <ele>947.783</ele>
        <time>2015-02-19T09:31:37Z</time>
      </trkpt>
      <trkpt lat="40.330029" lon="-1.088594">
        <ele>947.384</ele>
        <time>2015-02-19T09:31:57Z</time>
      </trkpt>
      <trkpt lat="40.329592" lon="-1.089147">
        <ele>946.007</ele>
        <time>2015-02-19T09:32:17Z</time>
      </trkpt>
      <trkpt lat="40.329108" lon="-1.089714">
        <ele>944.217</ele>
        <time>2015-02-19T09:32:37Z</time>
      </trkpt>
      <trkpt lat="40.328940" lon="-1.089782">
        <ele>943.807</ele>
        <time>2015-02-19T09:32:57Z</time>
      </trkpt>
      <trkpt lat="40.328810" lon="-1.089794">
        <ele>943.626</ele>
        <time>2015-02-19T09:33:17Z</time>
      </trkpt>
      <trkpt lat="40.328740" lon="-1.090032">
        <ele>942.936</ele>
        <time>2015-02-19T09:33:37Z</time>
      </trkpt>
      <trkpt lat="40.328301" lon="-1.090425">
        <ele>941.537</ele>
        <time>2015-02-19T09:33:57Z</time>
      </trkpt>
      <trkpt lat="40.327851" lon="-1.090840">
        <ele>941.572</ele>
        <time>2015-02-19T09:34:17Z</time>
      </trkpt>
      <trkpt lat="40.327653" lon="-1.091010">
        <ele>940.422</ele>
        <time>2015-02-19T09:34:37Z</time>
      </trkpt>
      <trkpt lat="40.327494" lon="-1.091041">
        <ele>939.248</ele>
        <time>2015-02-19T09:34:57Z</time>
      </trkpt>
      <trkpt lat="40.327393" lon="-1.091227">
        <ele>938.793</ele>
        <time>2015-02-19T09:35:17Z</time>
      </trkpt>
      <trkpt lat="40.327128" lon="-1.091545">
        <ele>936.849</ele>
        <time>2015-02-19T09:35:37Z</time>
      </trkpt>
      <trkpt lat="40.326979" lon="-1.091739">
        <ele>936.102</ele>
        <time>2015-02-19T09:35:57Z</time>
      </trkpt>
      <trkpt lat="40.326882" lon="-1.091866">
        <ele>935.622</ele>
        <time>2015-02-19T09:36:17Z</time>
      </trkpt>
      <trkpt lat="40.326666" lon="-1.092164">
        <ele>934.507</ele>
        <time>2015-02-19T09:36:37Z</time>
      </trkpt>
      <trkpt lat="40.326242" lon="-1.092736">
        <ele>931.222</ele>
        <time>2015-02-19T09:36:57Z</time>
      </trkpt>
      <trkpt lat="40.326103" lon="-1.092937">
        <ele>930.152</ele>
        <time>2015-02-19T09:37:17Z</time>
      </trkpt>
      <trkpt lat="40.326043" lon="-1.093071">
        <ele>929.363</ele>
        <time>2015-02-19T09:37:37Z</time>
      </trkpt>
      <trkpt lat="40.325955" lon="-1.093320">
        <ele>928.088</ele>
        <time>2015-02-19T09:37:57Z</time>
      </trkpt>
      <trkpt lat="40.325927" lon="-1.093692">
        <ele>926.718</ele>
        <time>2015-02-19T09:38:17Z</time>
      </trkpt>
      <trkpt lat="40.326003" lon="-1.094110">
        <ele>925.694</ele>
        <time>2015-02-19T09:38:37Z</time>
      </trkpt>
      <trkpt lat="40.326192" lon="-1.094639">
        <ele>923.859</ele>
        <time>2015-02-19T09:38:57Z</time>
      </trkpt>
      <trkpt lat="40.326528" lon="-1.095057">
        <ele>923.144</ele>
        <time>2015-02-19T09:39:17Z</time>
      </trkpt>
      <trkpt lat="40.327016" lon="-1.095725">
        <ele>922.705</ele>
        <time>2015-02-19T09:39:37Z</time>
      </trkpt>
      <trkpt lat="40.327120" lon="-1.095850">
        <ele>922.915</ele>
        <time>2015-02-19T09:39:57Z</time>
      </trkpt>
      <trkpt lat="40.327301" lon="-1.096114">
        <ele>923.807</ele>
        <time>2015-02-19T09:40:17Z</time>
      </trkpt>
      <trkpt lat="40.327456" lon="-1.096447">
        <ele>924.082</ele>
        <time>2015-02-19T09:40:37Z</time>
      </trkpt>
      <trkpt lat="40.327496" lon="-1.096620">
        <ele>923.972</ele>
        <time>2015-02-19T09:40:57Z</time>
      </trkpt>
      <trkpt lat="40.327603" lon="-1.096841">
        <ele>923.853</ele>
        <time>2015-02-19T09:41:17Z</time>
      </trkpt>
      <trkpt lat="40.327673" lon="-1.096924">
        <ele>923.848</ele>
        <time>2015-02-19T09:41:37Z</time>
      </trkpt>
      <trkpt lat="40.327751" lon="-1.097008">
        <ele>923.838</ele>
        <time>2015-02-19T09:41:57Z</time>
      </trkpt>
      <trkpt lat="40.327699" lon="-1.097132">
        <ele>923.444</ele>
        <time>2015-02-19T09:42:17Z</time>
      </trkpt>
      <trkpt lat="40.327592" lon="-1.097228">
        <ele>922.959</ele>
        <time>2015-02-19T09:42:37Z</time>
      </trkpt>
      <trkpt lat="40.327524" lon="-1.097211">
        <ele>922.825</ele>
        <time>2015-02-19T09:42:57Z</time>
      </trkpt>
      <trkpt lat="40.327458" lon="-1.097187">
        <ele>922.726</ele>
        <time>2015-02-19T09:43:17Z</time>
      </trkpt>
      <trkpt lat="40.327396" lon="-1.097047">
        <ele>922.808</ele>
        <time>2015-02-19T09:43:37Z</time>
      </trkpt>
      <trkpt lat="40.327207" lon="-1.096481">
        <ele>922.507</ele>
        <time>2015-02-19T09:43:57Z</time>
      </trkpt>
      <trkpt lat="40.326892" lon="-1.096050">
        <ele>921.210</ele>
        <time>2015-02-19T09:44:17Z</time>
      </trkpt>
      <trkpt lat="40.326624" lon="-1.095790">
        <ele>921.540</ele>
        <time>2015-02-19T09:44:37Z</time>
      </trkpt>
      <trkpt lat="40.326100" lon="-1.095401">
        <ele>919.821</ele>
        <time>2015-02-19T09:44:57Z</time>
      </trkpt>
      <trkpt lat="40.325569" lon="-1.095050">
        <ele>919.726</ele>
        <time>2015-02-19T09:45:17Z</time>
      </trkpt>
      <trkpt lat="40.324904" lon="-1.094565">
        <ele>919.226</ele>
        <time>2015-02-19T09:45:37Z</time>
      </trkpt>
      <trkpt lat="40.324513" lon="-1.094335">
        <ele>919.212</ele>
        <time>2015-02-19T09:45:57Z</time>
      </trkpt>
      <trkpt lat="40.323959" lon="-1.093963">
        <ele>924.417</ele>
        <time>2015-02-19T09:46:17Z</time>
      </trkpt>
      <trkpt lat="40.323531" lon="-1.093684">
        <ele>929.853</ele>
        <time>2015-02-19T09:46:37Z</time>
      </trkpt>
      <trkpt lat="40.323416" lon="-1.093719">
        <ele>929.904</ele>
        <time>2015-02-19T09:46:57Z</time>
      </trkpt>
      <trkpt lat="40.323343" lon="-1.094020">
        <ele>920.014</ele>
        <time>2015-02-19T09:47:17Z</time>
      </trkpt>
      <trkpt lat="40.323295" lon="-1.094429">
        <ele>926.907</ele>
        <time>2015-02-19T09:47:37Z</time>
      </trkpt>
      <trkpt lat="40.323157" lon="-1.094986">
        <ele>924.593</ele>
        <time>2015-02-19T09:47:57Z</time>
      </trkpt>
      <trkpt lat="40.322985" lon="-1.095699">
        <ele>922.483</ele>
        <time>2015-02-19T09:48:17Z</time>
      </trkpt>
      <trkpt lat="40.322932" lon="-1.096076">
        <ele>921.424</ele>
        <time>2015-02-19T09:48:37Z</time>
      </trkpt>
      <trkpt lat="40.322832" lon="-1.096589">
        <ele>921.319</ele>
        <time>2015-02-19T09:48:57Z</time>
      </trkpt>
      <trkpt lat="40.322745" lon="-1.096995">
        <ele>922.189</ele>
        <time>2015-02-19T09:49:17Z</time>
      </trkpt>
      <trkpt lat="40.322645" lon="-1.097201">
        <ele>924.155</ele>
        <time>2015-02-19T09:49:37Z</time>
      </trkpt>
      <trkpt lat="40.321998" lon="-1.096981">
        <ele>926.660</ele>
        <time>2015-02-19T09:49:57Z</time>
      </trkpt>
      <trkpt lat="40.321391" lon="-1.096642">
        <ele>925.867</ele>
        <time>2015-02-19T09:50:17Z</time>
      </trkpt>
      <trkpt lat="40.320832" lon="-1.096339">
        <ele>925.481</ele>
        <time>2015-02-19T09:50:37Z</time>
      </trkpt>
      <trkpt lat="40.320325" lon="-1.096127">
        <ele>925.619</ele>
        <time>2015-02-19T09:50:57Z</time>
      </trkpt>
      <trkpt lat="40.319180" lon="-1.095499">
        <ele>923.107</ele>
        <time>2015-02-19T09:51:17Z</time>
      </trkpt>
      <trkpt lat="40.318488" lon="-1.095079">
        <ele>918.084</ele>
        <time>2015-02-19T09:51:37Z</time>
      </trkpt>
      <trkpt lat="40.317354" lon="-1.095081">
        <ele>913.254</ele>
        <time>2015-02-19T09:51:57Z</time>
      </trkpt>
      <trkpt lat="40.316320" lon="-1.095022">
        <ele>909.455</ele>
        <time>2015-02-19T09:52:17Z</time>
      </trkpt>
      <trkpt lat="40.315742" lon="-1.094686">
        <ele>906.190</ele>
        <time>2015-02-19T09:52:37Z</time>
      </trkpt>
      <trkpt lat="40.315267" lon="-1.094480">
        <ele>903.310</ele>
        <time>2015-02-19T09:52:57Z</time>
      </trkpt>
      <trkpt lat="40.314655" lon="-1.094820">
        <ele>899.966</ele>
        <time>2015-02-19T09:53:17Z</time>
      </trkpt>
      <trkpt lat="40.314299" lon="-1.094976">
        <ele>897.661</ele>
        <time>2015-02-19T09:53:37Z</time>
      </trkpt>
      <trkpt lat="40.313740" lon="-1.095828">
        <ele>896.968</ele>
        <time>2015-02-19T09:53:57Z</time>
      </trkpt>
      <trkpt lat="40.313341" lon="-1.096147">
        <ele>892.542</ele>
        <time>2015-02-19T09:54:17Z</time>
      </trkpt>
      <trkpt lat="40.312978" lon="-1.096612">
        <ele>890.426</ele>
        <time>2015-02-19T09:54:37Z</time>
      </trkpt>
      <trkpt lat="40.312667" lon="-1.096812">
        <ele>889.207</ele>
        <time>2015-02-19T09:54:57Z</time>
      </trkpt>
      <trkpt lat="40.312197" lon="-1.096898">
        <ele>888.774</ele>
        <time>2015-02-19T09:55:17Z</time>
      </trkpt>
      <trkpt lat="40.312151" lon="-1.097516">
        <ele>888.674</ele>
        <time>2015-02-19T09:55:37Z</time>
      </trkpt>
      <trkpt lat="40.312003" lon="-1.098107">
        <ele>889.425</ele>
        <time>2015-02-19T09:55:57Z</time>
      </trkpt>
      <trkpt lat="40.311930" lon="-1.098446">
        <ele>889.920</ele>
        <time>2015-02-19T09:56:17Z</time>
      </trkpt>
      <trkpt lat="40.311880" lon="-1.099504">
        <ele>926.110</ele>
        <time>2015-02-19T09:56:37Z</time>
      </trkpt>
      <trkpt lat="40.311809" lon="-1.099974">
        <ele>889.226</ele>
        <time>2015-02-19T09:56:57Z</time>
      </trkpt>
      <trkpt lat="40.311838" lon="-1.100355">
        <ele>887.981</ele>
        <time>2015-02-19T09:57:17Z</time>
      </trkpt>
      <trkpt lat="40.312138" lon="-1.100815">
        <ele>885.564</ele>
        <time>2015-02-19T09:57:37Z</time>
      </trkpt>
      <trkpt lat="40.312201" lon="-1.101225">
        <ele>885.806</ele>
        <time>2015-02-19T09:57:57Z</time>
      </trkpt>
      <trkpt lat="40.312177" lon="-1.101813">
        <ele>887.816</ele>
        <time>2015-02-19T09:58:17Z</time>
      </trkpt>
      <trkpt lat="40.312195" lon="-1.102956">
        <ele>891.707</ele>
        <time>2015-02-19T09:58:37Z</time>
      </trkpt>
      <trkpt lat="40.312221" lon="-1.103121">
        <ele>925.444</ele>
        <time>2015-02-19T09:58:57Z</time>
      </trkpt>
      <trkpt lat="40.312340" lon="-1.104243">
        <ele>890.224</ele>
        <time>2015-02-19T09:59:17Z</time>
      </trkpt>
      <trkpt lat="40.312644" lon="-1.104983">
        <ele>887.015</ele>
        <time>2015-02-19T09:59:37Z</time>
      </trkpt>
      <trkpt lat="40.312731" lon="-1.105508">
        <ele>887.270</ele>
        <time>2015-02-19T09:59:57Z</time>
      </trkpt>
      <trkpt lat="40.312862" lon="-1.105945">
        <ele>888.180</ele>
        <time>2015-02-19T10:00:17Z</time>
      </trkpt>
      <trkpt lat="40.313150" lon="-1.106391">
        <ele>889.916</ele>
        <time>2015-02-19T10:00:37Z</time>
      </trkpt>
      <trkpt lat="40.313378" lon="-1.106590">
        <ele>889.691</ele>
        <time>2015-02-19T10:00:57Z</time>
      </trkpt>
      <trkpt lat="40.313530" lon="-1.106938">
        <ele>891.271</ele>
        <time>2015-02-19T10:01:17Z</time>
      </trkpt>
      <trkpt lat="40.313931" lon="-1.107469">
        <ele>888.241</ele>
        <time>2015-02-19T10:01:37Z</time>
      </trkpt>
      <trkpt lat="40.314455" lon="-1.107938">
        <ele>881.215</ele>
        <time>2015-02-19T10:01:57Z</time>
      </trkpt>
      <trkpt lat="40.315027" lon="-1.108583">
        <ele>880.607</ele>
        <time>2015-02-19T10:02:17Z</time>
      </trkpt>
      <trkpt lat="40.315368" lon="-1.108779">
        <ele>879.185</ele>
        <time>2015-02-19T10:02:37Z</time>
      </trkpt>
      <trkpt lat="40.315637" lon="-1.108801">
        <ele>879.775</ele>
        <time>2015-02-19T10:02:57Z</time>
      </trkpt>
      <trkpt lat="40.316219" lon="-1.110046">
        <ele>875.466</ele>
        <time>2015-02-19T10:03:17Z</time>
      </trkpt>
      <trkpt lat="40.316534" lon="-1.110741">
        <ele>877.271</ele>
        <time>2015-02-19T10:03:37Z</time>
      </trkpt>
      <trkpt lat="40.316951" lon="-1.111507">
        <ele>876.911</ele>
        <time>2015-02-19T10:03:57Z</time>
      </trkpt>
      <trkpt lat="40.317092" lon="-1.111899">
        <ele>877.367</ele>
        <time>2015-02-19T10:04:17Z</time>
      </trkpt>
      <trkpt lat="40.317205" lon="-1.112673">
        <ele>878.092</ele>
        <time>2015-02-19T10:04:37Z</time>
      </trkpt>
      <trkpt lat="40.317454" lon="-1.113458">
        <ele>878.151</ele>
        <time>2015-02-19T10:04:57Z</time>
      </trkpt>
      <trkpt lat="40.317822" lon="-1.114020">
        <ele>875.101</ele>
        <time>2015-02-19T10:05:17Z</time>
      </trkpt>
      <trkpt lat="40.318449" lon="-1.114590">
        <ele>873.311</ele>
        <time>2015-02-19T10:05:37Z</time>
      </trkpt>
      <trkpt lat="40.319087" lon="-1.115159">
        <ele>872.707</ele>
        <time>2015-02-19T10:05:57Z</time>
      </trkpt>
      <trkpt lat="40.319428" lon="-1.115355">
        <ele>872.893</ele>
        <time>2015-02-19T10:06:17Z</time>
      </trkpt>
      <trkpt lat="40.319754" lon="-1.115419">
        <ele>872.563</ele>
        <time>2015-02-19T10:06:37Z</time>
      </trkpt>
      <trkpt lat="40.319955" lon="-1.115340">
        <ele>872.674</ele>
        <time>2015-02-19T10:06:57Z</time>
      </trkpt>
      <trkpt lat="40.320240" lon="-1.116315">
        <ele>871.849</ele>
        <time>2015-02-19T10:07:17Z</time>
      </trkpt>
      <trkpt lat="40.320025" lon="-1.116474">
        <ele>867.299</ele>
        <time>2015-02-19T10:07:37Z</time>
      </trkpt>
      <trkpt lat="40.318901" lon="-1.117166">
        <ele>867.725</ele>
        <time>2015-02-19T10:07:57Z</time>
      </trkpt>
      <trkpt lat="40.318303" lon="-1.118042">
        <ele>866.840</ele>
        <time>2015-02-19T10:08:17Z</time>
      </trkpt>
      <trkpt lat="40.318251" lon="-1.118114">
        <ele>867.289</ele>
        <time>2015-02-19T10:08:37Z</time>
      </trkpt>
      <trkpt lat="40.318195" lon="-1.118179">
        <ele>867.206</ele>
        <time>2015-02-19T10:08:57Z</time>
      </trkpt>
      <trkpt lat="40.317940" lon="-1.118368">
        <ele>866.326</ele>
        <time>2015-02-19T10:09:17Z</time>
      </trkpt>
      <trkpt lat="40.317143" lon="-1.118546">
        <ele>866.307</ele>
        <time>2015-02-19T10:09:37Z</time>
      </trkpt>
      <trkpt lat="40.316124" lon="-1.118825">
        <ele>869.236</ele>
        <time>2015-02-19T10:09:57Z</time>
      </trkpt>
      <trkpt lat="40.316044" lon="-1.118867">
        <ele>868.736</ele>
        <time>2015-02-19T10:10:17Z</time>
      </trkpt>
      <trkpt lat="40.315505" lon="-1.119187">
        <ele>872.037</ele>
        <time>2015-02-19T10:10:37Z</time>
      </trkpt>
      <trkpt lat="40.314998" lon="-1.119468">
        <ele>873.022</ele>
        <time>2015-02-19T10:10:57Z</time>
      </trkpt>
      <trkpt lat="40.314151" lon="-1.119937">
        <ele>873.572</ele>
        <time>2015-02-19T10:11:17Z</time>
      </trkpt>
      <trkpt lat="40.313126" lon="-1.120495">
        <ele>871.658</ele>
        <time>2015-02-19T10:11:37Z</time>
      </trkpt>
      <trkpt lat="40.313070" lon="-1.120530">
        <ele>871.623</ele>
        <time>2015-02-19T10:11:57Z</time>
      </trkpt>
      <trkpt lat="40.312509" lon="-1.120828">
        <ele>870.641</ele>
        <time>2015-02-19T10:12:17Z</time>
      </trkpt>
      <trkpt lat="40.312449" lon="-1.120848">
        <ele>869.781</ele>
        <time>2015-02-19T10:12:37Z</time>
      </trkpt>
      <trkpt lat="40.311626" lon="-1.121161">
        <ele>868.709</ele>
        <time>2015-02-19T10:12:57Z</time>
      </trkpt>
      <trkpt lat="40.310652" lon="-1.121425">
        <ele>868.707</ele>
        <time>2015-02-19T10:13:17Z</time>
      </trkpt>
      <trkpt lat="40.309521" lon="-1.121689">
        <ele>866.872</ele>
        <time>2015-02-19T10:13:37Z</time>
      </trkpt>
      <trkpt lat="40.308073" lon="-1.122026">
        <ele>868.212</ele>
        <time>2015-02-19T10:13:57Z</time>
      </trkpt>
      <trkpt lat="40.306677" lon="-1.122341">
        <ele>868.753</ele>
        <time>2015-02-19T10:14:17Z</time>
      </trkpt>
      <trkpt lat="40.305435" lon="-1.122626">
        <ele>867.248</ele>
        <time>2015-02-19T10:14:37Z</time>
      </trkpt>
      <trkpt lat="40.304416" lon="-1.122837">
        <ele>866.358</ele>
        <time>2015-02-19T10:14:57Z</time>
      </trkpt>
      <trkpt lat="40.303486" lon="-1.123060">
        <ele>865.854</ele>
        <time>2015-02-19T10:15:17Z</time>
      </trkpt>
      <trkpt lat="40.302508" lon="-1.123349">
        <ele>865.879</ele>
        <time>2015-02-19T10:15:37Z</time>
      </trkpt>
      <trkpt lat="40.302122" lon="-1.123477">
        <ele>866.395</ele>
        <time>2015-02-19T10:15:57Z</time>
      </trkpt>
      <trkpt lat="40.301426" lon="-1.123719">
        <ele>865.349</ele>
        <time>2015-02-19T10:16:17Z</time>
      </trkpt>
      <trkpt lat="40.300530" lon="-1.123877">
        <ele>865.823</ele>
        <time>2015-02-19T10:16:37Z</time>
      </trkpt>
      <trkpt lat="40.299608" lon="-1.123992">
        <ele>865.807</ele>
        <time>2015-02-19T10:16:57Z</time>
      </trkpt>
      <trkpt lat="40.299540" lon="-1.123999">
        <ele>865.817</ele>
        <time>2015-02-19T10:17:17Z</time>
      </trkpt>
      <trkpt lat="40.299473" lon="-1.123996">
        <ele>865.817</ele>
        <time>2015-02-19T10:17:37Z</time>
      </trkpt>
      <trkpt lat="40.299412" lon="-1.123976">
        <ele>866.318</ele>
        <time>2015-02-19T10:17:57Z</time>
      </trkpt>
      <trkpt lat="40.299345" lon="-1.123945">
        <ele>866.383</ele>
        <time>2015-02-19T10:18:17Z</time>
      </trkpt>
      <trkpt lat="40.299280" lon="-1.123908">
        <ele>866.883</ele>
        <time>2015-02-19T10:18:37Z</time>
      </trkpt>
      <trkpt lat="40.299215" lon="-1.123865">
        <ele>866.899</ele>
        <time>2015-02-19T10:18:57Z</time>
      </trkpt>
      <trkpt lat="40.299152" lon="-1.123816">
        <ele>867.294</ele>
        <time>2015-02-19T10:19:17Z</time>
      </trkpt>
      <trkpt lat="40.299043" lon="-1.123694">
        <ele>867.785</ele>
        <time>2015-02-19T10:19:37Z</time>
      </trkpt>
      <trkpt lat="40.298949" lon="-1.123566">
        <ele>868.789</ele>
        <time>2015-02-19T10:19:57Z</time>
      </trkpt>
      <trkpt lat="40.298901" lon="-1.123510">
        <ele>868.717</ele>
        <time>2015-02-19T10:20:17Z</time>
      </trkpt>
      <trkpt lat="40.298861" lon="-1.123451">
        <ele>869.207</ele>
        <time>2015-02-19T10:20:37Z</time>
      </trkpt>
      <trkpt lat="40.298797" lon="-1.123329">
        <ele>870.186</ele>
        <time>2015-02-19T10:20:57Z</time>
      </trkpt>
      <trkpt lat="40.298773" lon="-1.123271">
        <ele>870.686</ele>
        <time>2015-02-19T10:21:17Z</time>
      </trkpt>
      <trkpt lat="40.298755" lon="-1.123216">
        <ele>869.797</ele>
        <time>2015-02-19T10:21:37Z</time>
      </trkpt>
      <trkpt lat="40.298632" lon="-1.122751">
        <ele>868.792</ele>
        <time>2015-02-19T10:21:57Z</time>
      </trkpt>
      <trkpt lat="40.298386" lon="-1.122568">
        <ele>866.382</ele>
        <time>2015-02-19T10:22:17Z</time>
      </trkpt>
      <trkpt lat="40.298055" lon="-1.122736">
        <ele>864.478</ele>
        <time>2015-02-19T10:22:37Z</time>
      </trkpt>
      <trkpt lat="40.298030" lon="-1.122769">
        <ele>869.543</ele>
        <time>2015-02-19T10:22:57Z</time>
      </trkpt>
      <trkpt lat="40.298029" lon="-1.122769">
        <ele>869.558</ele>
        <time>2015-02-19T10:23:17Z</time>
      </trkpt>
      <trkpt lat="40.297529" lon="-1.122846">
        <ele>860.652</ele>
        <time>2015-02-19T10:23:37Z</time>
      </trkpt>
      <trkpt lat="40.297309" lon="-1.123094">
        <ele>860.217</ele>
        <time>2015-02-19T10:23:57Z</time>
      </trkpt>
      <trkpt lat="40.297262" lon="-1.123258">
        <ele>860.207</ele>
        <time>2015-02-19T10:24:17Z</time>
      </trkpt>
      <trkpt lat="40.297187" lon="-1.123776">
        <ele>860.523</ele>
        <time>2015-02-19T10:24:37Z</time>
      </trkpt>
      <trkpt lat="40.297091" lon="-1.124354">
        <ele>861.953</ele>
        <time>2015-02-19T10:24:57Z</time>
      </trkpt>
      <trkpt lat="40.296955" lon="-1.124694">
        <ele>862.754</ele>
        <time>2015-02-19T10:25:17Z</time>
      </trkpt>
      <trkpt lat="40.296676" lon="-1.125080">
        <ele>864.529</ele>
        <time>2015-02-19T10:25:37Z</time>
      </trkpt>
      <trkpt lat="40.296359" lon="-1.125461">
        <ele>864.169</ele>
        <time>2015-02-19T10:25:57Z</time>
      </trkpt>
      <trkpt lat="40.295930" lon="-1.125926">
        <ele>861.845</ele>
        <time>2015-02-19T10:26:17Z</time>
      </trkpt>
      <trkpt lat="40.295737" lon="-1.126063">
        <ele>860.470</ele>
        <time>2015-02-19T10:26:37Z</time>
      </trkpt>
      <trkpt lat="40.295218" lon="-1.126224">
        <ele>859.655</ele>
        <time>2015-02-19T10:26:57Z</time>
      </trkpt>
      <trkpt lat="40.294860" lon="-1.126322">
        <ele>859.507</ele>
        <time>2015-02-19T10:27:17Z</time>
      </trkpt>
      <trkpt lat="40.294547" lon="-1.126559">
        <ele>860.417</ele>
        <time>2015-02-19T10:27:37Z</time>
      </trkpt>
      <trkpt lat="40.294176" lon="-1.126759">
        <ele>860.507</ele>
        <time>2015-02-19T10:27:57Z</time>
      </trkpt>
      <trkpt lat="40.293654" lon="-1.126996">
        <ele>861.213</ele>
        <time>2015-02-19T10:28:17Z</time>
      </trkpt>
      <trkpt lat="40.293189" lon="-1.127179">
        <ele>861.883</ele>
        <time>2015-02-19T10:28:37Z</time>
      </trkpt>
      <trkpt lat="40.292765" lon="-1.127345">
        <ele>862.034</ele>
        <time>2015-02-19T10:28:57Z</time>
      </trkpt>
      <trkpt lat="40.292298" lon="-1.127579">
        <ele>861.849</ele>
        <time>2015-02-19T10:29:17Z</time>
      </trkpt>
      <trkpt lat="40.291845" lon="-1.127915">
        <ele>861.139</ele>
        <time>2015-02-19T10:29:37Z</time>
      </trkpt>
      <trkpt lat="40.291278" lon="-1.128414">
        <ele>859.955</ele>
        <time>2015-02-19T10:29:57Z</time>
      </trkpt>
      <trkpt lat="40.290837" lon="-1.128825">
        <ele>859.790</ele>
        <time>2015-02-19T10:30:17Z</time>
      </trkpt>
      <trkpt lat="40.290425" lon="-1.129284">
        <ele>860.561</ele>
        <time>2015-02-19T10:30:37Z</time>
      </trkpt>
      <trkpt lat="40.290123" lon="-1.129557">
        <ele>860.521</ele>
        <time>2015-02-19T10:30:57Z</time>
      </trkpt>
      <trkpt lat="40.289689" lon="-1.129787">
        <ele>859.913</ele>
        <time>2015-02-19T10:31:17Z</time>
      </trkpt>
      <trkpt lat="40.289328" lon="-1.129867">
        <ele>859.407</ele>
        <time>2015-02-19T10:31:37Z</time>
      </trkpt>
      <trkpt lat="40.288964" lon="-1.129788">
        <ele>859.114</ele>
        <time>2015-02-19T10:31:57Z</time>
      </trkpt>
      <trkpt lat="40.288511" lon="-1.129569">
        <ele>858.834</ele>
        <time>2015-02-19T10:32:17Z</time>
      </trkpt>
      <trkpt lat="40.287927" lon="-1.129219">
        <ele>858.115</ele>
        <time>2015-02-19T10:32:37Z</time>
      </trkpt>
      <trkpt lat="40.287365" lon="-1.128771">
        <ele>857.580</ele>
        <time>2015-02-19T10:32:57Z</time>
      </trkpt>
      <trkpt lat="40.286878" lon="-1.128370">
        <ele>856.370</ele>
        <time>2015-02-19T10:33:17Z</time>
      </trkpt>
      <trkpt lat="40.286340" lon="-1.128053">
        <ele>855.276</ele>
        <time>2015-02-19T10:33:37Z</time>
      </trkpt>
      <trkpt lat="40.285679" lon="-1.127826">
        <ele>854.921</ele>
        <time>2015-02-19T10:33:57Z</time>
      </trkpt>
      <trkpt lat="40.285230" lon="-1.127650">
        <ele>855.954</ele>
        <time>2015-02-19T10:34:17Z</time>
      </trkpt>
      <trkpt lat="40.284819" lon="-1.127407">
        <ele>857.356</ele>
        <time>2015-02-19T10:34:37Z</time>
      </trkpt>
      <trkpt lat="40.284376" lon="-1.127012">
        <ele>858.911</ele>
        <time>2015-02-19T10:34:57Z</time>
      </trkpt>
      <trkpt lat="40.283976" lon="-1.126640">
        <ele>860.407</ele>
        <time>2015-02-19T10:35:17Z</time>
      </trkpt>
      <trkpt lat="40.283533" lon="-1.126349">
        <ele>861.793</ele>
        <time>2015-02-19T10:35:37Z</time>
      </trkpt>
      <trkpt lat="40.283303" lon="-1.126261">
        <ele>862.143</ele>
        <time>2015-02-19T10:35:57Z</time>
      </trkpt>
      <trkpt lat="40.282998" lon="-1.126196">
        <ele>862.844</ele>
        <time>2015-02-19T10:36:17Z</time>
      </trkpt>
      <trkpt lat="40.282834" lon="-1.126127">
        <ele>863.489</ele>
        <time>2015-02-19T10:36:37Z</time>
      </trkpt>
      <trkpt lat="40.282776" lon="-1.126016">
        <ele>863.399</ele>
        <time>2015-02-19T10:36:57Z</time>
      </trkpt>
      <trkpt lat="40.282639" lon="-1.125689">
        <ele>863.855</ele>
        <time>2015-02-19T10:37:17Z</time>
      </trkpt>
      <trkpt lat="40.282501" lon="-1.125400">
        <ele>865.970</ele>
        <time>2015-02-19T10:37:37Z</time>
      </trkpt>
      <trkpt lat="40.282325" lon="-1.125250">
        <ele>866.942</ele>
        <time>2015-02-19T10:37:57Z</time>
      </trkpt>
      <trkpt lat="40.282131" lon="-1.125013">
        <ele>867.722</ele>
        <time>2015-02-19T10:38:17Z</time>
      </trkpt>
      <trkpt lat="40.281942" lon="-1.124690">
        <ele>868.114</ele>
        <time>2015-02-19T10:38:37Z</time>
      </trkpt>
      <trkpt lat="40.281661" lon="-1.124399">
        <ele>868.807</ele>
        <time>2015-02-19T10:38:57Z</time>
      </trkpt>
      <trkpt lat="40.281362" lon="-1.124105">
        <ele>869.612</ele>
        <time>2015-02-19T10:39:17Z</time>
      </trkpt>
      <trkpt lat="40.281036" lon="-1.123736">
        <ele>870.222</ele>
        <time>2015-02-19T10:39:37Z</time>
      </trkpt>
      <trkpt lat="40.280818" lon="-1.123558">
        <ele>870.343</ele>
        <time>2015-02-19T10:39:57Z</time>
      </trkpt>
      <trkpt lat="40.280554" lon="-1.123214">
        <ele>870.938</ele>
        <time>2015-02-19T10:40:17Z</time>
      </trkpt>
      <trkpt lat="40.280328" lon="-1.122822">
        <ele>870.968</ele>
        <time>2015-02-19T10:40:37Z</time>
      </trkpt>
      <trkpt lat="40.280312" lon="-1.122771">
        <ele>870.914</ele>
        <time>2015-02-19T10:40:57Z</time>
      </trkpt>
      <trkpt lat="40.280164" lon="-1.122293">
        <ele>870.879</ele>
        <time>2015-02-19T10:41:17Z</time>
      </trkpt>
      <trkpt lat="40.279961" lon="-1.121967">
        <ele>870.586</ele>
        <time>2015-02-19T10:41:37Z</time>
      </trkpt>
      <trkpt lat="40.279771" lon="-1.121675">
        <ele>872.160</ele>
        <time>2015-02-19T10:41:57Z</time>
      </trkpt>
      <trkpt lat="40.279724" lon="-1.121540">
        <ele>872.526</ele>
        <time>2015-02-19T10:42:17Z</time>
      </trkpt>
      <trkpt lat="40.279737" lon="-1.121106">
        <ele>872.907</ele>
        <time>2015-02-19T10:42:37Z</time>
      </trkpt>
      <trkpt lat="40.279811" lon="-1.120502">
        <ele>873.316</ele>
        <time>2015-02-19T10:42:57Z</time>
      </trkpt>
      <trkpt lat="40.279817" lon="-1.120438">
        <ele>873.286</ele>
        <time>2015-02-19T10:43:17Z</time>
      </trkpt>
      <trkpt lat="40.279767" lon="-1.120191">
        <ele>873.287</ele>
        <time>2015-02-19T10:43:37Z</time>
      </trkpt>
      <trkpt lat="40.279707" lon="-1.120098">
        <ele>873.532</ele>
        <time>2015-02-19T10:43:57Z</time>
      </trkpt>
      <trkpt lat="40.279655" lon="-1.119892">
        <ele>873.642</ele>
        <time>2015-02-19T10:44:17Z</time>
      </trkpt>
      <trkpt lat="40.279570" lon="-1.119551">
        <ele>872.928</ele>
        <time>2015-02-19T10:44:37Z</time>
      </trkpt>
      <trkpt lat="40.279507" lon="-1.119432">
        <ele>873.133</ele>
        <time>2015-02-19T10:44:57Z</time>
      </trkpt>
      <trkpt lat="40.279478" lon="-1.119207">
        <ele>874.652</ele>
        <time>2015-02-19T10:45:17Z</time>
      </trkpt>
      <trkpt lat="40.279521" lon="-1.119123">
        <ele>875.553</ele>
        <time>2015-02-19T10:45:37Z</time>
      </trkpt>
      <trkpt lat="40.279630" lon="-1.118954">
        <ele>876.608</ele>
        <time>2015-02-19T10:45:57Z</time>
      </trkpt>
      <trkpt lat="40.279686" lon="-1.118679">
        <ele>877.407</ele>
        <time>2015-02-19T10:46:17Z</time>
      </trkpt>
      <trkpt lat="40.279656" lon="-1.118563">
        <ele>877.793</ele>
        <time>2015-02-19T10:46:37Z</time>
      </trkpt>
      <trkpt lat="40.279527" lon="-1.118246">
        <ele>879.863</ele>
        <time>2015-02-19T10:46:57Z</time>
      </trkpt>
      <trkpt lat="40.279470" lon="-1.118087">
        <ele>878.944</ele>
        <time>2015-02-19T10:47:17Z</time>
      </trkpt>
      <trkpt lat="40.279413" lon="-1.117774">
        <ele>877.499</ele>
        <time>2015-02-19T10:47:37Z</time>
      </trkpt>
      <trkpt lat="40.279417" lon="-1.117238">
        <ele>878.179</ele>
        <time>2015-02-19T10:47:57Z</time>
      </trkpt>
      <trkpt lat="40.279419" lon="-1.117096">
        <ele>878.445</ele>
        <time>2015-02-19T10:48:17Z</time>
      </trkpt>
      <trkpt lat="40.279375" lon="-1.116580">
        <ele>879.040</ele>
        <time>2015-02-19T10:48:37Z</time>
      </trkpt>
      <trkpt lat="40.279422" lon="-1.116167">
        <ele>879.729</ele>
        <time>2015-02-19T10:48:57Z</time>
      </trkpt>
      <trkpt lat="40.279447" lon="-1.115663">
        <ele>880.000</ele>
        <time>2015-02-19T10:49:17Z</time>
      </trkpt>
      <trkpt lat="40.279457" lon="-1.115160">
        <ele>880.120</ele>
        <time>2015-02-19T10:49:37Z</time>
      </trkpt>
      <trkpt lat="40.279471" lon="-1.115035">
        <ele>880.407</ele>
        <time>2015-02-19T10:49:57Z</time>
      </trkpt>
      <trkpt lat="40.279561" lon="-1.114829">
        <ele>881.360</ele>
        <time>2015-02-19T10:50:17Z</time>
      </trkpt>
      <trkpt lat="40.279767" lon="-1.114517">
        <ele>882.480</ele>
        <time>2015-02-19T10:50:37Z</time>
      </trkpt>
      <trkpt lat="40.279837" lon="-1.114198">
        <ele>883.391</ele>
        <time>2015-02-19T10:50:57Z</time>
      </trkpt>
      <trkpt lat="40.279767" lon="-1.113855">
        <ele>883.166</ele>
        <time>2015-02-19T10:51:17Z</time>
      </trkpt>
      <trkpt lat="40.279560" lon="-1.113423">
        <ele>882.526</ele>
        <time>2015-02-19T10:51:37Z</time>
      </trkpt>
      <trkpt lat="40.279366" lon="-1.113173">
        <ele>882.642</ele>
        <time>2015-02-19T10:51:57Z</time>
      </trkpt>
      <trkpt lat="40.279222" lon="-1.113036">
        <ele>882.417</ele>
        <time>2015-02-19T10:52:17Z</time>
      </trkpt>
      <trkpt lat="40.279080" lon="-1.112816">
        <ele>882.891</ele>
        <time>2015-02-19T10:52:37Z</time>
      </trkpt>
      <trkpt lat="40.278941" lon="-1.112708">
        <ele>884.081</ele>
        <time>2015-02-19T10:52:57Z</time>
      </trkpt>
      <trkpt lat="40.278712" lon="-1.112577">
        <ele>885.219</ele>
        <time>2015-02-19T10:53:17Z</time>
      </trkpt>
      <trkpt lat="40.278529" lon="-1.112339">
        <ele>885.707</ele>
        <time>2015-02-19T10:53:37Z</time>
      </trkpt>
      <trkpt lat="40.278336" lon="-1.112010">
        <ele>886.587</ele>
        <time>2015-02-19T10:53:57Z</time>
      </trkpt>
      <trkpt lat="40.278183" lon="-1.111696">
        <ele>887.837</ele>
        <time>2015-02-19T10:54:17Z</time>
      </trkpt>
      <trkpt lat="40.278086" lon="-1.111437">
        <ele>888.728</ele>
        <time>2015-02-19T10:54:37Z</time>
      </trkpt>
      <trkpt lat="40.277981" lon="-1.111135">
        <ele>890.083</ele>
        <time>2015-02-19T10:54:57Z</time>
      </trkpt>
      <trkpt lat="40.277815" lon="-1.111016">
        <ele>891.073</ele>
        <time>2015-02-19T10:55:17Z</time>
      </trkpt>
      <trkpt lat="40.277604" lon="-1.110891">
        <ele>892.969</ele>
        <time>2015-02-19T10:55:37Z</time>
      </trkpt>
      <trkpt lat="40.277597" lon="-1.110680">
        <ele>893.994</ele>
        <time>2015-02-19T10:55:57Z</time>
      </trkpt>
      <trkpt lat="40.277602" lon="-1.110484">
        <ele>895.818</ele>
        <time>2015-02-19T10:56:17Z</time>
      </trkpt>
      <trkpt lat="40.277434" lon="-1.110433">
        <ele>896.798</ele>
        <time>2015-02-19T10:56:37Z</time>
      </trkpt>
      <trkpt lat="40.277271" lon="-1.110366">
        <ele>897.017</ele>
        <time>2015-02-19T10:56:57Z</time>
      </trkpt>
      <trkpt lat="40.277221" lon="-1.110195">
        <ele>897.407</ele>
        <time>2015-02-19T10:57:17Z</time>
      </trkpt>
      <trkpt lat="40.277281" lon="-1.110019">
        <ele>898.019</ele>
        <time>2015-02-19T10:57:37Z</time>
      </trkpt>
      <trkpt lat="40.277345" lon="-1.109746">
        <ele>898.569</ele>
        <time>2015-02-19T10:57:57Z</time>
      </trkpt>
      <trkpt lat="40.277226" lon="-1.109623">
        <ele>898.840</ele>
        <time>2015-02-19T10:58:17Z</time>
      </trkpt>
      <trkpt lat="40.277038" lon="-1.109618">
        <ele>899.625</ele>
        <time>2015-02-19T10:58:37Z</time>
      </trkpt>
      <trkpt lat="40.276163" lon="-1.108912">
        <ele>905.045</ele>
        <time>2015-02-19T10:58:57Z</time>
      </trkpt>
      <trkpt lat="40.275880" lon="-1.108551">
        <ele>905.591</ele>
        <time>2015-02-19T10:59:17Z</time>
      </trkpt>
      <trkpt lat="40.275687" lon="-1.108190">
        <ele>906.436</ele>
        <time>2015-02-19T10:59:37Z</time>
      </trkpt>
      <trkpt lat="40.275663" lon="-1.107965">
        <ele>907.533</ele>
        <time>2015-02-19T10:59:57Z</time>
      </trkpt>
      <trkpt lat="40.275589" lon="-1.107753">
        <ele>908.223</ele>
        <time>2015-02-19T11:00:17Z</time>
      </trkpt>
      <trkpt lat="40.275444" lon="-1.107420">
        <ele>908.715</ele>
        <time>2015-02-19T11:00:37Z</time>
      </trkpt>
      <trkpt lat="40.275293" lon="-1.107100">
        <ele>909.307</ele>
        <time>2015-02-19T11:00:57Z</time>
      </trkpt>
      <trkpt lat="40.275060" lon="-1.106692">
        <ele>909.651</ele>
        <time>2015-02-19T11:01:17Z</time>
      </trkpt>
      <trkpt lat="40.274945" lon="-1.106356">
        <ele>909.821</ele>
        <time>2015-02-19T11:01:37Z</time>
      </trkpt>
      <trkpt lat="40.274856" lon="-1.105850">
        <ele>910.232</ele>
        <time>2015-02-19T11:01:57Z</time>
      </trkpt>
      <trkpt lat="40.274801" lon="-1.105470">
        <ele>911.197</ele>
        <time>2015-02-19T11:02:17Z</time>
      </trkpt>
      <trkpt lat="40.274798" lon="-1.105313">
        <ele>911.487</ele>
        <time>2015-02-19T11:02:37Z</time>
      </trkpt>
      <trkpt lat="40.274847" lon="-1.105107">
        <ele>911.963</ele>
        <time>2015-02-19T11:02:57Z</time>
      </trkpt>
      <trkpt lat="40.274932" lon="-1.104577">
        <ele>912.748</ele>
        <time>2015-02-19T11:03:17Z</time>
      </trkpt>
      <trkpt lat="40.274955" lon="-1.104412">
        <ele>913.177</ele>
        <time>2015-02-19T11:03:37Z</time>
      </trkpt>
      <trkpt lat="40.275069" lon="-1.104097">
        <ele>916.661</ele>
        <time>2015-02-19T11:03:57Z</time>
      </trkpt>
      <trkpt lat="40.275178" lon="-1.103893">
        <ele>920.527</ele>
        <time>2015-02-19T11:04:17Z</time>
      </trkpt>
      <trkpt lat="40.275298" lon="-1.103723">
        <ele>922.407</ele>
        <time>2015-02-19T11:04:37Z</time>
      </trkpt>
      <trkpt lat="40.275431" lon="-1.103637">
        <ele>922.335</ele>
        <time>2015-02-19T11:04:57Z</time>
      </trkpt>
      <trkpt lat="40.275610" lon="-1.103605">
        <ele>921.835</ele>
        <time>2015-02-19T11:05:17Z</time>
      </trkpt>
      <trkpt lat="40.275744" lon="-1.103450">
        <ele>922.086</ele>
        <time>2015-02-19T11:05:37Z</time>
      </trkpt>
      <trkpt lat="40.275929" lon="-1.103185">
        <ele>924.541</ele>
        <time>2015-02-19T11:05:57Z</time>
      </trkpt>
      <trkpt lat="40.276114" lon="-1.102986">
        <ele>926.071</ele>
        <time>2015-02-19T11:06:17Z</time>
      </trkpt>
      <trkpt lat="40.276211" lon="-1.102779">
        <ele>926.837</ele>
        <time>2015-02-19T11:06:37Z</time>
      </trkpt>
      <trkpt lat="40.276212" lon="-1.102486">
        <ele>926.812</ele>
        <time>2015-02-19T11:06:57Z</time>
      </trkpt>
      <trkpt lat="40.276225" lon="-1.102125">
        <ele>927.099</ele>
        <time>2015-02-19T11:07:17Z</time>
      </trkpt>
      <trkpt lat="40.276318" lon="-1.101869">
        <ele>927.107</ele>
        <time>2015-02-19T11:07:37Z</time>
      </trkpt>
      <trkpt lat="40.276275" lon="-1.101683">
        <ele>926.927</ele>
        <time>2015-02-19T11:07:57Z</time>
      </trkpt>
      <trkpt lat="40.276125" lon="-1.101549">
        <ele>926.507</ele>
        <time>2015-02-19T11:08:17Z</time>
      </trkpt>
      <trkpt lat="40.275858" lon="-1.101407">
        <ele>927.047</ele>
        <time>2015-02-19T11:08:37Z</time>
      </trkpt>
      <trkpt lat="40.275636" lon="-1.101164">
        <ele>927.437</ele>
        <time>2015-02-19T11:08:57Z</time>
      </trkpt>
      <trkpt lat="40.275347" lon="-1.100854">
        <ele>928.088</ele>
        <time>2015-02-19T11:09:17Z</time>
      </trkpt>
      <trkpt lat="40.275145" lon="-1.100566">
        <ele>928.923</ele>
        <time>2015-02-19T11:09:37Z</time>
      </trkpt>
      <trkpt lat="40.275091" lon="-1.100303">
        <ele>930.123</ele>
        <time>2015-02-19T11:09:57Z</time>
      </trkpt>
      <trkpt lat="40.275043" lon="-1.100027">
        <ele>930.779</ele>
        <time>2015-02-19T11:10:17Z</time>
      </trkpt>
      <trkpt lat="40.274899" lon="-1.099867">
        <ele>931.494</ele>
        <time>2015-02-19T11:10:37Z</time>
      </trkpt>
      <trkpt lat="40.274754" lon="-1.099756">
        <ele>932.035</ele>
        <time>2015-02-19T11:10:57Z</time>
      </trkpt>
      <trkpt lat="40.274586" lon="-1.099771">
        <ele>932.586</ele>
        <time>2015-02-19T11:11:17Z</time>
      </trkpt>
      <trkpt lat="40.274361" lon="-1.099706">
        <ele>932.814</ele>
        <time>2015-02-19T11:11:37Z</time>
      </trkpt>
      <trkpt lat="40.274166" lon="-1.099607">
        <ele>933.607</ele>
        <time>2015-02-19T11:11:57Z</time>
      </trkpt>
      <trkpt lat="40.274077" lon="-1.099466">
        <ele>934.381</ele>
        <time>2015-02-19T11:12:17Z</time>
      </trkpt>
      <trkpt lat="40.273996" lon="-1.099196">
        <ele>934.081</ele>
        <time>2015-02-19T11:12:37Z</time>
      </trkpt>
      <trkpt lat="40.273966" lon="-1.098887">
        <ele>933.692</ele>
        <time>2015-02-19T11:12:57Z</time>
      </trkpt>
      <trkpt lat="40.273972" lon="-1.098417">
        <ele>933.947</ele>
        <time>2015-02-19T11:13:17Z</time>
      </trkpt>
      <trkpt lat="40.273903" lon="-1.098118">
        <ele>933.517</ele>
        <time>2015-02-19T11:13:37Z</time>
      </trkpt>
      <trkpt lat="40.273758" lon="-1.097811">
        <ele>932.943</ele>
        <time>2015-02-19T11:13:57Z</time>
      </trkpt>
      <trkpt lat="40.273735" lon="-1.097767">
        <ele>932.858</ele>
        <time>2015-02-19T11:14:17Z</time>
      </trkpt>
      <trkpt lat="40.273608" lon="-1.097373">
        <ele>932.413</ele>
        <time>2015-02-19T11:14:37Z</time>
      </trkpt>
      <trkpt lat="40.273452" lon="-1.097067">
        <ele>932.443</ele>
        <time>2015-02-19T11:14:57Z</time>
      </trkpt>
      <trkpt lat="40.273209" lon="-1.096659">
        <ele>933.207</ele>
        <time>2015-02-19T11:15:17Z</time>
      </trkpt>
      <trkpt lat="40.273127" lon="-1.096339">
        <ele>933.807</ele>
        <time>2015-02-19T11:15:37Z</time>
      </trkpt>
      <trkpt lat="40.273169" lon="-1.096042">
        <ele>934.359</ele>
        <time>2015-02-19T11:15:57Z</time>
      </trkpt>
      <trkpt lat="40.273191" lon="-1.095791">
        <ele>936.079</ele>
        <time>2015-02-19T11:16:17Z</time>
      </trkpt>
      <trkpt lat="40.273107" lon="-1.095538">
        <ele>937.250</ele>
        <time>2015-02-19T11:16:37Z</time>
      </trkpt>
      <trkpt lat="40.273055" lon="-1.095261">
        <ele>937.945</ele>
        <time>2015-02-19T11:16:57Z</time>
      </trkpt>
      <trkpt lat="40.272996" lon="-1.094819">
        <ele>938.055</ele>
        <time>2015-02-19T11:17:17Z</time>
      </trkpt>
      <trkpt lat="40.272915" lon="-1.094434">
        <ele>937.781</ele>
        <time>2015-02-19T11:17:37Z</time>
      </trkpt>
      <trkpt lat="40.272801" lon="-1.094217">
        <ele>937.396</ele>
        <time>2015-02-19T11:17:57Z</time>
      </trkpt>
      <trkpt lat="40.272684" lon="-1.094072">
        <ele>937.116</ele>
        <time>2015-02-19T11:18:17Z</time>
      </trkpt>
      <trkpt lat="40.272551" lon="-1.093748">
        <ele>937.476</ele>
        <time>2015-02-19T11:18:37Z</time>
      </trkpt>
      <trkpt lat="40.272405" lon="-1.093568">
        <ele>937.713</ele>
        <time>2015-02-19T11:18:57Z</time>
      </trkpt>
      <trkpt lat="40.272031" lon="-1.093288">
        <ele>938.907</ele>
        <time>2015-02-19T11:19:17Z</time>
      </trkpt>
      <trkpt lat="40.271778" lon="-1.093163">
        <ele>939.559</ele>
        <time>2015-02-19T11:19:37Z</time>
      </trkpt>
      <trkpt lat="40.271441" lon="-1.093033">
        <ele>941.019</ele>
        <time>2015-02-19T11:19:57Z</time>
      </trkpt>
      <trkpt lat="40.271127" lon="-1.092805">
        <ele>943.080</ele>
        <time>2015-02-19T11:20:17Z</time>
      </trkpt>
      <trkpt lat="40.270871" lon="-1.092683">
        <ele>944.365</ele>
        <time>2015-02-19T11:20:37Z</time>
      </trkpt>
      <trkpt lat="40.270633" lon="-1.092562">
        <ele>944.885</ele>
        <time>2015-02-19T11:20:57Z</time>
      </trkpt>
      <trkpt lat="40.270477" lon="-1.092369">
        <ele>945.841</ele>
        <time>2015-02-19T11:21:17Z</time>
      </trkpt>
      <trkpt lat="40.270429" lon="-1.092162">
        <ele>947.346</ele>
        <time>2015-02-19T11:21:37Z</time>
      </trkpt>
      <trkpt lat="40.270359" lon="-1.091874">
        <ele>948.968</ele>
        <time>2015-02-19T11:21:57Z</time>
      </trkpt>
      <trkpt lat="40.270287" lon="-1.091762">
        <ele>948.542</ele>
        <time>2015-02-19T11:22:17Z</time>
      </trkpt>
      <trkpt lat="40.270191" lon="-1.091502">
        <ele>948.026</ele>
        <time>2015-02-19T11:22:37Z</time>
      </trkpt>
      <trkpt lat="40.270078" lon="-1.091255">
        <ele>948.907</ele>
        <time>2015-02-19T11:22:57Z</time>
      </trkpt>
      <trkpt lat="40.269906" lon="-1.090987">
        <ele>951.044</ele>
        <time>2015-02-19T11:23:17Z</time>
      </trkpt>
      <trkpt lat="40.269715" lon="-1.090887">
        <ele>952.034</ele>
        <time>2015-02-19T11:23:37Z</time>
      </trkpt>
      <trkpt lat="40.269531" lon="-1.090741">
        <ele>953.255</ele>
        <time>2015-02-19T11:23:57Z</time>
      </trkpt>
      <trkpt lat="40.269497" lon="-1.090618">
        <ele>952.890</ele>
        <time>2015-02-19T11:24:17Z</time>
      </trkpt>
      <trkpt lat="40.269404" lon="-1.090455">
        <ele>952.670</ele>
        <time>2015-02-19T11:24:37Z</time>
      </trkpt>
      <trkpt lat="40.269235" lon="-1.090254">
        <ele>954.746</ele>
        <time>2015-02-19T11:24:57Z</time>
      </trkpt>
      <trkpt lat="40.268998" lon="-1.090003">
        <ele>955.521</ele>
        <time>2015-02-19T11:25:17Z</time>
      </trkpt>
      <trkpt lat="40.268679" lon="-1.089812">
        <ele>955.328</ele>
        <time>2015-02-19T11:25:37Z</time>
      </trkpt>
      <trkpt lat="40.268601" lon="-1.089775">
        <ele>955.189</ele>
        <time>2015-02-19T11:25:57Z</time>
      </trkpt>
      <trkpt lat="40.268344" lon="-1.089687">
        <ele>956.217</ele>
        <time>2015-02-19T11:26:17Z</time>
      </trkpt>
      <trkpt lat="40.268241" lon="-1.089511">
        <ele>956.407</ele>
        <time>2015-02-19T11:26:37Z</time>
      </trkpt>
      <trkpt lat="40.268089" lon="-1.089345">
        <ele>956.020</ele>
        <time>2015-02-19T11:26:57Z</time>
      </trkpt>
      <trkpt lat="40.267927" lon="-1.089204">
        <ele>956.170</ele>
        <time>2015-02-19T11:27:17Z</time>
      </trkpt>
      <trkpt lat="40.267847" lon="-1.089083">
        <ele>956.261</ele>
        <time>2015-02-19T11:27:37Z</time>
      </trkpt>
      <trkpt lat="40.267793" lon="-1.088810">
        <ele>958.716</ele>
        <time>2015-02-19T11:27:57Z</time>
      </trkpt>
      <trkpt lat="40.267798" lon="-1.088758">
        <ele>959.216</ele>
        <time>2015-02-19T11:28:17Z</time>
      </trkpt>
      <trkpt lat="40.267766" lon="-1.088521">
        <ele>959.882</ele>
        <time>2015-02-19T11:28:37Z</time>
      </trkpt>
      <trkpt lat="40.267612" lon="-1.088206">
        <ele>959.457</ele>
        <time>2015-02-19T11:28:57Z</time>
      </trkpt>
      <trkpt lat="40.267563" lon="-1.088116">
        <ele>959.534</ele>
        <time>2015-02-19T11:29:17Z</time>
      </trkpt>
      <trkpt lat="40.267526" lon="-1.087860">
        <ele>961.455</ele>
        <time>2015-02-19T11:29:37Z</time>
      </trkpt>
      <trkpt lat="40.267519" lon="-1.087614">
        <ele>962.810</ele>
        <time>2015-02-19T11:29:57Z</time>
      </trkpt>
      <trkpt lat="40.267362" lon="-1.087221">
        <ele>962.907</ele>
        <time>2015-02-19T11:30:17Z</time>
      </trkpt>
      <trkpt lat="40.267143" lon="-1.087024">
        <ele>963.381</ele>
        <time>2015-02-19T11:30:37Z</time>
      </trkpt>
      <trkpt lat="40.266882" lon="-1.086858">
        <ele>963.851</ele>
        <time>2015-02-19T11:30:57Z</time>
      </trkpt>
      <trkpt lat="40.266602" lon="-1.086692">
        <ele>964.572</ele>
        <time>2015-02-19T11:31:17Z</time>
      </trkpt>
      <trkpt lat="40.266335" lon="-1.086471">
        <ele>964.487</ele>
        <time>2015-02-19T11:31:37Z</time>
      </trkpt>
      <trkpt lat="40.266117" lon="-1.086175">
        <ele>965.917</ele>
        <time>2015-02-19T11:31:57Z</time>
      </trkpt>
      <trkpt lat="40.266016" lon="-1.085867">
        <ele>966.433</ele>
        <time>2015-02-19T11:32:17Z</time>
      </trkpt>
      <trkpt lat="40.265932" lon="-1.085562">
        <ele>967.368</ele>
        <time>2015-02-19T11:32:37Z</time>
      </trkpt>
      <trkpt lat="40.265903" lon="-1.085411">
        <ele>967.267</ele>
        <time>2015-02-19T11:32:57Z</time>
      </trkpt>
      <trkpt lat="40.265738" lon="-1.085038">
        <ele>967.281</ele>
        <time>2015-02-19T11:33:17Z</time>
      </trkpt>
      <trkpt lat="40.265677" lon="-1.084899">
        <ele>967.219</ele>
        <time>2015-02-19T11:33:37Z</time>
      </trkpt>
      <trkpt lat="40.265467" lon="-1.084666">
        <ele>968.907</ele>
        <time>2015-02-19T11:33:57Z</time>
      </trkpt>
      <trkpt lat="40.265172" lon="-1.084454">
        <ele>969.974</ele>
        <time>2015-02-19T11:34:17Z</time>
      </trkpt>
      <trkpt lat="40.265028" lon="-1.084300">
        <ele>970.514</ele>
        <time>2015-02-19T11:34:37Z</time>
      </trkpt>
      <trkpt lat="40.264961" lon="-1.083962">
        <ele>969.955</ele>
        <time>2015-02-19T11:34:57Z</time>
      </trkpt>
      <trkpt lat="40.264977" lon="-1.083694">
        <ele>969.730</ele>
        <time>2015-02-19T11:35:17Z</time>
      </trkpt>
      <trkpt lat="40.265147" lon="-1.083275">
        <ele>969.680</ele>
        <time>2015-02-19T11:35:37Z</time>
      </trkpt>
      <trkpt lat="40.265314" lon="-1.083141">
        <ele>970.366</ele>
        <time>2015-02-19T11:35:57Z</time>
      </trkpt>
      <trkpt lat="40.265637" lon="-1.082982">
        <ele>972.811</ele>
        <time>2015-02-19T11:36:17Z</time>
      </trkpt>
      <trkpt lat="40.265782" lon="-1.082837">
        <ele>974.961</ele>
        <time>2015-02-19T11:36:37Z</time>
      </trkpt>
      <trkpt lat="40.265832" lon="-1.082573">
        <ele>977.421</ele>
        <time>2015-02-19T11:36:57Z</time>
      </trkpt>
      <trkpt lat="40.265819" lon="-1.082336">
        <ele>980.113</ele>
        <time>2015-02-19T11:37:17Z</time>
      </trkpt>
      <trkpt lat="40.265758" lon="-1.082087">
        <ele>981.407</ele>
        <time>2015-02-19T11:37:37Z</time>
      </trkpt>
      <trkpt lat="40.265710" lon="-1.081762">
        <ele>983.614</ele>
        <time>2015-02-19T11:37:57Z</time>
      </trkpt>
      <trkpt lat="40.265700" lon="-1.081493">
        <ele>985.184</ele>
        <time>2015-02-19T11:38:17Z</time>
      </trkpt>
      <trkpt lat="40.265694" lon="-1.081082">
        <ele>986.485</ele>
        <time>2015-02-19T11:38:37Z</time>
      </trkpt>
      <trkpt lat="40.265671" lon="-1.080688">
        <ele>988.290</ele>
        <time>2015-02-19T11:38:57Z</time>
      </trkpt>
      <trkpt lat="40.265745" lon="-1.080458">
        <ele>988.820</ele>
        <time>2015-02-19T11:39:17Z</time>
      </trkpt>
      <trkpt lat="40.265835" lon="-1.080086">
        <ele>989.956</ele>
        <time>2015-02-19T11:39:37Z</time>
      </trkpt>
      <trkpt lat="40.265953" lon="-1.079615">
        <ele>991.371</ele>
        <time>2015-02-19T11:39:57Z</time>
      </trkpt>
      <trkpt lat="40.266076" lon="-1.079246">
        <ele>993.499</ele>
        <time>2015-02-19T11:40:17Z</time>
      </trkpt>
      <trkpt lat="40.266189" lon="-1.079053">
        <ele>996.707</ele>
        <time>2015-02-19T11:40:37Z</time>
      </trkpt>
      <trkpt lat="40.266354" lon="-1.078792">
        <ele>1000.427</ele>
        <time>2015-02-19T11:40:57Z</time>
      </trkpt>
      <trkpt lat="40.266472" lon="-1.078543">
        <ele>1003.707</ele>
        <time>2015-02-19T11:41:17Z</time>
      </trkpt>
      <trkpt lat="40.266539" lon="-1.078267">
        <ele>1006.817</ele>
        <time>2015-02-19T11:41:37Z</time>
      </trkpt>
      <trkpt lat="40.266635" lon="-1.078042">
        <ele>1009.367</ele>
        <time>2015-02-19T11:41:57Z</time>
      </trkpt>
      <trkpt lat="40.266775" lon="-1.077766">
        <ele>1012.698</ele>
        <time>2015-02-19T11:42:17Z</time>
      </trkpt>
      <trkpt lat="40.266815" lon="-1.077479">
        <ele>1016.093</ele>
        <time>2015-02-19T11:42:37Z</time>
      </trkpt>
      <trkpt lat="40.266856" lon="-1.077145">
        <ele>1019.233</ele>
        <time>2015-02-19T11:42:57Z</time>
      </trkpt>
      <trkpt lat="40.266884" lon="-1.076805">
        <ele>1022.529</ele>
        <time>2015-02-19T11:43:17Z</time>
      </trkpt>
      <trkpt lat="40.266856" lon="-1.076538">
        <ele>1023.614</ele>
        <time>2015-02-19T11:43:37Z</time>
      </trkpt>
      <trkpt lat="40.266836" lon="-1.076230">
        <ele>1023.987</ele>
        <time>2015-02-19T11:43:57Z</time>
      </trkpt>
      <trkpt lat="40.266872" lon="-1.075820">
        <ele>1024.442</ele>
        <time>2015-02-19T11:44:17Z</time>
      </trkpt>
      <trkpt lat="40.266881" lon="-1.075419">
        <ele>1024.426</ele>
        <time>2015-02-19T11:44:37Z</time>
      </trkpt>
      <trkpt lat="40.266821" lon="-1.075021">
        <ele>1024.807</ele>
        <time>2015-02-19T11:44:57Z</time>
      </trkpt>
      <trkpt lat="40.266770" lon="-1.074618">
        <ele>1025.256</ele>
        <time>2015-02-19T11:45:17Z</time>
      </trkpt>
      <trkpt lat="40.266781" lon="-1.074185">
        <ele>1025.926</ele>
        <time>2015-02-19T11:45:37Z</time>
      </trkpt>
      <trkpt lat="40.266799" lon="-1.073747">
        <ele>1026.497</ele>
        <time>2015-02-19T11:45:57Z</time>
      </trkpt>
      <trkpt lat="40.266767" lon="-1.073349">
        <ele>1027.082</ele>
        <time>2015-02-19T11:46:17Z</time>
      </trkpt>
      <trkpt lat="40.266812" lon="-1.073085">
        <ele>1027.482</ele>
        <time>2015-02-19T11:46:37Z</time>
      </trkpt>
      <trkpt lat="40.266896" lon="-1.072684">
        <ele>1028.278</ele>
        <time>2015-02-19T11:46:57Z</time>
      </trkpt>
      <trkpt lat="40.266948" lon="-1.072176">
        <ele>1029.353</ele>
        <time>2015-02-19T11:47:17Z</time>
      </trkpt>
      <trkpt lat="40.267025" lon="-1.071662">
        <ele>1030.941</ele>
        <time>2015-02-19T11:47:37Z</time>
      </trkpt>
      <trkpt lat="40.267193" lon="-1.071124">
        <ele>1031.981</ele>
        <time>2015-02-19T11:47:57Z</time>
      </trkpt>
      <trkpt lat="40.267342" lon="-1.070623">
        <ele>1033.109</ele>
        <time>2015-02-19T11:48:17Z</time>
      </trkpt>
      <trkpt lat="40.267469" lon="-1.070164">
        <ele>1033.707</ele>
        <time>2015-02-19T11:48:37Z</time>
      </trkpt>
      <trkpt lat="40.267591" lon="-1.069640">
        <ele>1035.632</ele>
        <time>2015-02-19T11:48:57Z</time>
      </trkpt>
      <trkpt lat="40.267669" lon="-1.069234">
        <ele>1037.442</ele>
        <time>2015-02-19T11:49:17Z</time>
      </trkpt>
      <trkpt lat="40.267729" lon="-1.068862">
        <ele>1039.873</ele>
        <time>2015-02-19T11:49:37Z</time>
      </trkpt>
      <trkpt lat="40.267757" lon="-1.068464">
        <ele>1043.948</ele>
        <time>2015-02-19T11:49:57Z</time>
      </trkpt>
      <trkpt lat="40.267763" lon="-1.068183">
        <ele>1047.618</ele>
        <time>2015-02-19T11:50:17Z</time>
      </trkpt>
      <trkpt lat="40.267812" lon="-1.067761">
        <ele>1051.944</ele>
        <time>2015-02-19T11:50:37Z</time>
      </trkpt>
      <trkpt lat="40.267864" lon="-1.067426">
        <ele>1056.399</ele>
        <time>2015-02-19T11:50:57Z</time>
      </trkpt>
      <trkpt lat="40.267896" lon="-1.067159">
        <ele>1059.563</ele>
        <time>2015-02-19T11:51:17Z</time>
      </trkpt>
      <trkpt lat="40.267894" lon="-1.066857">
        <ele>1062.044</ele>
        <time>2015-02-19T11:51:37Z</time>
      </trkpt>
      <trkpt lat="40.267865" lon="-1.066556">
        <ele>1064.818</ele>
        <time>2015-02-19T11:51:57Z</time>
      </trkpt>
      <trkpt lat="40.267804" lon="-1.066373">
        <ele>1066.707</ele>
        <time>2015-02-19T11:52:17Z</time>
      </trkpt>
      <trkpt lat="40.267655" lon="-1.066129">
        <ele>1069.814</ele>
        <time>2015-02-19T11:52:37Z</time>
      </trkpt>
      <trkpt lat="40.267493" lon="-1.065972">
        <ele>1071.654</ele>
        <time>2015-02-19T11:52:57Z</time>
      </trkpt>
      <trkpt lat="40.267343" lon="-1.065818">
        <ele>1074.045</ele>
        <time>2015-02-19T11:53:17Z</time>
      </trkpt>
      <trkpt lat="40.267239" lon="-1.065616">
        <ele>1075.530</ele>
        <time>2015-02-19T11:53:37Z</time>
      </trkpt>
      <trkpt lat="40.267156" lon="-1.065402">
        <ele>1076.470</ele>
        <time>2015-02-19T11:53:57Z</time>
      </trkpt>
      <trkpt lat="40.267096" lon="-1.065118">
        <ele>1076.376</ele>
        <time>2015-02-19T11:54:17Z</time>
      </trkpt>
      <trkpt lat="40.267103" lon="-1.064750">
        <ele>1075.771</ele>
        <time>2015-02-19T11:54:37Z</time>
      </trkpt>
      <trkpt lat="40.267129" lon="-1.064383">
        <ele>1074.831</ele>
        <time>2015-02-19T11:54:57Z</time>
      </trkpt>
      <trkpt lat="40.267133" lon="-1.064328">
        <ele>1074.661</ele>
        <time>2015-02-19T11:55:17Z</time>
      </trkpt>
      <trkpt lat="40.267189" lon="-1.064062">
        <ele>1074.007</ele>
        <time>2015-02-19T11:55:37Z</time>
      </trkpt>
      <trkpt lat="40.267252" lon="-1.063923">
        <ele>1073.907</ele>
        <time>2015-02-19T11:55:57Z</time>
      </trkpt>
      <trkpt lat="40.267499" lon="-1.063625">
        <ele>1074.451</ele>
        <time>2015-02-19T11:56:17Z</time>
      </trkpt>
      <trkpt lat="40.267709" lon="-1.063408">
        <ele>1075.421</ele>
        <time>2015-02-19T11:56:37Z</time>
      </trkpt>
      <trkpt lat="40.267899" lon="-1.063169">
        <ele>1076.852</ele>
        <time>2015-02-19T11:56:57Z</time>
      </trkpt>
      <trkpt lat="40.268102" lon="-1.062868">
        <ele>1077.717</ele>
        <time>2015-02-19T11:57:17Z</time>
      </trkpt>
      <trkpt lat="40.268287" lon="-1.062686">
        <ele>1078.227</ele>
        <time>2015-02-19T11:57:37Z</time>
      </trkpt>
      <trkpt lat="40.268454" lon="-1.062548">
        <ele>1078.773</ele>
        <time>2015-02-19T11:57:57Z</time>
      </trkpt>
      <trkpt lat="40.268663" lon="-1.062259">
        <ele>1080.078</ele>
        <time>2015-02-19T11:58:17Z</time>
      </trkpt>
      <trkpt lat="40.268793" lon="-1.061971">
        <ele>1081.123</ele>
        <time>2015-02-19T11:58:37Z</time>
      </trkpt>
      <trkpt lat="40.268881" lon="-1.061652">
        <ele>1080.783</ele>
        <time>2015-02-19T11:58:57Z</time>
      </trkpt>
      <trkpt lat="40.268947" lon="-1.061364">
        <ele>1080.611</ele>
        <time>2015-02-19T11:59:17Z</time>
      </trkpt>
      <trkpt lat="40.268967" lon="-1.061135">
        <ele>1080.407</ele>
        <time>2015-02-19T11:59:37Z</time>
      </trkpt>
      <trkpt lat="40.268958" lon="-1.060952">
        <ele>1079.910</ele>
        <time>2015-02-19T11:59:57Z</time>
      </trkpt>
      <trkpt lat="40.268959" lon="-1.060791">
        <ele>1079.730</ele>
        <time>2015-02-19T12:00:17Z</time>
      </trkpt>
      <trkpt lat="40.268959" lon="-1.060769">
        <ele>1079.451</ele>
        <time>2015-02-19T12:00:37Z</time>
      </trkpt>
      <trkpt lat="40.268938" lon="-1.060731">
        <ele>1077.046</ele>
        <time>2015-02-19T12:00:57Z</time>
      </trkpt>
      <trkpt lat="40.268953" lon="-1.060526">
        <ele>1076.526</ele>
        <time>2015-02-19T12:01:17Z</time>
      </trkpt>
      <trkpt lat="40.268950" lon="-1.060407">
        <ele>1076.022</ele>
        <time>2015-02-19T12:01:37Z</time>
      </trkpt>
      <trkpt lat="40.268919" lon="-1.060254">
        <ele>1075.427</ele>
        <time>2015-02-19T12:01:57Z</time>
      </trkpt>
      <trkpt lat="40.268914" lon="-1.060242">
        <ele>1075.375</ele>
        <time>2015-02-19T12:02:17Z</time>
      </trkpt>
      <trkpt lat="40.268915" lon="-1.060227">
        <ele>1074.928</ele>
        <time>2015-02-19T12:02:37Z</time>
      </trkpt>
      <trkpt lat="40.268837" lon="-1.060074">
        <ele>1073.320</ele>
        <time>2015-02-19T12:02:57Z</time>
      </trkpt>
      <trkpt lat="40.268639" lon="-1.059746">
        <ele>1072.507</ele>
        <time>2015-02-19T12:03:17Z</time>
      </trkpt>
      <trkpt lat="40.268465" lon="-1.059465">
        <ele>1090.885</ele>
        <time>2015-02-19T12:03:37Z</time>
      </trkpt>
      <trkpt lat="40.268020" lon="-1.059601">
        <ele>1093.775</ele>
        <time>2015-02-19T12:03:57Z</time>
      </trkpt>
      <trkpt lat="40.267371" lon="-1.059761">
        <ele>1092.526</ele>
        <time>2015-02-19T12:04:17Z</time>
      </trkpt>
      <trkpt lat="40.265364" lon="-1.058296">
        <ele>1087.091</ele>
        <time>2015-02-19T12:04:37Z</time>
      </trkpt>
      <trkpt lat="40.265131" lon="-1.058161">
        <ele>1086.841</ele>
        <time>2015-02-19T12:04:57Z</time>
      </trkpt>
      <trkpt lat="40.264694" lon="-1.058014">
        <ele>1085.747</ele>
        <time>2015-02-19T12:05:17Z</time>
      </trkpt>
      <trkpt lat="40.264102" lon="-1.057464">
        <ele>1086.312</ele>
        <time>2015-02-19T12:05:37Z</time>
      </trkpt>
      <trkpt lat="40.263660" lon="-1.057052">
        <ele>1086.899</ele>
        <time>2015-02-19T12:05:57Z</time>
      </trkpt>
      <trkpt lat="40.263344" lon="-1.057048">
        <ele>1085.407</ele>
        <time>2015-02-19T12:06:17Z</time>
      </trkpt>
      <trkpt lat="40.263157" lon="-1.057072">
        <ele>1084.227</ele>
        <time>2015-02-19T12:06:37Z</time>
      </trkpt>
      <trkpt lat="40.262881" lon="-1.056652">
        <ele>1087.507</ele>
        <time>2015-02-19T12:06:57Z</time>
      </trkpt>
      <trkpt lat="40.262739" lon="-1.055935">
        <ele>1094.157</ele>
        <time>2015-02-19T12:07:17Z</time>
      </trkpt>
      <trkpt lat="40.262747" lon="-1.055118">
        <ele>1101.247</ele>
        <time>2015-02-19T12:07:37Z</time>
      </trkpt>
      <trkpt lat="40.262691" lon="-1.054342">
        <ele>1105.888</ele>
        <time>2015-02-19T12:07:57Z</time>
      </trkpt>
      <trkpt lat="40.262222" lon="-1.052804">
        <ele>1111.473</ele>
        <time>2015-02-19T12:08:17Z</time>
      </trkpt>
      <trkpt lat="40.261759" lon="-1.051011">
        <ele>1086.833</ele>
        <time>2015-02-19T12:08:37Z</time>
      </trkpt>
      <trkpt lat="40.261369" lon="-1.049033">
        <ele>1130.629</ele>
        <time>2015-02-19T12:08:57Z</time>
      </trkpt>
      <trkpt lat="40.260747" lon="-1.047371">
        <ele>1139.284</ele>
        <time>2015-02-19T12:09:17Z</time>
      </trkpt>
      <trkpt lat="40.260209" lon="-1.046300">
        <ele>1142.949</ele>
        <time>2015-02-19T12:09:37Z</time>
      </trkpt>
      <trkpt lat="40.259845" lon="-1.045888">
        <ele>1142.002</ele>
        <time>2015-02-19T12:09:57Z</time>
      </trkpt>
      <trkpt lat="40.259548" lon="-1.045529">
        <ele>1141.522</ele>
        <time>2015-02-19T12:10:17Z</time>
      </trkpt>
      <trkpt lat="40.259461" lon="-1.044897">
        <ele>1144.307</ele>
        <time>2015-02-19T12:10:37Z</time>
      </trkpt>
      <trkpt lat="40.259225" lon="-1.044367">
        <ele>1147.472</ele>
        <time>2015-02-19T12:10:57Z</time>
      </trkpt>
      <trkpt lat="40.259020" lon="-1.043738">
        <ele>1151.342</ele>
        <time>2015-02-19T12:11:17Z</time>
      </trkpt>
      <trkpt lat="40.258630" lon="-1.043044">
        <ele>1155.373</ele>
        <time>2015-02-19T12:11:37Z</time>
      </trkpt>
      <trkpt lat="40.258035" lon="-1.042397">
        <ele>1153.488</ele>
        <time>2015-02-19T12:11:57Z</time>
      </trkpt>
      <trkpt lat="40.257498" lon="-1.041962">
        <ele>1153.498</ele>
        <time>2015-02-19T12:12:17Z</time>
      </trkpt>
      <trkpt lat="40.257191" lon="-1.041717">
        <ele>1153.784</ele>
        <time>2015-02-19T12:12:37Z</time>
      </trkpt>
      <trkpt lat="40.257264" lon="-1.040881">
        <ele>1147.679</ele>
        <time>2015-02-19T12:12:57Z</time>
      </trkpt>
      <trkpt lat="40.257405" lon="-1.040314">
        <ele>1145.835</ele>
        <time>2015-02-19T12:13:17Z</time>
      </trkpt>
      <trkpt lat="40.257727" lon="-1.039528">
        <ele>1142.086</ele>
        <time>2015-02-19T12:13:37Z</time>
      </trkpt>
      <trkpt lat="40.257752" lon="-1.039076">
        <ele>1142.114</ele>
        <time>2015-02-19T12:13:57Z</time>
      </trkpt>
      <trkpt lat="40.257265" lon="-1.038427">
        <ele>1160.507</ele>
        <time>2015-02-19T12:14:17Z</time>
      </trkpt>
      <trkpt lat="40.257124" lon="-1.037754">
        <ele>1164.041</ele>
        <time>2015-02-19T12:14:37Z</time>
      </trkpt>
      <trkpt lat="40.257041" lon="-1.037347">
        <ele>1167.121</ele>
        <time>2015-02-19T12:14:57Z</time>
      </trkpt>
      <trkpt lat="40.257071" lon="-1.036570">
        <ele>1164.742</ele>
        <time>2015-02-19T12:15:17Z</time>
      </trkpt>
      <trkpt lat="40.257095" lon="-1.036019">
        <ele>1163.387</ele>
        <time>2015-02-19T12:15:37Z</time>
      </trkpt>
      <trkpt lat="40.256917" lon="-1.035742">
        <ele>1171.897</ele>
        <time>2015-02-19T12:15:57Z</time>
      </trkpt>
      <trkpt lat="40.256967" lon="-1.034908">
        <ele>1172.183</ele>
        <time>2015-02-19T12:16:17Z</time>
      </trkpt>
      <trkpt lat="40.257159" lon="-1.034098">
        <ele>1168.198</ele>
        <time>2015-02-19T12:16:37Z</time>
      </trkpt>
      <trkpt lat="40.257229" lon="-1.033757">
        <ele>1167.964</ele>
        <time>2015-02-19T12:16:57Z</time>
      </trkpt>
      <trkpt lat="40.257651" lon="-1.033152">
        <ele>1163.806</ele>
        <time>2015-02-19T12:17:17Z</time>
      </trkpt>
      <trkpt lat="40.258102" lon="-1.032307">
        <ele>1168.816</ele>
        <time>2015-02-19T12:17:37Z</time>
      </trkpt>
      <trkpt lat="40.258313" lon="-1.032046">
        <ele>1172.007</ele>
        <time>2015-02-19T12:17:57Z</time>
      </trkpt>
      <trkpt lat="40.259103" lon="-1.031445">
        <ele>1179.494</ele>
        <time>2015-02-19T12:18:17Z</time>
      </trkpt>
      <trkpt lat="40.259377" lon="-1.031041">
        <ele>1185.444</ele>
        <time>2015-02-19T12:18:37Z</time>
      </trkpt>
      <trkpt lat="40.259459" lon="-1.030770">
        <ele>1190.565</ele>
        <time>2015-02-19T12:18:57Z</time>
      </trkpt>
      <trkpt lat="40.259462" lon="-1.030305">
        <ele>1199.780</ele>
        <time>2015-02-19T12:19:17Z</time>
      </trkpt>
      <trkpt lat="40.259378" lon="-1.029813">
        <ele>1209.270</ele>
        <time>2015-02-19T12:19:37Z</time>
      </trkpt>
      <trkpt lat="40.259243" lon="-1.029478">
        <ele>1218.096</ele>
        <time>2015-02-19T12:19:57Z</time>
      </trkpt>
      <trkpt lat="40.259261" lon="-1.029309">
        <ele>1220.341</ele>
        <time>2015-02-19T12:20:17Z</time>
      </trkpt>
      <trkpt lat="40.259366" lon="-1.029080">
        <ele>1220.788</ele>
        <time>2015-02-19T12:20:37Z</time>
      </trkpt>
      <trkpt lat="40.259421" lon="-1.028529">
        <ele>1226.024</ele>
        <time>2015-02-19T12:20:57Z</time>
      </trkpt>
      <trkpt lat="40.259599" lon="-1.028157">
        <ele>1223.826</ele>
        <time>2015-02-19T12:21:17Z</time>
      </trkpt>
      <trkpt lat="40.260058" lon="-1.027847">
        <ele>1220.907</ele>
        <time>2015-02-19T12:21:37Z</time>
      </trkpt>
      <trkpt lat="40.260467" lon="-1.027764">
        <ele>1218.086</ele>
        <time>2015-02-19T12:21:57Z</time>
      </trkpt>
      <trkpt lat="40.260792" lon="-1.027754">
        <ele>1220.266</ele>
        <time>2015-02-19T12:22:17Z</time>
      </trkpt>
      <trkpt lat="40.261061" lon="-1.027705">
        <ele>1222.557</ele>
        <time>2015-02-19T12:22:37Z</time>
      </trkpt>
      <trkpt lat="40.261365" lon="-1.027131">
        <ele>1227.042</ele>
        <time>2015-02-19T12:22:57Z</time>
      </trkpt>
      <trkpt lat="40.261612" lon="-1.026419">
        <ele>1235.112</ele>
        <time>2015-02-19T12:23:17Z</time>
      </trkpt>
      <trkpt lat="40.261779" lon="-1.026047">
        <ele>1237.468</ele>
        <time>2015-02-19T12:23:37Z</time>
      </trkpt>
      <trkpt lat="40.261520" lon="-1.024841">
        <ele>1252.693</ele>
        <time>2015-02-19T12:23:57Z</time>
      </trkpt>
      <trkpt lat="40.260882" lon="-1.023547">
        <ele>1272.389</ele>
        <time>2015-02-19T12:24:17Z</time>
      </trkpt>
      <trkpt lat="40.260727" lon="-1.022691">
        <ele>1280.006</ele>
        <time>2015-02-19T12:24:37Z</time>
      </trkpt>
      <trkpt lat="40.260713" lon="-1.021901">
        <ele>1285.126</ele>
        <time>2015-02-19T12:24:57Z</time>
      </trkpt>
      <trkpt lat="40.260747" lon="-1.021378">
        <ele>1290.707</ele>
        <time>2015-02-19T12:25:17Z</time>
      </trkpt>
      <trkpt lat="40.260942" lon="-1.021387">
        <ele>1286.586</ele>
        <time>2015-02-19T12:25:37Z</time>
      </trkpt>
      <trkpt lat="40.261408" lon="-1.022064">
        <ele>1269.696</ele>
        <time>2015-02-19T12:25:57Z</time>
      </trkpt>
      <trkpt lat="40.261675" lon="-1.022494">
        <ele>1265.297</ele>
        <time>2015-02-19T12:26:17Z</time>
      </trkpt>
      <trkpt lat="40.262198" lon="-1.022761">
        <ele>1260.622</ele>
        <time>2015-02-19T12:26:37Z</time>
      </trkpt>
      <trkpt lat="40.263101" lon="-1.023059">
        <ele>1262.612</ele>
        <time>2015-02-19T12:26:57Z</time>
      </trkpt>
      <trkpt lat="40.263605" lon="-1.023453">
        <ele>1261.178</ele>
        <time>2015-02-19T12:27:17Z</time>
      </trkpt>
      <trkpt lat="40.264156" lon="-1.023480">
        <ele>1267.223</ele>
        <time>2015-02-19T12:27:37Z</time>
      </trkpt>
      <trkpt lat="40.264496" lon="-1.023724">
        <ele>1257.475</ele>
        <time>2015-02-19T12:27:57Z</time>
      </trkpt>
      <trkpt lat="40.264783" lon="-1.024069">
        <ele>1264.628</ele>
        <time>2015-02-19T12:28:17Z</time>
      </trkpt>
      <trkpt lat="40.264927" lon="-1.024262">
        <ele>1260.420</ele>
        <time>2015-02-19T12:28:37Z</time>
      </trkpt>
      <trkpt lat="40.265110" lon="-1.024213">
        <ele>1258.507</ele>
        <time>2015-02-19T12:28:57Z</time>
      </trkpt>
      <trkpt lat="40.265865" lon="-1.024771">
        <ele>1255.355</ele>
        <time>2015-02-19T12:29:17Z</time>
      </trkpt>
      <trkpt lat="40.266607" lon="-1.026401">
        <ele>1265.245</ele>
        <time>2015-02-19T12:29:37Z</time>
      </trkpt>
      <trkpt lat="40.266872" lon="-1.026774">
        <ele>1261.666</ele>
        <time>2015-02-19T12:29:57Z</time>
      </trkpt>
      <trkpt lat="40.267617" lon="-1.027359">
        <ele>1253.471</ele>
        <time>2015-02-19T12:30:17Z</time>
      </trkpt>
      <trkpt lat="40.268137" lon="-1.028007">
        <ele>1249.251</ele>
        <time>2015-02-19T12:30:37Z</time>
      </trkpt>
      <trkpt lat="40.268569" lon="-1.028630">
        <ele>1254.887</ele>
        <time>2015-02-19T12:30:57Z</time>
      </trkpt>
      <trkpt lat="40.268874" lon="-1.028804">
        <ele>1256.182</ele>
        <time>2015-02-19T12:31:17Z</time>
      </trkpt>
      <trkpt lat="40.269811" lon="-1.029822">
        <ele>1251.083</ele>
        <time>2015-02-19T12:31:37Z</time>
      </trkpt>
      <trkpt lat="40.270171" lon="-1.030672">
        <ele>1243.025</ele>
        <time>2015-02-19T12:31:57Z</time>
      </trkpt>
      <trkpt lat="40.270519" lon="-1.031424">
        <ele>1227.817</ele>
        <time>2015-02-19T12:32:17Z</time>
      </trkpt>
      <trkpt lat="40.270993" lon="-1.031947">
        <ele>1223.807</ele>
        <time>2015-02-19T12:32:37Z</time>
      </trkpt>
      <trkpt lat="40.271187" lon="-1.032576">
        <ele>1217.366</ele>
        <time>2015-02-19T12:32:57Z</time>
      </trkpt>
      <trkpt lat="40.271817" lon="-1.034543">
        <ele>1202.386</ele>
        <time>2015-02-19T12:33:17Z</time>
      </trkpt>
      <trkpt lat="40.272238" lon="-1.035465">
        <ele>1192.017</ele>
        <time>2015-02-19T12:33:37Z</time>
      </trkpt>
      <trkpt lat="40.272656" lon="-1.036172">
        <ele>1183.822</ele>
        <time>2015-02-19T12:33:57Z</time>
      </trkpt>
      <trkpt lat="40.273018" lon="-1.037413">
        <ele>1173.992</ele>
        <time>2015-02-19T12:34:17Z</time>
      </trkpt>
      <trkpt lat="40.272871" lon="-1.038329">
        <ele>1169.688</ele>
        <time>2015-02-19T12:34:37Z</time>
      </trkpt>
      <trkpt lat="40.272742" lon="-1.039308">
        <ele>1166.183</ele>
        <time>2015-02-19T12:34:57Z</time>
      </trkpt>
      <trkpt lat="40.272234" lon="-1.039980">
        <ele>1159.438</ele>
        <time>2015-02-19T12:35:17Z</time>
      </trkpt>
      <trkpt lat="40.272104" lon="-1.040959">
        <ele>1158.970</ele>
        <time>2015-02-19T12:35:37Z</time>
      </trkpt>
      <trkpt lat="40.271803" lon="-1.042345">
        <ele>1148.417</ele>
        <time>2015-02-19T12:35:57Z</time>
      </trkpt>
      <trkpt lat="40.271620" lon="-1.043029">
        <ele>1144.807</ele>
        <time>2015-02-19T12:36:17Z</time>
      </trkpt>
      <trkpt lat="40.271196" lon="-1.043910">
        <ele>1141.961</ele>
        <time>2015-02-19T12:36:37Z</time>
      </trkpt>
      <trkpt lat="40.270954" lon="-1.044912">
        <ele>1140.431</ele>
        <time>2015-02-19T12:36:57Z</time>
      </trkpt>
      <trkpt lat="40.270362" lon="-1.045481">
        <ele>1135.142</ele>
        <time>2015-02-19T12:37:17Z</time>
      </trkpt>
      <trkpt lat="40.269952" lon="-1.046171">
        <ele>1119.817</ele>
        <time>2015-02-19T12:37:37Z</time>
      </trkpt>
      <trkpt lat="40.270029" lon="-1.046360">
        <ele>1120.197</ele>
        <time>2015-02-19T12:37:57Z</time>
      </trkpt>
      <trkpt lat="40.270379" lon="-1.046215">
        <ele>1130.673</ele>
        <time>2015-02-19T12:38:17Z</time>
      </trkpt>
      <trkpt lat="40.270519" lon="-1.046522">
        <ele>1127.748</ele>
        <time>2015-02-19T12:38:37Z</time>
      </trkpt>
      <trkpt lat="40.270599" lon="-1.046979">
        <ele>1122.573</ele>
        <time>2015-02-19T12:38:57Z</time>
      </trkpt>
      <trkpt lat="40.271119" lon="-1.047961">
        <ele>1114.885</ele>
        <time>2015-02-19T12:39:17Z</time>
      </trkpt>
      <trkpt lat="40.271600" lon="-1.048457">
        <ele>1106.613</ele>
        <time>2015-02-19T12:39:37Z</time>
      </trkpt>
      <trkpt lat="40.271804" lon="-1.048884">
        <ele>1100.407</ele>
        <time>2015-02-19T12:39:57Z</time>
      </trkpt>
      <trkpt lat="40.271564" lon="-1.049419">
        <ele>1094.275</ele>
        <time>2015-02-19T12:40:17Z</time>
      </trkpt>
      <trkpt lat="40.271486" lon="-1.049720">
        <ele>1091.265</ele>
        <time>2015-02-19T12:40:37Z</time>
      </trkpt>
      <trkpt lat="40.271583" lon="-1.049893">
        <ele>1089.696</ele>
        <time>2015-02-19T12:40:57Z</time>
      </trkpt>
      <trkpt lat="40.271877" lon="-1.050088">
        <ele>1086.591</ele>
        <time>2015-02-19T12:41:17Z</time>
      </trkpt>
      <trkpt lat="40.272157" lon="-1.050689">
        <ele>1076.941</ele>
        <time>2015-02-19T12:41:37Z</time>
      </trkpt>
      <trkpt lat="40.272588" lon="-1.051029">
        <ele>1072.827</ele>
        <time>2015-02-19T12:41:57Z</time>
      </trkpt>
      <trkpt lat="40.272968" lon="-1.051411">
        <ele>1068.352</ele>
        <time>2015-02-19T12:42:17Z</time>
      </trkpt>
      <trkpt lat="40.273035" lon="-1.051680">
        <ele>1064.493</ele>
        <time>2015-02-19T12:42:37Z</time>
      </trkpt>
      <trkpt lat="40.273272" lon="-1.052202">
        <ele>1057.665</ele>
        <time>2015-02-19T12:42:57Z</time>
      </trkpt>
      <trkpt lat="40.273580" lon="-1.052640">
        <ele>1052.421</ele>
        <time>2015-02-19T12:43:17Z</time>
      </trkpt>
      <trkpt lat="40.273780" lon="-1.052809">
        <ele>1049.707</ele>
        <time>2015-02-19T12:43:37Z</time>
      </trkpt>
      <trkpt lat="40.274199" lon="-1.053679">
        <ele>1038.187</ele>
        <time>2015-02-19T12:43:57Z</time>
      </trkpt>
      <trkpt lat="40.274450" lon="-1.053793">
        <ele>1035.097</ele>
        <time>2015-02-19T12:44:17Z</time>
      </trkpt>
      <trkpt lat="40.274665" lon="-1.054194">
        <ele>1032.868</ele>
        <time>2015-02-19T12:44:37Z</time>
      </trkpt>
      <trkpt lat="40.274653" lon="-1.054723">
        <ele>1031.353</ele>
        <time>2015-02-19T12:44:57Z</time>
      </trkpt>
      <trkpt lat="40.274514" lon="-1.055133">
        <ele>1030.183</ele>
        <time>2015-02-19T12:45:17Z</time>
      </trkpt>
      <trkpt lat="40.274121" lon="-1.055835">
        <ele>1029.729</ele>
        <time>2015-02-19T12:45:37Z</time>
      </trkpt>
      <trkpt lat="40.273903" lon="-1.056437">
        <ele>1026.394</ele>
        <time>2015-02-19T12:45:57Z</time>
      </trkpt>
      <trkpt lat="40.273710" lon="-1.056660">
        <ele>1024.698</ele>
        <time>2015-02-19T12:46:17Z</time>
      </trkpt>
      <trkpt lat="40.273609" lon="-1.056812">
        <ele>1024.315</ele>
        <time>2015-02-19T12:46:37Z</time>
      </trkpt>
      <trkpt lat="40.273607" lon="-1.057327">
        <ele>1021.026</ele>
        <time>2015-02-19T12:46:57Z</time>
      </trkpt>
      <trkpt lat="40.273613" lon="-1.057678">
        <ele>1018.107</ele>
        <time>2015-02-19T12:47:17Z</time>
      </trkpt>
      <trkpt lat="40.273403" lon="-1.058159">
        <ele>1018.577</ele>
        <time>2015-02-19T12:47:37Z</time>
      </trkpt>
      <trkpt lat="40.273314" lon="-1.058446">
        <ele>1021.497</ele>
        <time>2015-02-19T12:47:57Z</time>
      </trkpt>
      <trkpt lat="40.273250" lon="-1.058922">
        <ele>1026.688</ele>
        <time>2015-02-19T12:48:17Z</time>
      </trkpt>
      <trkpt lat="40.273303" lon="-1.059208">
        <ele>1029.733</ele>
        <time>2015-02-19T12:48:37Z</time>
      </trkpt>
      <trkpt lat="40.273424" lon="-1.059309">
        <ele>1030.473</ele>
        <time>2015-02-19T12:48:57Z</time>
      </trkpt>
      <trkpt lat="40.273547" lon="-1.059368">
        <ele>1010.579</ele>
        <time>2015-02-19T12:49:17Z</time>
      </trkpt>
      <trkpt lat="40.273665" lon="-1.059440">
        <ele>1009.234</ele>
        <time>2015-02-19T12:49:37Z</time>
      </trkpt>
      <trkpt lat="40.273881" lon="-1.059461">
        <ele>1008.976</ele>
        <time>2015-02-19T12:49:57Z</time>
      </trkpt>
      <trkpt lat="40.273907" lon="-1.059433">
        <ele>1009.590</ele>
        <time>2015-02-19T12:50:17Z</time>
      </trkpt>
      <trkpt lat="40.274027" lon="-1.059265">
        <ele>1012.419</ele>
        <time>2015-02-19T12:50:37Z</time>
      </trkpt>
      <trkpt lat="40.274111" lon="-1.059156">
        <ele>1013.807</ele>
        <time>2015-02-19T12:50:57Z</time>
      </trkpt>
      <trkpt lat="40.274205" lon="-1.059011">
        <ele>1015.565</ele>
        <time>2015-02-19T12:51:17Z</time>
      </trkpt>
      <trkpt lat="40.274338" lon="-1.058865">
        <ele>1019.145</ele>
        <time>2015-02-19T12:51:37Z</time>
      </trkpt>
      <trkpt lat="40.274543" lon="-1.058791">
        <ele>1024.256</ele>
        <time>2015-02-19T12:51:57Z</time>
      </trkpt>
      <trkpt lat="40.274680" lon="-1.058831">
        <ele>1026.891</ele>
        <time>2015-02-19T12:52:17Z</time>
      </trkpt>
      <trkpt lat="40.274812" lon="-1.058931">
        <ele>1029.131</ele>
        <time>2015-02-19T12:52:37Z</time>
      </trkpt>
      <trkpt lat="40.274937" lon="-1.059101">
        <ele>1030.777</ele>
        <time>2015-02-19T12:52:57Z</time>
      </trkpt>
      <trkpt lat="40.275098" lon="-1.059307">
        <ele>1031.822</ele>
        <time>2015-02-19T12:53:17Z</time>
      </trkpt>
      <trkpt lat="40.275303" lon="-1.059470">
        <ele>1032.734</ele>
        <time>2015-02-19T12:53:37Z</time>
      </trkpt>
      <trkpt lat="40.275502" lon="-1.059631">
        <ele>1032.455</ele>
        <time>2015-02-19T12:53:57Z</time>
      </trkpt>
      <trkpt lat="40.275616" lon="-1.059829">
        <ele>1033.910</ele>
        <time>2015-02-19T12:54:17Z</time>
      </trkpt>
      <trkpt lat="40.275741" lon="-1.060027">
        <ele>1035.607</ele>
        <time>2015-02-19T12:54:37Z</time>
      </trkpt>
      <trkpt lat="40.275881" lon="-1.060255">
        <ele>1036.911</ele>
        <time>2015-02-19T12:54:57Z</time>
      </trkpt>
      <trkpt lat="40.276003" lon="-1.060478">
        <ele>1036.531</ele>
        <time>2015-02-19T12:55:17Z</time>
      </trkpt>
      <trkpt lat="40.276013" lon="-1.060651">
        <ele>1038.822</ele>
        <time>2015-02-19T12:55:37Z</time>
      </trkpt>
      <trkpt lat="40.275980" lon="-1.060841">
        <ele>1041.197</ele>
        <time>2015-02-19T12:55:57Z</time>
      </trkpt>
      <trkpt lat="40.275949" lon="-1.061037">
        <ele>1043.927</ele>
        <time>2015-02-19T12:56:17Z</time>
      </trkpt>
      <trkpt lat="40.276000" lon="-1.061192">
        <ele>1045.593</ele>
        <time>2015-02-19T12:56:37Z</time>
      </trkpt>
      <trkpt lat="40.276116" lon="-1.061194">
        <ele>1047.128</ele>
        <time>2015-02-19T12:56:57Z</time>
      </trkpt>
      <trkpt lat="40.276224" lon="-1.061255">
        <ele>1047.949</ele>
        <time>2015-02-19T12:57:17Z</time>
      </trkpt>
      <trkpt lat="40.276357" lon="-1.061414">
        <ele>1048.202</ele>
        <time>2015-02-19T12:57:37Z</time>
      </trkpt>
      <trkpt lat="40.276558" lon="-1.061597">
        <ele>1048.322</ele>
        <time>2015-02-19T12:57:57Z</time>
      </trkpt>
      <trkpt lat="40.276766" lon="-1.061836">
        <ele>1048.607</ele>
        <time>2015-02-19T12:58:17Z</time>
      </trkpt>
      <trkpt lat="40.276943" lon="-1.062011">
        <ele>1049.072</ele>
        <time>2015-02-19T12:58:37Z</time>
      </trkpt>
      <trkpt lat="40.277145" lon="-1.062083">
        <ele>1049.612</ele>
        <time>2015-02-19T12:58:57Z</time>
      </trkpt>
      <trkpt lat="40.277357" lon="-1.062057">
        <ele>1050.523</ele>
        <time>2015-02-19T12:59:17Z</time>
      </trkpt>
      <trkpt lat="40.277563" lon="-1.062001">
        <ele>1052.188</ele>
        <time>2015-02-19T12:59:37Z</time>
      </trkpt>
      <trkpt lat="40.277851" lon="-1.062027">
        <ele>1054.488</ele>
        <time>2015-02-19T12:59:57Z</time>
      </trkpt>
      <trkpt lat="40.278080" lon="-1.062083">
        <ele>1055.834</ele>
        <time>2015-02-19T13:00:17Z</time>
      </trkpt>
      <trkpt lat="40.278311" lon="-1.062068">
        <ele>1056.649</ele>
        <time>2015-02-19T13:00:37Z</time>
      </trkpt>
      <trkpt lat="40.278420" lon="-1.062057">
        <ele>1055.677</ele>
        <time>2015-02-19T13:00:57Z</time>
      </trkpt>
      <trkpt lat="40.278755" lon="-1.062125">
        <ele>1052.161</ele>
        <time>2015-02-19T13:01:17Z</time>
      </trkpt>
      <trkpt lat="40.278974" lon="-1.062045">
        <ele>1049.627</ele>
        <time>2015-02-19T13:01:37Z</time>
      </trkpt>
      <trkpt lat="40.279200" lon="-1.061919">
        <ele>1047.507</ele>
        <time>2015-02-19T13:01:57Z</time>
      </trkpt>
      <trkpt lat="40.279301" lon="-1.061937">
        <ele>1047.095</ele>
        <time>2015-02-19T13:02:17Z</time>
      </trkpt>
      <trkpt lat="40.279544" lon="-1.062123">
        <ele>1043.835</ele>
        <time>2015-02-19T13:02:37Z</time>
      </trkpt>
      <trkpt lat="40.279644" lon="-1.062192">
        <ele>1042.696</ele>
        <time>2015-02-19T13:02:57Z</time>
      </trkpt>
      <trkpt lat="40.280089" lon="-1.062340">
        <ele>1038.811</ele>
        <time>2015-02-19T13:03:17Z</time>
      </trkpt>
      <trkpt lat="40.280227" lon="-1.062383">
        <ele>1038.041</ele>
        <time>2015-02-19T13:03:37Z</time>
      </trkpt>
      <trkpt lat="40.280633" lon="-1.062353">
        <ele>1037.357</ele>
        <time>2015-02-19T13:03:57Z</time>
      </trkpt>
      <trkpt lat="40.280864" lon="-1.062327">
        <ele>1038.662</ele>
        <time>2015-02-19T13:04:17Z</time>
      </trkpt>
      <trkpt lat="40.280966" lon="-1.062499">
        <ele>1038.368</ele>
        <time>2015-02-19T13:04:37Z</time>
      </trkpt>
      <trkpt lat="40.280989" lon="-1.062587">
        <ele>1037.742</ele>
        <time>2015-02-19T13:04:57Z</time>
      </trkpt>
      <trkpt lat="40.280987" lon="-1.062588">
        <ele>1037.626</ele>
        <time>2015-02-19T13:05:17Z</time>
      </trkpt>
      <trkpt lat="40.280979" lon="-1.062588">
        <ele>1036.407</ele>
        <time>2015-02-19T13:05:37Z</time>
      </trkpt>
      <trkpt lat="40.280979" lon="-1.062732">
        <ele>1038.484</ele>
        <time>2015-02-19T13:05:57Z</time>
      </trkpt>
      <trkpt lat="40.280997" lon="-1.063015">
        <ele>1037.774</ele>
        <time>2015-02-19T13:06:17Z</time>
      </trkpt>
      <trkpt lat="40.280999" lon="-1.063071">
        <ele>1037.525</ele>
        <time>2015-02-19T13:06:37Z</time>
      </trkpt>
      <trkpt lat="40.281109" lon="-1.063515">
        <ele>1035.920</ele>
        <time>2015-02-19T13:06:57Z</time>
      </trkpt>
      <trkpt lat="40.281241" lon="-1.063794">
        <ele>1034.120</ele>
        <time>2015-02-19T13:07:17Z</time>
      </trkpt>
      <trkpt lat="40.281378" lon="-1.063992">
        <ele>1033.116</ele>
        <time>2015-02-19T13:07:37Z</time>
      </trkpt>
      <trkpt lat="40.281500" lon="-1.064415">
        <ele>1029.841</ele>
        <time>2015-02-19T13:07:57Z</time>
      </trkpt>
      <trkpt lat="40.281490" lon="-1.064513">
        <ele>1029.235</ele>
        <time>2015-02-19T13:08:17Z</time>
      </trkpt>
      <trkpt lat="40.281524" lon="-1.064946">
        <ele>1027.386</ele>
        <time>2015-02-19T13:08:37Z</time>
      </trkpt>
      <trkpt lat="40.281691" lon="-1.065351">
        <ele>1026.514</ele>
        <time>2015-02-19T13:08:57Z</time>
      </trkpt>
      <trkpt lat="40.281718" lon="-1.065789">
        <ele>1025.107</ele>
        <time>2015-02-19T13:09:17Z</time>
      </trkpt>
      <trkpt lat="40.281718" lon="-1.066347">
        <ele>1022.921</ele>
        <time>2015-02-19T13:09:37Z</time>
      </trkpt>
      <trkpt lat="40.281766" lon="-1.066723">
        <ele>1022.261</ele>
        <time>2015-02-19T13:09:57Z</time>
      </trkpt>
      <trkpt lat="40.281758" lon="-1.067021">
        <ele>1021.282</ele>
        <time>2015-02-19T13:10:17Z</time>
      </trkpt>
      <trkpt lat="40.281836" lon="-1.067497">
        <ele>1019.687</ele>
        <time>2015-02-19T13:10:37Z</time>
      </trkpt>
      <trkpt lat="40.282060" lon="-1.068007">
        <ele>1017.527</ele>
        <time>2015-02-19T13:10:57Z</time>
      </trkpt>
      <trkpt lat="40.282153" lon="-1.068510">
        <ele>1015.643</ele>
        <time>2015-02-19T13:11:17Z</time>
      </trkpt>
      <trkpt lat="40.282334" lon="-1.069387">
        <ele>1012.598</ele>
        <time>2015-02-19T13:11:37Z</time>
      </trkpt>
      <trkpt lat="40.282507" lon="-1.069882">
        <ele>1011.956</ele>
        <time>2015-02-19T13:11:57Z</time>
      </trkpt>
      <trkpt lat="40.282864" lon="-1.070795">
        <ele>1009.359</ele>
        <time>2015-02-19T13:12:17Z</time>
      </trkpt>
      <trkpt lat="40.283176" lon="-1.071340">
        <ele>1007.614</ele>
        <time>2015-02-19T13:12:37Z</time>
      </trkpt>
      <trkpt lat="40.283444" lon="-1.071783">
        <ele>1006.207</ele>
        <time>2015-02-19T13:12:57Z</time>
      </trkpt>
      <trkpt lat="40.283813" lon="-1.072402">
        <ele>1003.983</ele>
        <time>2015-02-19T13:13:17Z</time>
      </trkpt>
      <trkpt lat="40.284200" lon="-1.073082">
        <ele>1001.323</ele>
        <time>2015-02-19T13:13:37Z</time>
      </trkpt>
      <trkpt lat="40.284557" lon="-1.073700">
        <ele>999.074</ele>
        <time>2015-02-19T13:13:57Z</time>
      </trkpt>
      <trkpt lat="40.285034" lon="-1.074547">
        <ele>995.069</ele>
        <time>2015-02-19T13:14:17Z</time>
      </trkpt>
      <trkpt lat="40.285380" lon="-1.075111">
        <ele>992.379</ele>
        <time>2015-02-19T13:14:37Z</time>
      </trkpt>
      <trkpt lat="40.285498" lon="-1.075245">
        <ele>991.495</ele>
        <time>2015-02-19T13:14:57Z</time>
      </trkpt>
      <trkpt lat="40.285739" lon="-1.075399">
        <ele>989.980</ele>
        <time>2015-02-19T13:15:17Z</time>
      </trkpt>
      <trkpt lat="40.286029" lon="-1.075490">
        <ele>988.359</ele>
        <time>2015-02-19T13:15:37Z</time>
      </trkpt>
      <trkpt lat="40.286031" lon="-1.075491">
        <ele>990.803</ele>
        <time>2015-02-19T13:15:57Z</time>
      </trkpt>
      <trkpt lat="40.286070" lon="-1.075389">
        <ele>987.323</ele>
        <time>2015-02-19T13:16:17Z</time>
      </trkpt>
      <trkpt lat="40.286021" lon="-1.075201">
        <ele>986.307</ele>
        <time>2015-02-19T13:16:37Z</time>
      </trkpt>
      <trkpt lat="40.285966" lon="-1.074983">
        <ele>985.893</ele>
        <time>2015-02-19T13:16:57Z</time>
      </trkpt>
      <trkpt lat="40.285837" lon="-1.074705">
        <ele>986.163</ele>
        <time>2015-02-19T13:17:17Z</time>
      </trkpt>
      <trkpt lat="40.285780" lon="-1.074527">
        <ele>986.594</ele>
        <time>2015-02-19T13:17:37Z</time>
      </trkpt>
      <trkpt lat="40.285825" lon="-1.074372">
        <ele>985.289</ele>
        <time>2015-02-19T13:17:57Z</time>
      </trkpt>
      <trkpt lat="40.286061" lon="-1.073861">
        <ele>984.689</ele>
        <time>2015-02-19T13:18:17Z</time>
      </trkpt>
      <trkpt lat="40.286156" lon="-1.073436">
        <ele>986.615</ele>
        <time>2015-02-19T13:18:37Z</time>
      </trkpt>
      <trkpt lat="40.286162" lon="-1.073093">
        <ele>989.380</ele>
        <time>2015-02-19T13:18:57Z</time>
      </trkpt>
      <trkpt lat="40.286138" lon="-1.072679">
        <ele>993.922</ele>
        <time>2015-02-19T13:19:17Z</time>
      </trkpt>
      <trkpt lat="40.286105" lon="-1.072263">
        <ele>997.462</ele>
        <time>2015-02-19T13:19:37Z</time>
      </trkpt>
      <trkpt lat="40.286110" lon="-1.071983">
        <ele>999.308</ele>
        <time>2015-02-19T13:19:57Z</time>
      </trkpt>
      <trkpt lat="40.286136" lon="-1.071704">
        <ele>998.407</ele>
        <time>2015-02-19T13:20:17Z</time>
      </trkpt>
      <trkpt lat="40.286195" lon="-1.071406">
        <ele>998.530</ele>
        <time>2015-02-19T13:20:37Z</time>
      </trkpt>
      <trkpt lat="40.286280" lon="-1.071331">
        <ele>998.620</ele>
        <time>2015-02-19T13:20:57Z</time>
      </trkpt>
      <trkpt lat="40.286350" lon="-1.071371">
        <ele>998.931</ele>
        <time>2015-02-19T13:21:17Z</time>
      </trkpt>
      <trkpt lat="40.286542" lon="-1.071464">
        <ele>998.516</ele>
        <time>2015-02-19T13:21:37Z</time>
      </trkpt>
      <trkpt lat="40.286781" lon="-1.071431">
        <ele>995.886</ele>
        <time>2015-02-19T13:21:57Z</time>
      </trkpt>
      <trkpt lat="40.287007" lon="-1.071332">
        <ele>994.492</ele>
        <time>2015-02-19T13:22:17Z</time>
      </trkpt>
      <trkpt lat="40.287175" lon="-1.071315">
        <ele>994.067</ele>
        <time>2015-02-19T13:22:37Z</time>
      </trkpt>
      <trkpt lat="40.287307" lon="-1.071440">
        <ele>993.331</ele>
        <time>2015-02-19T13:22:57Z</time>
      </trkpt>
      <trkpt lat="40.287506" lon="-1.071667">
        <ele>990.961</ele>
        <time>2015-02-19T13:23:17Z</time>
      </trkpt>
      <trkpt lat="40.287687" lon="-1.071769">
        <ele>989.907</ele>
        <time>2015-02-19T13:23:37Z</time>
      </trkpt>
      <trkpt lat="40.287888" lon="-1.071731">
        <ele>990.107</ele>
        <time>2015-02-19T13:23:57Z</time>
      </trkpt>
      <trkpt lat="40.288115" lon="-1.071553">
        <ele>990.271</ele>
        <time>2015-02-19T13:24:17Z</time>
      </trkpt>
      <trkpt lat="40.288304" lon="-1.071402">
        <ele>989.671</ele>
        <time>2015-02-19T13:24:37Z</time>
      </trkpt>
      <trkpt lat="40.288498" lon="-1.071334">
        <ele>988.172</ele>
        <time>2015-02-19T13:24:57Z</time>
      </trkpt>
      <trkpt lat="40.288687" lon="-1.071363">
        <ele>985.397</ele>
        <time>2015-02-19T13:25:17Z</time>
      </trkpt>
      <trkpt lat="40.288862" lon="-1.071434">
        <ele>982.597</ele>
        <time>2015-02-19T13:25:37Z</time>
      </trkpt>
      <trkpt lat="40.289017" lon="-1.071515">
        <ele>979.953</ele>
        <time>2015-02-19T13:25:57Z</time>
      </trkpt>
      <trkpt lat="40.289167" lon="-1.071592">
        <ele>977.688</ele>
        <time>2015-02-19T13:26:17Z</time>
      </trkpt>
      <trkpt lat="40.289479" lon="-1.071489">
        <ele>976.361</ele>
        <time>2015-02-19T13:26:37Z</time>
      </trkpt>
      <trkpt lat="40.289669" lon="-1.071418">
        <ele>975.821</ele>
        <time>2015-02-19T13:26:57Z</time>
      </trkpt>
      <trkpt lat="40.289895" lon="-1.071460">
        <ele>975.113</ele>
        <time>2015-02-19T13:27:17Z</time>
      </trkpt>
      <trkpt lat="40.290128" lon="-1.071624">
        <ele>974.307</ele>
        <time>2015-02-19T13:27:37Z</time>
      </trkpt>
      <trkpt lat="40.290371" lon="-1.071683">
        <ele>973.364</ele>
        <time>2015-02-19T13:27:57Z</time>
      </trkpt>
      <trkpt lat="40.290585" lon="-1.071601">
        <ele>972.734</ele>
        <time>2015-02-19T13:28:17Z</time>
      </trkpt>
      <trkpt lat="40.290821" lon="-1.071336">
        <ele>972.195</ele>
        <time>2015-02-19T13:28:37Z</time>
      </trkpt>
      <trkpt lat="40.291049" lon="-1.071113">
        <ele>972.110</ele>
        <time>2015-02-19T13:28:57Z</time>
      </trkpt>
      <trkpt lat="40.291252" lon="-1.070858">
        <ele>971.050</ele>
        <time>2015-02-19T13:29:17Z</time>
      </trkpt>
      <trkpt lat="40.291279" lon="-1.070823">
        <ele>970.846</ele>
        <time>2015-02-19T13:29:37Z</time>
      </trkpt>
      <trkpt lat="40.291442" lon="-1.070780">
        <ele>970.821</ele>
        <time>2015-02-19T13:29:57Z</time>
      </trkpt>
      <trkpt lat="40.291600" lon="-1.070855">
        <ele>971.418</ele>
        <time>2015-02-19T13:30:17Z</time>
      </trkpt>
      <trkpt lat="40.291786" lon="-1.070888">
        <ele>971.898</ele>
        <time>2015-02-19T13:30:37Z</time>
      </trkpt>
      <trkpt lat="40.292041" lon="-1.070846">
        <ele>972.617</ele>
        <time>2015-02-19T13:30:57Z</time>
      </trkpt>
      <trkpt lat="40.292263" lon="-1.070639">
        <ele>971.307</ele>
        <time>2015-02-19T13:31:17Z</time>
      </trkpt>
      <trkpt lat="40.292456" lon="-1.070505">
        <ele>970.929</ele>
        <time>2015-02-19T13:31:37Z</time>
      </trkpt>
      <trkpt lat="40.292702" lon="-1.070432">
        <ele>970.999</ele>
        <time>2015-02-19T13:31:57Z</time>
      </trkpt>
      <trkpt lat="40.292828" lon="-1.070443">
        <ele>971.540</ele>
        <time>2015-02-19T13:32:17Z</time>
      </trkpt>
      <trkpt lat="40.293040" lon="-1.070705">
        <ele>970.295</ele>
        <time>2015-02-19T13:32:37Z</time>
      </trkpt>
      <trkpt lat="40.293249" lon="-1.070899">
        <ele>967.945</ele>
        <time>2015-02-19T13:32:57Z</time>
      </trkpt>
      <trkpt lat="40.293530" lon="-1.070975">
        <ele>966.431</ele>
        <time>2015-02-19T13:33:17Z</time>
      </trkpt>
      <trkpt lat="40.293722" lon="-1.070982">
        <ele>965.546</ele>
        <time>2015-02-19T13:33:37Z</time>
      </trkpt>
      <trkpt lat="40.293944" lon="-1.070979">
        <ele>964.644</ele>
        <time>2015-02-19T13:33:57Z</time>
      </trkpt>
      <trkpt lat="40.294201" lon="-1.070884">
        <ele>964.005</ele>
        <time>2015-02-19T13:34:17Z</time>
      </trkpt>
      <trkpt lat="40.294454" lon="-1.070960">
        <ele>963.215</ele>
        <time>2015-02-19T13:34:37Z</time>
      </trkpt>
      <trkpt lat="40.294703" lon="-1.071072">
        <ele>962.407</ele>
        <time>2015-02-19T13:34:57Z</time>
      </trkpt>
      <trkpt lat="40.294928" lon="-1.071050">
        <ele>960.562</ele>
        <time>2015-02-19T13:35:17Z</time>
      </trkpt>
      <trkpt lat="40.295242" lon="-1.070860">
        <ele>959.432</ele>
        <time>2015-02-19T13:35:37Z</time>
      </trkpt>
      <trkpt lat="40.295564" lon="-1.070749">
        <ele>958.463</ele>
        <time>2015-02-19T13:35:57Z</time>
      </trkpt>
      <trkpt lat="40.295809" lon="-1.070717">
        <ele>957.848</ele>
        <time>2015-02-19T13:36:17Z</time>
      </trkpt>
      <trkpt lat="40.295969" lon="-1.070762">
        <ele>958.168</ele>
        <time>2015-02-19T13:36:37Z</time>
      </trkpt>
      <trkpt lat="40.296325" lon="-1.070942">
        <ele>958.274</ele>
        <time>2015-02-19T13:36:57Z</time>
      </trkpt>
      <trkpt lat="40.296540" lon="-1.071035">
        <ele>958.279</ele>
        <time>2015-02-19T13:37:17Z</time>
      </trkpt>
      <trkpt lat="40.296785" lon="-1.071098">
        <ele>957.349</ele>
        <time>2015-02-19T13:37:37Z</time>
      </trkpt>
      <trkpt lat="40.297008" lon="-1.071129">
        <ele>957.202</ele>
        <time>2015-02-19T13:37:57Z</time>
      </trkpt>
      <trkpt lat="40.297216" lon="-1.071200">
        <ele>957.122</ele>
        <time>2015-02-19T13:38:17Z</time>
      </trkpt>
      <trkpt lat="40.297371" lon="-1.071258">
        <ele>956.307</ele>
        <time>2015-02-19T13:38:37Z</time>
      </trkpt>
      <trkpt lat="40.297602" lon="-1.071262">
        <ele>954.352</ele>
        <time>2015-02-19T13:38:57Z</time>
      </trkpt>
      <trkpt lat="40.297800" lon="-1.071206">
        <ele>953.042</ele>
        <time>2015-02-19T13:39:17Z</time>
      </trkpt>
      <trkpt lat="40.298038" lon="-1.071179">
        <ele>952.243</ele>
        <time>2015-02-19T13:39:37Z</time>
      </trkpt>
      <trkpt lat="40.298307" lon="-1.071221">
        <ele>951.628</ele>
        <time>2015-02-19T13:39:57Z</time>
      </trkpt>
      <trkpt lat="40.298541" lon="-1.071278">
        <ele>951.358</ele>
        <time>2015-02-19T13:40:17Z</time>
      </trkpt>
      <trkpt lat="40.298803" lon="-1.071367">
        <ele>951.284</ele>
        <time>2015-02-19T13:40:37Z</time>
      </trkpt>
      <trkpt lat="40.299201" lon="-1.071573">
        <ele>951.979</ele>
        <time>2015-02-19T13:40:57Z</time>
      </trkpt>
      <trkpt lat="40.299633" lon="-1.071752">
        <ele>953.647</ele>
        <time>2015-02-19T13:41:17Z</time>
      </trkpt>
      <trkpt lat="40.300012" lon="-1.071874">
        <ele>956.129</ele>
        <time>2015-02-19T13:41:37Z</time>
      </trkpt>
      <trkpt lat="40.300281" lon="-1.071978">
        <ele>957.921</ele>
        <time>2015-02-19T13:41:57Z</time>
      </trkpt>
      <trkpt lat="40.300527" lon="-1.072058">
        <ele>959.507</ele>
        <time>2015-02-19T13:42:17Z</time>
      </trkpt>
      <trkpt lat="40.300719" lon="-1.072129">
        <ele>960.952</ele>
        <time>2015-02-19T13:42:37Z</time>
      </trkpt>
      <trkpt lat="40.300907" lon="-1.072192">
        <ele>962.912</ele>
        <time>2015-02-19T13:42:57Z</time>
      </trkpt>
      <trkpt lat="40.301025" lon="-1.072222">
        <ele>963.783</ele>
        <time>2015-02-19T13:43:17Z</time>
      </trkpt>
      <trkpt lat="40.301123" lon="-1.072249">
        <ele>963.328</ele>
        <time>2015-02-19T13:43:37Z</time>
      </trkpt>
      <trkpt lat="40.301172" lon="-1.072256">
        <ele>962.998</ele>
        <time>2015-02-19T13:43:57Z</time>
      </trkpt>
      <trkpt lat="40.301275" lon="-1.072271">
        <ele>962.014</ele>
        <time>2015-02-19T13:44:17Z</time>
      </trkpt>
      <trkpt lat="40.301397" lon="-1.072281">
        <ele>961.259</ele>
        <time>2015-02-19T13:44:37Z</time>
      </trkpt>
      <trkpt lat="40.301412" lon="-1.072290">
        <ele>961.238</ele>
        <time>2015-02-19T13:44:57Z</time>
      </trkpt>
      <trkpt lat="40.301515" lon="-1.072300">
        <ele>961.270</ele>
        <time>2015-02-19T13:45:17Z</time>
      </trkpt>
      <trkpt lat="40.301633" lon="-1.072337">
        <ele>961.017</ele>
        <time>2015-02-19T13:45:37Z</time>
      </trkpt>
      <trkpt lat="40.301663" lon="-1.072344">
        <ele>960.907</ele>
        <time>2015-02-19T13:45:57Z</time>
      </trkpt>
      <trkpt lat="40.301721" lon="-1.072293">
        <ele>960.841</ele>
        <time>2015-02-19T13:46:17Z</time>
      </trkpt>
      <trkpt lat="40.302048" lon="-1.072931">
        <ele>963.031</ele>
        <time>2015-02-19T13:46:37Z</time>
      </trkpt>
      <trkpt lat="40.302846" lon="-1.073596">
        <ele>959.432</ele>
        <time>2015-02-19T13:46:57Z</time>
      </trkpt>
      <trkpt lat="40.303513" lon="-1.074194">
        <ele>956.827</ele>
        <time>2015-02-19T13:47:17Z</time>
      </trkpt>
      <trkpt lat="40.303955" lon="-1.074763">
        <ele>955.227</ele>
        <time>2015-02-19T13:47:37Z</time>
      </trkpt>
      <trkpt lat="40.304196" lon="-1.075032">
        <ele>953.713</ele>
        <time>2015-02-19T13:47:57Z</time>
      </trkpt>
      <trkpt lat="40.304240" lon="-1.075322">
        <ele>953.228</ele>
        <time>2015-02-19T13:48:17Z</time>
      </trkpt>
      <trkpt lat="40.305415" lon="-1.075700">
        <ele>944.341</ele>
        <time>2015-02-19T13:48:37Z</time>
      </trkpt>
      <trkpt lat="40.305625" lon="-1.075677">
        <ele>942.681</ele>
        <time>2015-02-19T13:48:57Z</time>
      </trkpt>
      <trkpt lat="40.306251" lon="-1.074682">
        <ele>934.309</ele>
        <time>2015-02-19T13:49:17Z</time>
      </trkpt>
      <trkpt lat="40.306837" lon="-1.073585">
        <ele>935.807</ele>
        <time>2015-02-19T13:49:37Z</time>
      </trkpt>
      <trkpt lat="40.307495" lon="-1.073668">
        <ele>934.862</ele>
        <time>2015-02-19T13:49:57Z</time>
      </trkpt>
      <trkpt lat="40.307945" lon="-1.073929">
        <ele>935.342</ele>
        <time>2015-02-19T13:50:17Z</time>
      </trkpt>
      <trkpt lat="40.308402" lon="-1.074551">
        <ele>939.763</ele>
        <time>2015-02-19T13:50:37Z</time>
      </trkpt>
      <trkpt lat="40.308791" lon="-1.075020">
        <ele>932.718</ele>
        <time>2015-02-19T13:50:57Z</time>
      </trkpt>
      <trkpt lat="40.309459" lon="-1.075739">
        <ele>933.198</ele>
        <time>2015-02-19T13:51:17Z</time>
      </trkpt>
      <trkpt lat="40.309568" lon="-1.075959">
        <ele>932.014</ele>
        <time>2015-02-19T13:51:37Z</time>
      </trkpt>
      <trkpt lat="40.309693" lon="-1.076419">
        <ele>928.779</ele>
        <time>2015-02-19T13:51:57Z</time>
      </trkpt>
      <trkpt lat="40.309745" lon="-1.077155">
        <ele>924.521</ele>
        <time>2015-02-19T13:52:17Z</time>
      </trkpt>
      <trkpt lat="40.310002" lon="-1.077627">
        <ele>923.341</ele>
        <time>2015-02-19T13:52:37Z</time>
      </trkpt>
      <trkpt lat="40.311084" lon="-1.077923">
        <ele>920.405</ele>
        <time>2015-02-19T13:52:57Z</time>
      </trkpt>
      <trkpt lat="40.313064" lon="-1.078620">
        <ele>919.407</ele>
        <time>2015-02-19T13:53:17Z</time>
      </trkpt>
      <trkpt lat="40.313438" lon="-1.078987">
        <ele>917.790</ele>
        <time>2015-02-19T13:53:37Z</time>
      </trkpt>
      <trkpt lat="40.314192" lon="-1.080132">
        <ele>921.350</ele>
        <time>2015-02-19T13:53:57Z</time>
      </trkpt>
      <trkpt lat="40.314841" lon="-1.081229">
        <ele>933.921</ele>
        <time>2015-02-19T13:54:17Z</time>
      </trkpt>
      <trkpt lat="40.315630" lon="-1.082904">
        <ele>933.536</ele>
        <time>2015-02-19T13:54:37Z</time>
      </trkpt>
      <trkpt lat="40.317044" lon="-1.085831">
        <ele>928.496</ele>
        <time>2015-02-19T13:54:57Z</time>
      </trkpt>
      <trkpt lat="40.317625" lon="-1.086878">
        <ele>931.222</ele>
        <time>2015-02-19T13:55:17Z</time>
      </trkpt>
      <trkpt lat="40.318699" lon="-1.088305">
        <ele>923.887</ele>
        <time>2015-02-19T13:55:37Z</time>
      </trkpt>
      <trkpt lat="40.319276" lon="-1.089043">
        <ele>925.258</ele>
        <time>2015-02-19T13:55:57Z</time>
      </trkpt>
      <trkpt lat="40.319506" lon="-1.089483">
        <ele>927.452</ele>
        <time>2015-02-19T13:56:17Z</time>
      </trkpt>
      <trkpt lat="40.319631" lon="-1.089857">
        <ele>929.017</ele>
        <time>2015-02-19T13:56:37Z</time>
      </trkpt>
      <trkpt lat="40.319721" lon="-1.090574">
        <ele>930.507</ele>
        <time>2015-02-19T13:56:57Z</time>
      </trkpt>
      <trkpt lat="40.319847" lon="-1.091017">
        <ele>930.623</ele>
        <time>2015-02-19T13:57:17Z</time>
      </trkpt>
      <trkpt lat="40.320288" lon="-1.091518">
        <ele>932.743</ele>
        <time>2015-02-19T13:57:37Z</time>
      </trkpt>
      <trkpt lat="40.320902" lon="-1.092119">
        <ele>931.264</ele>
        <time>2015-02-19T13:57:57Z</time>
      </trkpt>
      <trkpt lat="40.321502" lon="-1.092651">
        <ele>930.599</ele>
        <time>2015-02-19T13:58:17Z</time>
      </trkpt>
      <trkpt lat="40.321781" lon="-1.092900">
        <ele>931.699</ele>
        <time>2015-02-19T13:58:37Z</time>
      </trkpt>
      <trkpt lat="40.322943" lon="-1.093313">
        <ele>931.895</ele>
        <time>2015-02-19T13:58:57Z</time>
      </trkpt>
      <trkpt lat="40.323583" lon="-1.093677">
        <ele>926.790</ele>
        <time>2015-02-19T13:59:17Z</time>
      </trkpt>
      <trkpt lat="40.323725" lon="-1.093753">
        <ele>928.079</ele>
        <time>2015-02-19T13:59:37Z</time>
      </trkpt>
      <trkpt lat="40.324078" lon="-1.094005">
        <ele>924.405</ele>
        <time>2015-02-19T13:59:57Z</time>
      </trkpt>
      <trkpt lat="40.324546" lon="-1.094313">
        <ele>924.225</ele>
        <time>2015-02-19T14:00:17Z</time>
      </trkpt>
      <trkpt lat="40.324952" lon="-1.094560">
        <ele>920.807</ele>
        <time>2015-02-19T14:00:37Z</time>
      </trkpt>
      <trkpt lat="40.325221" lon="-1.094753">
        <ele>922.055</ele>
        <time>2015-02-19T14:00:57Z</time>
      </trkpt>
      <trkpt lat="40.325567" lon="-1.095007">
        <ele>928.645</ele>
        <time>2015-02-19T14:01:17Z</time>
      </trkpt>
      <trkpt lat="40.325962" lon="-1.095269">
        <ele>929.486</ele>
        <time>2015-02-19T14:01:37Z</time>
      </trkpt>
      <trkpt lat="40.326325" lon="-1.095519">
        <ele>928.461</ele>
        <time>2015-02-19T14:01:57Z</time>
      </trkpt>
      <trkpt lat="40.326656" lon="-1.095759">
        <ele>926.731</ele>
        <time>2015-02-19T14:02:17Z</time>
      </trkpt>
      <trkpt lat="40.326939" lon="-1.096045">
        <ele>925.397</ele>
        <time>2015-02-19T14:02:37Z</time>
      </trkpt>
      <trkpt lat="40.327135" lon="-1.096337">
        <ele>924.832</ele>
        <time>2015-02-19T14:02:57Z</time>
      </trkpt>
      <trkpt lat="40.327413" lon="-1.096713">
        <ele>923.419</ele>
        <time>2015-02-19T14:03:17Z</time>
      </trkpt>
      <trkpt lat="40.327524" lon="-1.096886">
        <ele>923.509</ele>
        <time>2015-02-19T14:03:37Z</time>
      </trkpt>
      <trkpt lat="40.327501" lon="-1.096777">
        <ele>923.619</ele>
        <time>2015-02-19T14:03:57Z</time>
      </trkpt>
      <trkpt lat="40.327401" lon="-1.096436">
        <ele>923.707</ele>
        <time>2015-02-19T14:04:17Z</time>
      </trkpt>
      <trkpt lat="40.327014" lon="-1.095779">
        <ele>922.439</ele>
        <time>2015-02-19T14:04:37Z</time>
      </trkpt>
      <trkpt lat="40.326563" lon="-1.095176">
        <ele>922.769</ele>
        <time>2015-02-19T14:04:57Z</time>
      </trkpt>
      <trkpt lat="40.326131" lon="-1.094624">
        <ele>923.840</ele>
        <time>2015-02-19T14:05:17Z</time>
      </trkpt>
      <trkpt lat="40.325985" lon="-1.094157">
        <ele>925.445</ele>
        <time>2015-02-19T14:05:37Z</time>
      </trkpt>
      <trkpt lat="40.325912" lon="-1.093692">
        <ele>926.615</ele>
        <time>2015-02-19T14:05:57Z</time>
      </trkpt>
      <trkpt lat="40.325937" lon="-1.093348">
        <ele>927.851</ele>
        <time>2015-02-19T14:06:17Z</time>
      </trkpt>
      <trkpt lat="40.326004" lon="-1.093103">
        <ele>929.086</ele>
        <time>2015-02-19T14:06:37Z</time>
      </trkpt>
      <trkpt lat="40.326077" lon="-1.092927">
        <ele>930.019</ele>
        <time>2015-02-19T14:06:57Z</time>
      </trkpt>
      <trkpt lat="40.326301" lon="-1.092633">
        <ele>931.709</ele>
        <time>2015-02-19T14:07:17Z</time>
      </trkpt>
      <trkpt lat="40.326659" lon="-1.092145">
        <ele>934.419</ele>
        <time>2015-02-19T14:07:37Z</time>
      </trkpt>
      <trkpt lat="40.327193" lon="-1.091450">
        <ele>937.207</ele>
        <time>2015-02-19T14:07:57Z</time>
      </trkpt>
      <trkpt lat="40.327412" lon="-1.091166">
        <ele>938.739</ele>
        <time>2015-02-19T14:08:17Z</time>
      </trkpt>
      <trkpt lat="40.327487" lon="-1.091022">
        <ele>939.169</ele>
        <time>2015-02-19T14:08:37Z</time>
      </trkpt>
      <trkpt lat="40.327654" lon="-1.090993">
        <ele>940.470</ele>
        <time>2015-02-19T14:08:57Z</time>
      </trkpt>
      <trkpt lat="40.327976" lon="-1.090711">
        <ele>941.715</ele>
        <time>2015-02-19T14:09:17Z</time>
      </trkpt>
      <trkpt lat="40.328295" lon="-1.090410">
        <ele>941.475</ele>
        <time>2015-02-19T14:09:37Z</time>
      </trkpt>
      <trkpt lat="40.328713" lon="-1.090020">
        <ele>942.861</ele>
        <time>2015-02-19T14:09:57Z</time>
      </trkpt>
      <trkpt lat="40.328801" lon="-1.089751">
        <ele>943.736</ele>
        <time>2015-02-19T14:10:17Z</time>
      </trkpt>
      <trkpt lat="40.328942" lon="-1.089745">
        <ele>943.991</ele>
        <time>2015-02-19T14:10:37Z</time>
      </trkpt>
      <trkpt lat="40.329091" lon="-1.089704">
        <ele>944.281</ele>
        <time>2015-02-19T14:10:57Z</time>
      </trkpt>
      <trkpt lat="40.329995" lon="-1.088584">
        <ele>947.319</ele>
        <time>2015-02-19T14:11:17Z</time>
      </trkpt>
      <trkpt lat="40.330249" lon="-1.088163">
        <ele>947.807</ele>
        <time>2015-02-19T14:11:37Z</time>
      </trkpt>
      <trkpt lat="40.330316" lon="-1.088038">
        <ele>947.957</ele>
        <time>2015-02-19T14:11:57Z</time>
      </trkpt>
      <trkpt lat="40.330382" lon="-1.087995">
        <ele>947.987</ele>
        <time>2015-02-19T14:12:17Z</time>
      </trkpt>
      <trkpt lat="40.330802" lon="-1.087471">
        <ele>950.538</ele>
        <time>2015-02-19T14:12:37Z</time>
      </trkpt>
      <trkpt lat="40.331214" lon="-1.087205">
        <ele>951.873</ele>
        <time>2015-02-19T14:12:57Z</time>
      </trkpt>
      <trkpt lat="40.332214" lon="-1.086958">
        <ele>958.193</ele>
        <time>2015-02-19T14:13:17Z</time>
      </trkpt>
      <trkpt lat="40.333097" lon="-1.086782">
        <ele>959.069</ele>
        <time>2015-02-19T14:13:37Z</time>
      </trkpt>
      <trkpt lat="40.333181" lon="-1.086640">
        <ele>958.694</ele>
        <time>2015-02-19T14:13:57Z</time>
      </trkpt>
      <trkpt lat="40.333088" lon="-1.085635">
        <ele>957.947</ele>
        <time>2015-02-19T14:14:17Z</time>
      </trkpt>
    </trkseg>
  </trk>
</gpx>
